<?xml version="1.0" encoding="UTF-8" standalone="no" ?>
<gpx xmlns="http://www.topografix.com/GPX/1/1" xmlns:xsi="http://www.w3.org/2001/XMLSchema-instance" xsi:schemaLocation="http://www.topografix.com/GPX/1/1 http://www.topografix.com/GPX/1/1/gpx.xsd" version="1.1" creator="VisuGPX - https://www.visugpx.com">
  <metadata>
    <name>Table Des Trois Rois (Sanchèse)</name>
    <desc><![CDATA[[img]https://lh3.googleusercontent.com/-JmvAxCbkbiE/UWrquIzWw-I/AAAAAAAALX0/7hwsKaXlmbM/s646/2013.04.14 Table Des Trois Rois %28Sanch%C3%A8se%29 013.jpg[/img]]]></desc>
  </metadata>
  <trk>
    <name><![CDATA[Table des Trois Rois (Sanchèse)]]></name>
    <trkseg>
      <trkpt lat="42.94166" lon="-0.67631">
        <ele>1028</ele>
        <time>2013-04-14T05:26:25Z</time>
      </trkpt>
      <trkpt lat="42.94163" lon="-0.67653">
        <ele>1029</ele>
        <time>2013-04-14T05:26:55Z</time>
      </trkpt>
      <trkpt lat="42.94165" lon="-0.67652">
        <ele>1030</ele>
        <time>2013-04-14T05:27:25Z</time>
      </trkpt>
      <trkpt lat="42.94163" lon="-0.67651">
        <ele>1028</ele>
        <time>2013-04-14T05:27:28Z</time>
      </trkpt>
      <trkpt lat="42.94163" lon="-0.67651">
        <ele>1028</ele>
        <time>2013-04-14T05:27:29Z</time>
      </trkpt>
      <trkpt lat="42.94163" lon="-0.67651">
        <ele>1033</ele>
        <time>2013-04-14T05:27:30Z</time>
      </trkpt>
      <trkpt lat="42.94163" lon="-0.67651">
        <ele>1031</ele>
        <time>2013-04-14T05:27:31Z</time>
      </trkpt>
      <trkpt lat="42.94164" lon="-0.67651">
        <ele>1031</ele>
        <time>2013-04-14T05:27:35Z</time>
      </trkpt>
      <trkpt lat="42.9416" lon="-0.67653">
        <ele>1030</ele>
        <time>2013-04-14T05:27:56Z</time>
      </trkpt>
      <trkpt lat="42.94162" lon="-0.67653">
        <ele>1032</ele>
        <time>2013-04-14T05:28:35Z</time>
      </trkpt>
      <trkpt lat="42.94163" lon="-0.67653">
        <ele>1032</ele>
        <time>2013-04-14T05:28:37Z</time>
      </trkpt>
      <trkpt lat="42.94164" lon="-0.67652">
        <ele>1033</ele>
        <time>2013-04-14T05:28:50Z</time>
      </trkpt>
      <trkpt lat="42.94162" lon="-0.67656">
        <ele>1033</ele>
        <time>2013-04-14T05:29:06Z</time>
      </trkpt>
      <trkpt lat="42.94162" lon="-0.67654">
        <ele>1033</ele>
        <time>2013-04-14T05:29:19Z</time>
      </trkpt>
      <trkpt lat="42.94165" lon="-0.67653">
        <ele>1034</ele>
        <time>2013-04-14T05:29:31Z</time>
      </trkpt>
      <trkpt lat="42.94171" lon="-0.67656">
        <ele>1035</ele>
        <time>2013-04-14T05:29:41Z</time>
      </trkpt>
      <trkpt lat="42.94173" lon="-0.67656">
        <ele>1035</ele>
        <time>2013-04-14T05:29:43Z</time>
      </trkpt>
      <trkpt lat="42.94184" lon="-0.67669">
        <ele>1035</ele>
        <time>2013-04-14T05:29:58Z</time>
      </trkpt>
      <trkpt lat="42.94197" lon="-0.67686">
        <ele>1036</ele>
        <time>2013-04-14T05:30:12Z</time>
      </trkpt>
      <trkpt lat="42.942" lon="-0.67689">
        <ele>1036</ele>
        <time>2013-04-14T05:30:15Z</time>
      </trkpt>
      <trkpt lat="42.94205" lon="-0.67691">
        <ele>1037</ele>
        <time>2013-04-14T05:30:18Z</time>
      </trkpt>
      <trkpt lat="42.94221" lon="-0.67703">
        <ele>1037</ele>
        <time>2013-04-14T05:30:35Z</time>
      </trkpt>
      <trkpt lat="42.94227" lon="-0.67707">
        <ele>1037</ele>
        <time>2013-04-14T05:30:41Z</time>
      </trkpt>
      <trkpt lat="42.94241" lon="-0.67712">
        <ele>1038</ele>
        <time>2013-04-14T05:30:56Z</time>
      </trkpt>
      <trkpt lat="42.94245" lon="-0.67714">
        <ele>1039</ele>
        <time>2013-04-14T05:31:00Z</time>
      </trkpt>
      <trkpt lat="42.94255" lon="-0.67726">
        <ele>1040</ele>
        <time>2013-04-14T05:31:13Z</time>
      </trkpt>
      <trkpt lat="42.94265" lon="-0.67743">
        <ele>1041</ele>
        <time>2013-04-14T05:31:28Z</time>
      </trkpt>
      <trkpt lat="42.94266" lon="-0.67745">
        <ele>1041</ele>
        <time>2013-04-14T05:31:29Z</time>
      </trkpt>
      <trkpt lat="42.94279" lon="-0.67767">
        <ele>1042</ele>
        <time>2013-04-14T05:31:46Z</time>
      </trkpt>
      <trkpt lat="42.94286" lon="-0.67772">
        <ele>1042</ele>
        <time>2013-04-14T05:31:53Z</time>
      </trkpt>
      <trkpt lat="42.9429" lon="-0.67775">
        <ele>1044</ele>
        <time>2013-04-14T05:31:57Z</time>
      </trkpt>
      <trkpt lat="42.94298" lon="-0.67796">
        <ele>1045</ele>
        <time>2013-04-14T05:32:13Z</time>
      </trkpt>
      <trkpt lat="42.94312" lon="-0.67808">
        <ele>1046</ele>
        <time>2013-04-14T05:32:27Z</time>
      </trkpt>
      <trkpt lat="42.94316" lon="-0.67814">
        <ele>1047</ele>
        <time>2013-04-14T05:32:32Z</time>
      </trkpt>
      <trkpt lat="42.94322" lon="-0.67823">
        <ele>1047</ele>
        <time>2013-04-14T05:32:40Z</time>
      </trkpt>
      <trkpt lat="42.94332" lon="-0.67843">
        <ele>1047</ele>
        <time>2013-04-14T05:32:53Z</time>
      </trkpt>
      <trkpt lat="42.94335" lon="-0.67863">
        <ele>1049</ele>
        <time>2013-04-14T05:33:04Z</time>
      </trkpt>
      <trkpt lat="42.94337" lon="-0.67871">
        <ele>1050</ele>
        <time>2013-04-14T05:33:10Z</time>
      </trkpt>
      <trkpt lat="42.94342" lon="-0.67884">
        <ele>1051</ele>
        <time>2013-04-14T05:33:22Z</time>
      </trkpt>
      <trkpt lat="42.94352" lon="-0.67905">
        <ele>1052</ele>
        <time>2013-04-14T05:33:40Z</time>
      </trkpt>
      <trkpt lat="42.94362" lon="-0.67927">
        <ele>1054</ele>
        <time>2013-04-14T05:33:52Z</time>
      </trkpt>
      <trkpt lat="42.94361" lon="-0.67937">
        <ele>1053</ele>
        <time>2013-04-14T05:34:00Z</time>
      </trkpt>
      <trkpt lat="42.94357" lon="-0.67937">
        <ele>1053</ele>
        <time>2013-04-14T05:34:04Z</time>
      </trkpt>
      <trkpt lat="42.94344" lon="-0.6795">
        <ele>1054</ele>
        <time>2013-04-14T05:34:17Z</time>
      </trkpt>
      <trkpt lat="42.94339" lon="-0.67955">
        <ele>1054</ele>
        <time>2013-04-14T05:34:21Z</time>
      </trkpt>
      <trkpt lat="42.94326" lon="-0.67966">
        <ele>1055</ele>
        <time>2013-04-14T05:34:35Z</time>
      </trkpt>
      <trkpt lat="42.94313" lon="-0.67973">
        <ele>1057</ele>
        <time>2013-04-14T05:34:47Z</time>
      </trkpt>
      <trkpt lat="42.94309" lon="-0.67986">
        <ele>1060</ele>
        <time>2013-04-14T05:35:00Z</time>
      </trkpt>
      <trkpt lat="42.94306" lon="-0.67991">
        <ele>1062</ele>
        <time>2013-04-14T05:35:11Z</time>
      </trkpt>
      <trkpt lat="42.94312" lon="-0.67995">
        <ele>1066</ele>
        <time>2013-04-14T05:35:23Z</time>
      </trkpt>
      <trkpt lat="42.9432" lon="-0.67999">
        <ele>1068</ele>
        <time>2013-04-14T05:35:36Z</time>
      </trkpt>
      <trkpt lat="42.94324" lon="-0.68005">
        <ele>1071</ele>
        <time>2013-04-14T05:35:50Z</time>
      </trkpt>
      <trkpt lat="42.9433" lon="-0.68011">
        <ele>1072</ele>
        <time>2013-04-14T05:36:02Z</time>
      </trkpt>
      <trkpt lat="42.94328" lon="-0.68021">
        <ele>1075</ele>
        <time>2013-04-14T05:36:16Z</time>
      </trkpt>
      <trkpt lat="42.94324" lon="-0.68021">
        <ele>1077</ele>
        <time>2013-04-14T05:36:28Z</time>
      </trkpt>
      <trkpt lat="42.94321" lon="-0.68026">
        <ele>1079</ele>
        <time>2013-04-14T05:36:40Z</time>
      </trkpt>
      <trkpt lat="42.94318" lon="-0.68029">
        <ele>1082</ele>
        <time>2013-04-14T05:36:54Z</time>
      </trkpt>
      <trkpt lat="42.94323" lon="-0.6803">
        <ele>1083</ele>
        <time>2013-04-14T05:37:05Z</time>
      </trkpt>
      <trkpt lat="42.94329" lon="-0.68037">
        <ele>1085</ele>
        <time>2013-04-14T05:37:16Z</time>
      </trkpt>
      <trkpt lat="42.94332" lon="-0.68043">
        <ele>1087</ele>
        <time>2013-04-14T05:37:29Z</time>
      </trkpt>
      <trkpt lat="42.94338" lon="-0.68047">
        <ele>1090</ele>
        <time>2013-04-14T05:37:42Z</time>
      </trkpt>
      <trkpt lat="42.94342" lon="-0.68053">
        <ele>1093</ele>
        <time>2013-04-14T05:37:55Z</time>
      </trkpt>
      <trkpt lat="42.94344" lon="-0.68059">
        <ele>1094</ele>
        <time>2013-04-14T05:38:08Z</time>
      </trkpt>
      <trkpt lat="42.94337" lon="-0.68063">
        <ele>1096</ele>
        <time>2013-04-14T05:38:21Z</time>
      </trkpt>
      <trkpt lat="42.94333" lon="-0.68061">
        <ele>1098</ele>
        <time>2013-04-14T05:38:35Z</time>
      </trkpt>
      <trkpt lat="42.94327" lon="-0.68059">
        <ele>1099</ele>
        <time>2013-04-14T05:38:48Z</time>
      </trkpt>
      <trkpt lat="42.94324" lon="-0.68056">
        <ele>1101</ele>
        <time>2013-04-14T05:38:59Z</time>
      </trkpt>
      <trkpt lat="42.94322" lon="-0.68061">
        <ele>1103</ele>
        <time>2013-04-14T05:39:13Z</time>
      </trkpt>
      <trkpt lat="42.94315" lon="-0.68065">
        <ele>1105</ele>
        <time>2013-04-14T05:39:30Z</time>
      </trkpt>
      <trkpt lat="42.9431" lon="-0.68065">
        <ele>1109</ele>
        <time>2013-04-14T05:39:46Z</time>
      </trkpt>
      <trkpt lat="42.94305" lon="-0.68071">
        <ele>1110</ele>
        <time>2013-04-14T05:40:01Z</time>
      </trkpt>
      <trkpt lat="42.94299" lon="-0.68065">
        <ele>1114</ele>
        <time>2013-04-14T05:40:14Z</time>
      </trkpt>
      <trkpt lat="42.94292" lon="-0.68058">
        <ele>1117</ele>
        <time>2013-04-14T05:40:31Z</time>
      </trkpt>
      <trkpt lat="42.94297" lon="-0.68071">
        <ele>1120</ele>
        <time>2013-04-14T05:40:50Z</time>
      </trkpt>
      <trkpt lat="42.94297" lon="-0.68071">
        <ele>1122</ele>
        <time>2013-04-14T05:41:04Z</time>
      </trkpt>
      <trkpt lat="42.94288" lon="-0.68064">
        <ele>1124</ele>
        <time>2013-04-14T05:41:20Z</time>
      </trkpt>
      <trkpt lat="42.9429" lon="-0.68064">
        <ele>1128</ele>
        <time>2013-04-14T05:41:38Z</time>
      </trkpt>
      <trkpt lat="42.94282" lon="-0.68056">
        <ele>1130</ele>
        <time>2013-04-14T05:41:49Z</time>
      </trkpt>
      <trkpt lat="42.94278" lon="-0.68062">
        <ele>1132</ele>
        <time>2013-04-14T05:42:04Z</time>
      </trkpt>
      <trkpt lat="42.9428" lon="-0.68075">
        <ele>1134</ele>
        <time>2013-04-14T05:42:20Z</time>
      </trkpt>
      <trkpt lat="42.94274" lon="-0.68065">
        <ele>1135</ele>
        <time>2013-04-14T05:42:35Z</time>
      </trkpt>
      <trkpt lat="42.94271" lon="-0.68056">
        <ele>1138</ele>
        <time>2013-04-14T05:42:49Z</time>
      </trkpt>
      <trkpt lat="42.94266" lon="-0.6805">
        <ele>1140</ele>
        <time>2013-04-14T05:43:00Z</time>
      </trkpt>
      <trkpt lat="42.9426" lon="-0.68053">
        <ele>1141</ele>
        <time>2013-04-14T05:43:12Z</time>
      </trkpt>
      <trkpt lat="42.94248" lon="-0.68059">
        <ele>1143</ele>
        <time>2013-04-14T05:43:25Z</time>
      </trkpt>
      <trkpt lat="42.94241" lon="-0.6806">
        <ele>1144</ele>
        <time>2013-04-14T05:43:35Z</time>
      </trkpt>
      <trkpt lat="42.94236" lon="-0.68065">
        <ele>1146</ele>
        <time>2013-04-14T05:43:50Z</time>
      </trkpt>
      <trkpt lat="42.94233" lon="-0.68071">
        <ele>1149</ele>
        <time>2013-04-14T05:44:04Z</time>
      </trkpt>
      <trkpt lat="42.94236" lon="-0.68073">
        <ele>1151</ele>
        <time>2013-04-14T05:44:14Z</time>
      </trkpt>
      <trkpt lat="42.94241" lon="-0.68076">
        <ele>1152</ele>
        <time>2013-04-14T05:44:28Z</time>
      </trkpt>
      <trkpt lat="42.94249" lon="-0.68082">
        <ele>1154</ele>
        <time>2013-04-14T05:44:41Z</time>
      </trkpt>
      <trkpt lat="42.94251" lon="-0.6809">
        <ele>1158</ele>
        <time>2013-04-14T05:44:55Z</time>
      </trkpt>
      <trkpt lat="42.94256" lon="-0.68094">
        <ele>1159</ele>
        <time>2013-04-14T05:45:05Z</time>
      </trkpt>
      <trkpt lat="42.94256" lon="-0.68094">
        <ele>1160</ele>
        <time>2013-04-14T05:45:19Z</time>
      </trkpt>
      <trkpt lat="42.94254" lon="-0.68102">
        <ele>1163</ele>
        <time>2013-04-14T05:45:31Z</time>
      </trkpt>
      <trkpt lat="42.94253" lon="-0.68109">
        <ele>1164</ele>
        <time>2013-04-14T05:45:43Z</time>
      </trkpt>
      <trkpt lat="42.94257" lon="-0.68116">
        <ele>1166</ele>
        <time>2013-04-14T05:45:52Z</time>
      </trkpt>
      <trkpt lat="42.94262" lon="-0.68123">
        <ele>1169</ele>
        <time>2013-04-14T05:46:06Z</time>
      </trkpt>
      <trkpt lat="42.94267" lon="-0.68129">
        <ele>1171</ele>
        <time>2013-04-14T05:46:20Z</time>
      </trkpt>
      <trkpt lat="42.94265" lon="-0.68132">
        <ele>1171</ele>
        <time>2013-04-14T05:46:26Z</time>
      </trkpt>
      <trkpt lat="42.94262" lon="-0.68133">
        <ele>1173</ele>
        <time>2013-04-14T05:46:40Z</time>
      </trkpt>
      <trkpt lat="42.94258" lon="-0.68129">
        <ele>1175</ele>
        <time>2013-04-14T05:46:51Z</time>
      </trkpt>
      <trkpt lat="42.94249" lon="-0.68128">
        <ele>1177</ele>
        <time>2013-04-14T05:47:04Z</time>
      </trkpt>
      <trkpt lat="42.94241" lon="-0.68126">
        <ele>1180</ele>
        <time>2013-04-14T05:47:18Z</time>
      </trkpt>
      <trkpt lat="42.94239" lon="-0.6814">
        <ele>1183</ele>
        <time>2013-04-14T05:47:33Z</time>
      </trkpt>
      <trkpt lat="42.94236" lon="-0.68142">
        <ele>1185</ele>
        <time>2013-04-14T05:47:45Z</time>
      </trkpt>
      <trkpt lat="42.9424" lon="-0.68149">
        <ele>1187</ele>
        <time>2013-04-14T05:47:57Z</time>
      </trkpt>
      <trkpt lat="42.94238" lon="-0.68154">
        <ele>1190</ele>
        <time>2013-04-14T05:48:10Z</time>
      </trkpt>
      <trkpt lat="42.94243" lon="-0.68154">
        <ele>1190</ele>
        <time>2013-04-14T05:48:20Z</time>
      </trkpt>
      <trkpt lat="42.94248" lon="-0.6815">
        <ele>1193</ele>
        <time>2013-04-14T05:48:32Z</time>
      </trkpt>
      <trkpt lat="42.94248" lon="-0.68155">
        <ele>1196</ele>
        <time>2013-04-14T05:48:45Z</time>
      </trkpt>
      <trkpt lat="42.94244" lon="-0.68159">
        <ele>1198</ele>
        <time>2013-04-14T05:48:59Z</time>
      </trkpt>
      <trkpt lat="42.94242" lon="-0.68159">
        <ele>1199</ele>
        <time>2013-04-14T05:49:11Z</time>
      </trkpt>
      <trkpt lat="42.94242" lon="-0.68163">
        <ele>1201</ele>
        <time>2013-04-14T05:49:25Z</time>
      </trkpt>
      <trkpt lat="42.94242" lon="-0.68166">
        <ele>1202</ele>
        <time>2013-04-14T05:49:37Z</time>
      </trkpt>
      <trkpt lat="42.94246" lon="-0.68167">
        <ele>1204</ele>
        <time>2013-04-14T05:49:48Z</time>
      </trkpt>
      <trkpt lat="42.94251" lon="-0.68165">
        <ele>1206</ele>
        <time>2013-04-14T05:49:58Z</time>
      </trkpt>
      <trkpt lat="42.94256" lon="-0.68163">
        <ele>1208</ele>
        <time>2013-04-14T05:50:11Z</time>
      </trkpt>
      <trkpt lat="42.94259" lon="-0.68163">
        <ele>1210</ele>
        <time>2013-04-14T05:50:23Z</time>
      </trkpt>
      <trkpt lat="42.94264" lon="-0.68166">
        <ele>1212</ele>
        <time>2013-04-14T05:50:34Z</time>
      </trkpt>
      <trkpt lat="42.9426" lon="-0.68167">
        <ele>1214</ele>
        <time>2013-04-14T05:50:46Z</time>
      </trkpt>
      <trkpt lat="42.94257" lon="-0.68174">
        <ele>1217</ele>
        <time>2013-04-14T05:50:58Z</time>
      </trkpt>
      <trkpt lat="42.94258" lon="-0.68184">
        <ele>1219</ele>
        <time>2013-04-14T05:51:12Z</time>
      </trkpt>
      <trkpt lat="42.94255" lon="-0.68192">
        <ele>1221</ele>
        <time>2013-04-14T05:51:26Z</time>
      </trkpt>
      <trkpt lat="42.94253" lon="-0.68202">
        <ele>1223</ele>
        <time>2013-04-14T05:51:39Z</time>
      </trkpt>
      <trkpt lat="42.94253" lon="-0.6821">
        <ele>1226</ele>
        <time>2013-04-14T05:51:51Z</time>
      </trkpt>
      <trkpt lat="42.94253" lon="-0.68213">
        <ele>1227</ele>
        <time>2013-04-14T05:52:05Z</time>
      </trkpt>
      <trkpt lat="42.94255" lon="-0.68213">
        <ele>1227</ele>
        <time>2013-04-14T05:52:18Z</time>
      </trkpt>
      <trkpt lat="42.94256" lon="-0.68224">
        <ele>1229</ele>
        <time>2013-04-14T05:52:38Z</time>
      </trkpt>
      <trkpt lat="42.94258" lon="-0.68238">
        <ele>1230</ele>
        <time>2013-04-14T05:52:51Z</time>
      </trkpt>
      <trkpt lat="42.94258" lon="-0.68251">
        <ele>1233</ele>
        <time>2013-04-14T05:53:03Z</time>
      </trkpt>
      <trkpt lat="42.94261" lon="-0.68257">
        <ele>1235</ele>
        <time>2013-04-14T05:53:18Z</time>
      </trkpt>
      <trkpt lat="42.94263" lon="-0.68265">
        <ele>1237</ele>
        <time>2013-04-14T05:53:32Z</time>
      </trkpt>
      <trkpt lat="42.94263" lon="-0.68271">
        <ele>1239</ele>
        <time>2013-04-14T05:53:43Z</time>
      </trkpt>
      <trkpt lat="42.94268" lon="-0.68277">
        <ele>1241</ele>
        <time>2013-04-14T05:53:57Z</time>
      </trkpt>
      <trkpt lat="42.94269" lon="-0.68286">
        <ele>1244</ele>
        <time>2013-04-14T05:54:13Z</time>
      </trkpt>
      <trkpt lat="42.94269" lon="-0.68291">
        <ele>1246</ele>
        <time>2013-04-14T05:54:26Z</time>
      </trkpt>
      <trkpt lat="42.94271" lon="-0.68295">
        <ele>1247</ele>
        <time>2013-04-14T05:54:41Z</time>
      </trkpt>
      <trkpt lat="42.94268" lon="-0.68294">
        <ele>1250</ele>
        <time>2013-04-14T05:54:54Z</time>
      </trkpt>
      <trkpt lat="42.94268" lon="-0.68307">
        <ele>1252</ele>
        <time>2013-04-14T05:55:08Z</time>
      </trkpt>
      <trkpt lat="42.94268" lon="-0.68315">
        <ele>1255</ele>
        <time>2013-04-14T05:55:22Z</time>
      </trkpt>
      <trkpt lat="42.94273" lon="-0.68328">
        <ele>1257</ele>
        <time>2013-04-14T05:55:37Z</time>
      </trkpt>
      <trkpt lat="42.94273" lon="-0.68338">
        <ele>1258</ele>
        <time>2013-04-14T05:55:51Z</time>
      </trkpt>
      <trkpt lat="42.94268" lon="-0.68346">
        <ele>1260</ele>
        <time>2013-04-14T05:56:03Z</time>
      </trkpt>
      <trkpt lat="42.94271" lon="-0.68352">
        <ele>1262</ele>
        <time>2013-04-14T05:56:14Z</time>
      </trkpt>
      <trkpt lat="42.9428" lon="-0.68353">
        <ele>1265</ele>
        <time>2013-04-14T05:56:29Z</time>
      </trkpt>
      <trkpt lat="42.94284" lon="-0.68355">
        <ele>1267</ele>
        <time>2013-04-14T05:56:45Z</time>
      </trkpt>
      <trkpt lat="42.94282" lon="-0.68367">
        <ele>1271</ele>
        <time>2013-04-14T05:57:00Z</time>
      </trkpt>
      <trkpt lat="42.94283" lon="-0.68372">
        <ele>1272</ele>
        <time>2013-04-14T05:57:13Z</time>
      </trkpt>
      <trkpt lat="42.94284" lon="-0.68376">
        <ele>1274</ele>
        <time>2013-04-14T05:57:24Z</time>
      </trkpt>
      <trkpt lat="42.94284" lon="-0.6838">
        <ele>1277</ele>
        <time>2013-04-14T05:57:36Z</time>
      </trkpt>
      <trkpt lat="42.94284" lon="-0.68384">
        <ele>1278</ele>
        <time>2013-04-14T05:57:47Z</time>
      </trkpt>
      <trkpt lat="42.94285" lon="-0.68391">
        <ele>1280</ele>
        <time>2013-04-14T05:58:00Z</time>
      </trkpt>
      <trkpt lat="42.94284" lon="-0.684">
        <ele>1283</ele>
        <time>2013-04-14T05:58:14Z</time>
      </trkpt>
      <trkpt lat="42.94284" lon="-0.68407">
        <ele>1284</ele>
        <time>2013-04-14T05:58:24Z</time>
      </trkpt>
      <trkpt lat="42.94285" lon="-0.68417">
        <ele>1286</ele>
        <time>2013-04-14T05:58:37Z</time>
      </trkpt>
      <trkpt lat="42.94286" lon="-0.68426">
        <ele>1287</ele>
        <time>2013-04-14T05:58:53Z</time>
      </trkpt>
      <trkpt lat="42.94282" lon="-0.68433">
        <ele>1289</ele>
        <time>2013-04-14T05:59:03Z</time>
      </trkpt>
      <trkpt lat="42.94283" lon="-0.68436">
        <ele>1290</ele>
        <time>2013-04-14T05:59:06Z</time>
      </trkpt>
      <trkpt lat="42.94285" lon="-0.68446">
        <ele>1292</ele>
        <time>2013-04-14T05:59:17Z</time>
      </trkpt>
      <trkpt lat="42.94283" lon="-0.68457">
        <ele>1293</ele>
        <time>2013-04-14T05:59:31Z</time>
      </trkpt>
      <trkpt lat="42.9429" lon="-0.68465">
        <ele>1295</ele>
        <time>2013-04-14T05:59:46Z</time>
      </trkpt>
      <trkpt lat="42.94296" lon="-0.68474">
        <ele>1296</ele>
        <time>2013-04-14T06:00:01Z</time>
      </trkpt>
      <trkpt lat="42.943" lon="-0.68482">
        <ele>1298</ele>
        <time>2013-04-14T06:00:14Z</time>
      </trkpt>
      <trkpt lat="42.94303" lon="-0.68491">
        <ele>1298</ele>
        <time>2013-04-14T06:00:26Z</time>
      </trkpt>
      <trkpt lat="42.94307" lon="-0.68501">
        <ele>1298</ele>
        <time>2013-04-14T06:00:39Z</time>
      </trkpt>
      <trkpt lat="42.94306" lon="-0.68513">
        <ele>1300</ele>
        <time>2013-04-14T06:00:56Z</time>
      </trkpt>
      <trkpt lat="42.94304" lon="-0.68532">
        <ele>1300</ele>
        <time>2013-04-14T06:01:11Z</time>
      </trkpt>
      <trkpt lat="42.94304" lon="-0.68546">
        <ele>1300</ele>
        <time>2013-04-14T06:01:25Z</time>
      </trkpt>
      <trkpt lat="42.943" lon="-0.68564">
        <ele>1300</ele>
        <time>2013-04-14T06:01:38Z</time>
      </trkpt>
      <trkpt lat="42.94301" lon="-0.68573">
        <ele>1301</ele>
        <time>2013-04-14T06:01:50Z</time>
      </trkpt>
      <trkpt lat="42.94298" lon="-0.68594">
        <ele>1302</ele>
        <time>2013-04-14T06:02:05Z</time>
      </trkpt>
      <trkpt lat="42.94295" lon="-0.68604">
        <ele>1303</ele>
        <time>2013-04-14T06:02:23Z</time>
      </trkpt>
      <trkpt lat="42.94291" lon="-0.68618">
        <ele>1305</ele>
        <time>2013-04-14T06:02:38Z</time>
      </trkpt>
      <trkpt lat="42.94288" lon="-0.68627">
        <ele>1305</ele>
        <time>2013-04-14T06:02:48Z</time>
      </trkpt>
      <trkpt lat="42.94285" lon="-0.68643">
        <ele>1306</ele>
        <time>2013-04-14T06:03:00Z</time>
      </trkpt>
      <trkpt lat="42.94284" lon="-0.68652">
        <ele>1308</ele>
        <time>2013-04-14T06:03:12Z</time>
      </trkpt>
      <trkpt lat="42.94281" lon="-0.68663">
        <ele>1308</ele>
        <time>2013-04-14T06:03:25Z</time>
      </trkpt>
      <trkpt lat="42.9428" lon="-0.68668">
        <ele>1308</ele>
        <time>2013-04-14T06:03:32Z</time>
      </trkpt>
      <trkpt lat="42.9428" lon="-0.68676">
        <ele>1309</ele>
        <time>2013-04-14T06:03:46Z</time>
      </trkpt>
      <trkpt lat="42.94278" lon="-0.68683">
        <ele>1310</ele>
        <time>2013-04-14T06:04:00Z</time>
      </trkpt>
      <trkpt lat="42.94275" lon="-0.68694">
        <ele>1310</ele>
        <time>2013-04-14T06:04:14Z</time>
      </trkpt>
      <trkpt lat="42.94273" lon="-0.68706">
        <ele>1312</ele>
        <time>2013-04-14T06:04:28Z</time>
      </trkpt>
      <trkpt lat="42.94269" lon="-0.68713">
        <ele>1314</ele>
        <time>2013-04-14T06:04:45Z</time>
      </trkpt>
      <trkpt lat="42.94265" lon="-0.68721">
        <ele>1316</ele>
        <time>2013-04-14T06:04:59Z</time>
      </trkpt>
      <trkpt lat="42.94263" lon="-0.68728">
        <ele>1319</ele>
        <time>2013-04-14T06:05:13Z</time>
      </trkpt>
      <trkpt lat="42.94263" lon="-0.68735">
        <ele>1320</ele>
        <time>2013-04-14T06:05:28Z</time>
      </trkpt>
      <trkpt lat="42.94262" lon="-0.68748">
        <ele>1322</ele>
        <time>2013-04-14T06:05:45Z</time>
      </trkpt>
      <trkpt lat="42.94255" lon="-0.68756">
        <ele>1323</ele>
        <time>2013-04-14T06:05:59Z</time>
      </trkpt>
      <trkpt lat="42.94254" lon="-0.68758">
        <ele>1324</ele>
        <time>2013-04-14T06:06:09Z</time>
      </trkpt>
      <trkpt lat="42.94245" lon="-0.68765">
        <ele>1326</ele>
        <time>2013-04-14T06:06:23Z</time>
      </trkpt>
      <trkpt lat="42.94245" lon="-0.68776">
        <ele>1328</ele>
        <time>2013-04-14T06:06:35Z</time>
      </trkpt>
      <trkpt lat="42.94245" lon="-0.68783">
        <ele>1330</ele>
        <time>2013-04-14T06:06:42Z</time>
      </trkpt>
      <trkpt lat="42.94244" lon="-0.68795">
        <ele>1331</ele>
        <time>2013-04-14T06:06:55Z</time>
      </trkpt>
      <trkpt lat="42.94244" lon="-0.68803">
        <ele>1333</ele>
        <time>2013-04-14T06:07:08Z</time>
      </trkpt>
      <trkpt lat="42.94242" lon="-0.68801">
        <ele>1334</ele>
        <time>2013-04-14T06:07:24Z</time>
      </trkpt>
      <trkpt lat="42.94244" lon="-0.68802">
        <ele>1334</ele>
        <time>2013-04-14T06:07:37Z</time>
      </trkpt>
      <trkpt lat="42.94245" lon="-0.68802">
        <ele>1333</ele>
        <time>2013-04-14T06:07:52Z</time>
      </trkpt>
      <trkpt lat="42.94245" lon="-0.68798">
        <ele>1333</ele>
        <time>2013-04-14T06:08:19Z</time>
      </trkpt>
      <trkpt lat="42.94249" lon="-0.68802">
        <ele>1333</ele>
        <time>2013-04-14T06:08:49Z</time>
      </trkpt>
      <trkpt lat="42.9425" lon="-0.68805">
        <ele>1334</ele>
        <time>2013-04-14T06:09:27Z</time>
      </trkpt>
      <trkpt lat="42.94248" lon="-0.68808">
        <ele>1334</ele>
        <time>2013-04-14T06:10:11Z</time>
      </trkpt>
      <trkpt lat="42.94249" lon="-0.68804">
        <ele>1334</ele>
        <time>2013-04-14T06:10:48Z</time>
      </trkpt>
      <trkpt lat="42.9425" lon="-0.68804">
        <ele>1335</ele>
        <time>2013-04-14T06:10:51Z</time>
      </trkpt>
      <trkpt lat="42.94249" lon="-0.68803">
        <ele>1336</ele>
        <time>2013-04-14T06:11:22Z</time>
      </trkpt>
      <trkpt lat="42.94248" lon="-0.68805">
        <ele>1336</ele>
        <time>2013-04-14T06:11:52Z</time>
      </trkpt>
      <trkpt lat="42.94246" lon="-0.68803">
        <ele>1336</ele>
        <time>2013-04-14T06:12:10Z</time>
      </trkpt>
      <trkpt lat="42.94246" lon="-0.68806">
        <ele>1337</ele>
        <time>2013-04-14T06:12:29Z</time>
      </trkpt>
      <trkpt lat="42.94245" lon="-0.68806">
        <ele>1337</ele>
        <time>2013-04-14T06:12:50Z</time>
      </trkpt>
      <trkpt lat="42.94247" lon="-0.6881">
        <ele>1337</ele>
        <time>2013-04-14T06:13:18Z</time>
      </trkpt>
      <trkpt lat="42.94247" lon="-0.68801">
        <ele>1337</ele>
        <time>2013-04-14T06:13:37Z</time>
      </trkpt>
      <trkpt lat="42.94247" lon="-0.68801">
        <ele>1339</ele>
        <time>2013-04-14T06:13:49Z</time>
      </trkpt>
      <trkpt lat="42.94248" lon="-0.68802">
        <ele>1339</ele>
        <time>2013-04-14T06:14:03Z</time>
      </trkpt>
      <trkpt lat="42.94249" lon="-0.68805">
        <ele>1339</ele>
        <time>2013-04-14T06:14:18Z</time>
      </trkpt>
      <trkpt lat="42.94246" lon="-0.68808">
        <ele>1339</ele>
        <time>2013-04-14T06:14:28Z</time>
      </trkpt>
      <trkpt lat="42.94242" lon="-0.68807">
        <ele>1339</ele>
        <time>2013-04-14T06:14:44Z</time>
      </trkpt>
      <trkpt lat="42.94242" lon="-0.68808">
        <ele>1340</ele>
        <time>2013-04-14T06:15:00Z</time>
      </trkpt>
      <trkpt lat="42.94243" lon="-0.68814">
        <ele>1340</ele>
        <time>2013-04-14T06:15:17Z</time>
      </trkpt>
      <trkpt lat="42.94242" lon="-0.68818">
        <ele>1341</ele>
        <time>2013-04-14T06:15:32Z</time>
      </trkpt>
      <trkpt lat="42.94242" lon="-0.68826">
        <ele>1343</ele>
        <time>2013-04-14T06:15:43Z</time>
      </trkpt>
      <trkpt lat="42.9424" lon="-0.68839">
        <ele>1344</ele>
        <time>2013-04-14T06:15:55Z</time>
      </trkpt>
      <trkpt lat="42.94241" lon="-0.68839">
        <ele>1344</ele>
        <time>2013-04-14T06:15:56Z</time>
      </trkpt>
      <trkpt lat="42.94243" lon="-0.68845">
        <ele>1345</ele>
        <time>2013-04-14T06:16:04Z</time>
      </trkpt>
      <trkpt lat="42.94241" lon="-0.68859">
        <ele>1347</ele>
        <time>2013-04-14T06:16:16Z</time>
      </trkpt>
      <trkpt lat="42.9424" lon="-0.68873">
        <ele>1349</ele>
        <time>2013-04-14T06:16:31Z</time>
      </trkpt>
      <trkpt lat="42.94237" lon="-0.68883">
        <ele>1349</ele>
        <time>2013-04-14T06:16:44Z</time>
      </trkpt>
      <trkpt lat="42.94232" lon="-0.68889">
        <ele>1349</ele>
        <time>2013-04-14T06:16:56Z</time>
      </trkpt>
      <trkpt lat="42.94232" lon="-0.68895">
        <ele>1349</ele>
        <time>2013-04-14T06:17:07Z</time>
      </trkpt>
      <trkpt lat="42.94237" lon="-0.68905">
        <ele>1351</ele>
        <time>2013-04-14T06:17:18Z</time>
      </trkpt>
      <trkpt lat="42.94236" lon="-0.68907">
        <ele>1352</ele>
        <time>2013-04-14T06:17:33Z</time>
      </trkpt>
      <trkpt lat="42.94234" lon="-0.68912">
        <ele>1352</ele>
        <time>2013-04-14T06:17:44Z</time>
      </trkpt>
      <trkpt lat="42.94223" lon="-0.68929">
        <ele>1354</ele>
        <time>2013-04-14T06:18:01Z</time>
      </trkpt>
      <trkpt lat="42.94223" lon="-0.68939">
        <ele>1356</ele>
        <time>2013-04-14T06:18:14Z</time>
      </trkpt>
      <trkpt lat="42.9422" lon="-0.68947">
        <ele>1356</ele>
        <time>2013-04-14T06:18:22Z</time>
      </trkpt>
      <trkpt lat="42.94212" lon="-0.68961">
        <ele>1357</ele>
        <time>2013-04-14T06:18:34Z</time>
      </trkpt>
      <trkpt lat="42.94207" lon="-0.68972">
        <ele>1358</ele>
        <time>2013-04-14T06:18:46Z</time>
      </trkpt>
      <trkpt lat="42.94204" lon="-0.68987">
        <ele>1359</ele>
        <time>2013-04-14T06:19:02Z</time>
      </trkpt>
      <trkpt lat="42.94203" lon="-0.68989">
        <ele>1359</ele>
        <time>2013-04-14T06:19:04Z</time>
      </trkpt>
      <trkpt lat="42.94206" lon="-0.69">
        <ele>1361</ele>
        <time>2013-04-14T06:19:16Z</time>
      </trkpt>
      <trkpt lat="42.94202" lon="-0.69014">
        <ele>1363</ele>
        <time>2013-04-14T06:19:30Z</time>
      </trkpt>
      <trkpt lat="42.94196" lon="-0.69023">
        <ele>1365</ele>
        <time>2013-04-14T06:19:44Z</time>
      </trkpt>
      <trkpt lat="42.9419" lon="-0.69035">
        <ele>1367</ele>
        <time>2013-04-14T06:19:57Z</time>
      </trkpt>
      <trkpt lat="42.94189" lon="-0.69044">
        <ele>1368</ele>
        <time>2013-04-14T06:20:11Z</time>
      </trkpt>
      <trkpt lat="42.94189" lon="-0.69053">
        <ele>1369</ele>
        <time>2013-04-14T06:20:24Z</time>
      </trkpt>
      <trkpt lat="42.9419" lon="-0.69064">
        <ele>1370</ele>
        <time>2013-04-14T06:20:39Z</time>
      </trkpt>
      <trkpt lat="42.94184" lon="-0.69071">
        <ele>1370</ele>
        <time>2013-04-14T06:21:00Z</time>
      </trkpt>
      <trkpt lat="42.94188" lon="-0.6907">
        <ele>1370</ele>
        <time>2013-04-14T06:21:20Z</time>
      </trkpt>
      <trkpt lat="42.94188" lon="-0.69072">
        <ele>1372</ele>
        <time>2013-04-14T06:21:31Z</time>
      </trkpt>
      <trkpt lat="42.94191" lon="-0.69076">
        <ele>1372</ele>
        <time>2013-04-14T06:21:44Z</time>
      </trkpt>
      <trkpt lat="42.9419" lon="-0.69085">
        <ele>1373</ele>
        <time>2013-04-14T06:21:55Z</time>
      </trkpt>
      <trkpt lat="42.94186" lon="-0.69094">
        <ele>1375</ele>
        <time>2013-04-14T06:22:07Z</time>
      </trkpt>
      <trkpt lat="42.94184" lon="-0.69099">
        <ele>1375</ele>
        <time>2013-04-14T06:22:19Z</time>
      </trkpt>
      <trkpt lat="42.94184" lon="-0.69112">
        <ele>1376</ele>
        <time>2013-04-14T06:22:33Z</time>
      </trkpt>
      <trkpt lat="42.94182" lon="-0.69121">
        <ele>1378</ele>
        <time>2013-04-14T06:22:46Z</time>
      </trkpt>
      <trkpt lat="42.94179" lon="-0.69122">
        <ele>1379</ele>
        <time>2013-04-14T06:23:01Z</time>
      </trkpt>
      <trkpt lat="42.94181" lon="-0.69124">
        <ele>1379</ele>
        <time>2013-04-14T06:23:19Z</time>
      </trkpt>
      <trkpt lat="42.94175" lon="-0.69119">
        <ele>1380</ele>
        <time>2013-04-14T06:23:40Z</time>
      </trkpt>
      <trkpt lat="42.94177" lon="-0.69122">
        <ele>1380</ele>
        <time>2013-04-14T06:24:01Z</time>
      </trkpt>
      <trkpt lat="42.94173" lon="-0.69122">
        <ele>1381</ele>
        <time>2013-04-14T06:24:28Z</time>
      </trkpt>
      <trkpt lat="42.94173" lon="-0.69129">
        <ele>1382</ele>
        <time>2013-04-14T06:24:42Z</time>
      </trkpt>
      <trkpt lat="42.94168" lon="-0.69135">
        <ele>1384</ele>
        <time>2013-04-14T06:24:57Z</time>
      </trkpt>
      <trkpt lat="42.94164" lon="-0.69139">
        <ele>1386</ele>
        <time>2013-04-14T06:25:10Z</time>
      </trkpt>
      <trkpt lat="42.94162" lon="-0.69142">
        <ele>1388</ele>
        <time>2013-04-14T06:25:25Z</time>
      </trkpt>
      <trkpt lat="42.94155" lon="-0.69146">
        <ele>1391</ele>
        <time>2013-04-14T06:25:40Z</time>
      </trkpt>
      <trkpt lat="42.94147" lon="-0.69156">
        <ele>1393</ele>
        <time>2013-04-14T06:25:50Z</time>
      </trkpt>
      <trkpt lat="42.94144" lon="-0.69162">
        <ele>1395</ele>
        <time>2013-04-14T06:26:09Z</time>
      </trkpt>
      <trkpt lat="42.94141" lon="-0.69175">
        <ele>1398</ele>
        <time>2013-04-14T06:26:22Z</time>
      </trkpt>
      <trkpt lat="42.94137" lon="-0.69177">
        <ele>1398</ele>
        <time>2013-04-14T06:26:32Z</time>
      </trkpt>
      <trkpt lat="42.94134" lon="-0.69176">
        <ele>1398</ele>
        <time>2013-04-14T06:26:49Z</time>
      </trkpt>
      <trkpt lat="42.94131" lon="-0.69173">
        <ele>1398</ele>
        <time>2013-04-14T06:27:02Z</time>
      </trkpt>
      <trkpt lat="42.94131" lon="-0.69172">
        <ele>1400</ele>
        <time>2013-04-14T06:27:14Z</time>
      </trkpt>
      <trkpt lat="42.94128" lon="-0.69178">
        <ele>1400</ele>
        <time>2013-04-14T06:27:27Z</time>
      </trkpt>
      <trkpt lat="42.94122" lon="-0.69183">
        <ele>1402</ele>
        <time>2013-04-14T06:27:39Z</time>
      </trkpt>
      <trkpt lat="42.94114" lon="-0.69189">
        <ele>1404</ele>
        <time>2013-04-14T06:27:50Z</time>
      </trkpt>
      <trkpt lat="42.94111" lon="-0.69192">
        <ele>1406</ele>
        <time>2013-04-14T06:28:01Z</time>
      </trkpt>
      <trkpt lat="42.94104" lon="-0.6919">
        <ele>1408</ele>
        <time>2013-04-14T06:28:14Z</time>
      </trkpt>
      <trkpt lat="42.94097" lon="-0.69191">
        <ele>1410</ele>
        <time>2013-04-14T06:28:26Z</time>
      </trkpt>
      <trkpt lat="42.94086" lon="-0.69209">
        <ele>1412</ele>
        <time>2013-04-14T06:28:37Z</time>
      </trkpt>
      <trkpt lat="42.94082" lon="-0.69211">
        <ele>1413</ele>
        <time>2013-04-14T06:28:48Z</time>
      </trkpt>
      <trkpt lat="42.94078" lon="-0.6922">
        <ele>1416</ele>
        <time>2013-04-14T06:28:59Z</time>
      </trkpt>
      <trkpt lat="42.94073" lon="-0.69222">
        <ele>1416</ele>
        <time>2013-04-14T06:29:12Z</time>
      </trkpt>
      <trkpt lat="42.94069" lon="-0.69228">
        <ele>1416</ele>
        <time>2013-04-14T06:29:29Z</time>
      </trkpt>
      <trkpt lat="42.94068" lon="-0.69228">
        <ele>1416</ele>
        <time>2013-04-14T06:29:46Z</time>
      </trkpt>
      <trkpt lat="42.94067" lon="-0.69229">
        <ele>1415</ele>
        <time>2013-04-14T06:30:02Z</time>
      </trkpt>
      <trkpt lat="42.94068" lon="-0.69232">
        <ele>1416</ele>
        <time>2013-04-14T06:30:14Z</time>
      </trkpt>
      <trkpt lat="42.94067" lon="-0.69227">
        <ele>1416</ele>
        <time>2013-04-14T06:30:41Z</time>
      </trkpt>
      <trkpt lat="42.94067" lon="-0.6923">
        <ele>1417</ele>
        <time>2013-04-14T06:31:03Z</time>
      </trkpt>
      <trkpt lat="42.9406" lon="-0.69243">
        <ele>1419</ele>
        <time>2013-04-14T06:31:18Z</time>
      </trkpt>
      <trkpt lat="42.9405" lon="-0.69246">
        <ele>1421</ele>
        <time>2013-04-14T06:31:32Z</time>
      </trkpt>
      <trkpt lat="42.94048" lon="-0.69248">
        <ele>1423</ele>
        <time>2013-04-14T06:31:40Z</time>
      </trkpt>
      <trkpt lat="42.94043" lon="-0.69258">
        <ele>1424</ele>
        <time>2013-04-14T06:31:55Z</time>
      </trkpt>
      <trkpt lat="42.94041" lon="-0.69262">
        <ele>1427</ele>
        <time>2013-04-14T06:32:05Z</time>
      </trkpt>
      <trkpt lat="42.94032" lon="-0.69262">
        <ele>1429</ele>
        <time>2013-04-14T06:32:20Z</time>
      </trkpt>
      <trkpt lat="42.94026" lon="-0.69257">
        <ele>1432</ele>
        <time>2013-04-14T06:32:37Z</time>
      </trkpt>
      <trkpt lat="42.94027" lon="-0.69259">
        <ele>1432</ele>
        <time>2013-04-14T06:32:54Z</time>
      </trkpt>
      <trkpt lat="42.94024" lon="-0.69271">
        <ele>1434</ele>
        <time>2013-04-14T06:33:07Z</time>
      </trkpt>
      <trkpt lat="42.94021" lon="-0.69279">
        <ele>1436</ele>
        <time>2013-04-14T06:33:20Z</time>
      </trkpt>
      <trkpt lat="42.94021" lon="-0.69292">
        <ele>1439</ele>
        <time>2013-04-14T06:33:36Z</time>
      </trkpt>
      <trkpt lat="42.94019" lon="-0.69303">
        <ele>1440</ele>
        <time>2013-04-14T06:33:51Z</time>
      </trkpt>
      <trkpt lat="42.94016" lon="-0.69309">
        <ele>1442</ele>
        <time>2013-04-14T06:34:06Z</time>
      </trkpt>
      <trkpt lat="42.94016" lon="-0.69318">
        <ele>1443</ele>
        <time>2013-04-14T06:34:18Z</time>
      </trkpt>
      <trkpt lat="42.94018" lon="-0.6933">
        <ele>1445</ele>
        <time>2013-04-14T06:34:29Z</time>
      </trkpt>
      <trkpt lat="42.94014" lon="-0.6933">
        <ele>1446</ele>
        <time>2013-04-14T06:34:40Z</time>
      </trkpt>
      <trkpt lat="42.94011" lon="-0.69328">
        <ele>1447</ele>
        <time>2013-04-14T06:34:48Z</time>
      </trkpt>
      <trkpt lat="42.94002" lon="-0.69319">
        <ele>1449</ele>
        <time>2013-04-14T06:35:02Z</time>
      </trkpt>
      <trkpt lat="42.93998" lon="-0.69314">
        <ele>1451</ele>
        <time>2013-04-14T06:35:13Z</time>
      </trkpt>
      <trkpt lat="42.93998" lon="-0.69319">
        <ele>1452</ele>
        <time>2013-04-14T06:35:25Z</time>
      </trkpt>
      <trkpt lat="42.93997" lon="-0.69329">
        <ele>1453</ele>
        <time>2013-04-14T06:35:37Z</time>
      </trkpt>
      <trkpt lat="42.93997" lon="-0.69339">
        <ele>1455</ele>
        <time>2013-04-14T06:35:50Z</time>
      </trkpt>
      <trkpt lat="42.94" lon="-0.69355">
        <ele>1457</ele>
        <time>2013-04-14T06:36:06Z</time>
      </trkpt>
      <trkpt lat="42.94003" lon="-0.69369">
        <ele>1459</ele>
        <time>2013-04-14T06:36:21Z</time>
      </trkpt>
      <trkpt lat="42.94001" lon="-0.69377">
        <ele>1461</ele>
        <time>2013-04-14T06:36:36Z</time>
      </trkpt>
      <trkpt lat="42.94003" lon="-0.69389">
        <ele>1462</ele>
        <time>2013-04-14T06:36:49Z</time>
      </trkpt>
      <trkpt lat="42.94007" lon="-0.69402">
        <ele>1464</ele>
        <time>2013-04-14T06:37:04Z</time>
      </trkpt>
      <trkpt lat="42.94004" lon="-0.69412">
        <ele>1466</ele>
        <time>2013-04-14T06:37:20Z</time>
      </trkpt>
      <trkpt lat="42.94" lon="-0.69423">
        <ele>1469</ele>
        <time>2013-04-14T06:37:34Z</time>
      </trkpt>
      <trkpt lat="42.93996" lon="-0.69435">
        <ele>1471</ele>
        <time>2013-04-14T06:37:52Z</time>
      </trkpt>
      <trkpt lat="42.93989" lon="-0.69445">
        <ele>1472</ele>
        <time>2013-04-14T06:38:06Z</time>
      </trkpt>
      <trkpt lat="42.93981" lon="-0.69456">
        <ele>1473</ele>
        <time>2013-04-14T06:38:24Z</time>
      </trkpt>
      <trkpt lat="42.93978" lon="-0.69453">
        <ele>1473</ele>
        <time>2013-04-14T06:38:45Z</time>
      </trkpt>
      <trkpt lat="42.93978" lon="-0.69462">
        <ele>1474</ele>
        <time>2013-04-14T06:38:57Z</time>
      </trkpt>
      <trkpt lat="42.93977" lon="-0.69465">
        <ele>1475</ele>
        <time>2013-04-14T06:39:00Z</time>
      </trkpt>
      <trkpt lat="42.93971" lon="-0.69484">
        <ele>1476</ele>
        <time>2013-04-14T06:39:17Z</time>
      </trkpt>
      <trkpt lat="42.93969" lon="-0.69498">
        <ele>1477</ele>
        <time>2013-04-14T06:39:30Z</time>
      </trkpt>
      <trkpt lat="42.93966" lon="-0.69502">
        <ele>1477</ele>
        <time>2013-04-14T06:39:46Z</time>
      </trkpt>
      <trkpt lat="42.93967" lon="-0.69518">
        <ele>1480</ele>
        <time>2013-04-14T06:40:02Z</time>
      </trkpt>
      <trkpt lat="42.93966" lon="-0.69531">
        <ele>1482</ele>
        <time>2013-04-14T06:40:16Z</time>
      </trkpt>
      <trkpt lat="42.93954" lon="-0.69545">
        <ele>1483</ele>
        <time>2013-04-14T06:40:35Z</time>
      </trkpt>
      <trkpt lat="42.93951" lon="-0.69555">
        <ele>1485</ele>
        <time>2013-04-14T06:40:50Z</time>
      </trkpt>
      <trkpt lat="42.93947" lon="-0.6957">
        <ele>1487</ele>
        <time>2013-04-14T06:41:06Z</time>
      </trkpt>
      <trkpt lat="42.93941" lon="-0.69585">
        <ele>1488</ele>
        <time>2013-04-14T06:41:22Z</time>
      </trkpt>
      <trkpt lat="42.93943" lon="-0.69591">
        <ele>1489</ele>
        <time>2013-04-14T06:41:28Z</time>
      </trkpt>
      <trkpt lat="42.93938" lon="-0.69604">
        <ele>1491</ele>
        <time>2013-04-14T06:41:41Z</time>
      </trkpt>
      <trkpt lat="42.93937" lon="-0.69606">
        <ele>1490</ele>
        <time>2013-04-14T06:41:42Z</time>
      </trkpt>
      <trkpt lat="42.93936" lon="-0.69607">
        <ele>1491</ele>
        <time>2013-04-14T06:41:55Z</time>
      </trkpt>
      <trkpt lat="42.93935" lon="-0.69608">
        <ele>1492</ele>
        <time>2013-04-14T06:42:12Z</time>
      </trkpt>
      <trkpt lat="42.9393" lon="-0.69625">
        <ele>1492</ele>
        <time>2013-04-14T06:42:24Z</time>
      </trkpt>
      <trkpt lat="42.93929" lon="-0.69627">
        <ele>1493</ele>
        <time>2013-04-14T06:42:26Z</time>
      </trkpt>
      <trkpt lat="42.9392" lon="-0.6964">
        <ele>1494</ele>
        <time>2013-04-14T06:42:40Z</time>
      </trkpt>
      <trkpt lat="42.93921" lon="-0.69642">
        <ele>1494</ele>
        <time>2013-04-14T06:42:44Z</time>
      </trkpt>
      <trkpt lat="42.93916" lon="-0.69644">
        <ele>1494</ele>
        <time>2013-04-14T06:42:59Z</time>
      </trkpt>
      <trkpt lat="42.93914" lon="-0.6965">
        <ele>1494</ele>
        <time>2013-04-14T06:43:09Z</time>
      </trkpt>
      <trkpt lat="42.93908" lon="-0.6966">
        <ele>1495</ele>
        <time>2013-04-14T06:43:21Z</time>
      </trkpt>
      <trkpt lat="42.93908" lon="-0.69663">
        <ele>1495</ele>
        <time>2013-04-14T06:43:23Z</time>
      </trkpt>
      <trkpt lat="42.93904" lon="-0.69679">
        <ele>1496</ele>
        <time>2013-04-14T06:43:37Z</time>
      </trkpt>
      <trkpt lat="42.93905" lon="-0.69695">
        <ele>1498</ele>
        <time>2013-04-14T06:43:52Z</time>
      </trkpt>
      <trkpt lat="42.93901" lon="-0.6971">
        <ele>1499</ele>
        <time>2013-04-14T06:44:07Z</time>
      </trkpt>
      <trkpt lat="42.93901" lon="-0.6972">
        <ele>1500</ele>
        <time>2013-04-14T06:44:19Z</time>
      </trkpt>
      <trkpt lat="42.93902" lon="-0.69732">
        <ele>1503</ele>
        <time>2013-04-14T06:44:32Z</time>
      </trkpt>
      <trkpt lat="42.93899" lon="-0.69742">
        <ele>1504</ele>
        <time>2013-04-14T06:44:46Z</time>
      </trkpt>
      <trkpt lat="42.93889" lon="-0.69752">
        <ele>1507</ele>
        <time>2013-04-14T06:45:00Z</time>
      </trkpt>
      <trkpt lat="42.93887" lon="-0.69761">
        <ele>1507</ele>
        <time>2013-04-14T06:45:16Z</time>
      </trkpt>
      <trkpt lat="42.93883" lon="-0.69765">
        <ele>1507</ele>
        <time>2013-04-14T06:45:35Z</time>
      </trkpt>
      <trkpt lat="42.93872" lon="-0.69778">
        <ele>1509</ele>
        <time>2013-04-14T06:45:49Z</time>
      </trkpt>
      <trkpt lat="42.93869" lon="-0.69783">
        <ele>1510</ele>
        <time>2013-04-14T06:45:55Z</time>
      </trkpt>
      <trkpt lat="42.93863" lon="-0.69797">
        <ele>1511</ele>
        <time>2013-04-14T06:46:09Z</time>
      </trkpt>
      <trkpt lat="42.93861" lon="-0.69801">
        <ele>1511</ele>
        <time>2013-04-14T06:46:15Z</time>
      </trkpt>
      <trkpt lat="42.93858" lon="-0.69814">
        <ele>1513</ele>
        <time>2013-04-14T06:46:28Z</time>
      </trkpt>
      <trkpt lat="42.93859" lon="-0.69822">
        <ele>1514</ele>
        <time>2013-04-14T06:46:40Z</time>
      </trkpt>
      <trkpt lat="42.93862" lon="-0.69833">
        <ele>1516</ele>
        <time>2013-04-14T06:46:52Z</time>
      </trkpt>
      <trkpt lat="42.93865" lon="-0.69844">
        <ele>1518</ele>
        <time>2013-04-14T06:47:04Z</time>
      </trkpt>
      <trkpt lat="42.93869" lon="-0.69856">
        <ele>1519</ele>
        <time>2013-04-14T06:47:16Z</time>
      </trkpt>
      <trkpt lat="42.93869" lon="-0.69864">
        <ele>1520</ele>
        <time>2013-04-14T06:47:24Z</time>
      </trkpt>
      <trkpt lat="42.93874" lon="-0.69878">
        <ele>1522</ele>
        <time>2013-04-14T06:47:39Z</time>
      </trkpt>
      <trkpt lat="42.93875" lon="-0.69879">
        <ele>1522</ele>
        <time>2013-04-14T06:48:02Z</time>
      </trkpt>
      <trkpt lat="42.93873" lon="-0.69877">
        <ele>1523</ele>
        <time>2013-04-14T06:48:29Z</time>
      </trkpt>
      <trkpt lat="42.93873" lon="-0.69879">
        <ele>1523</ele>
        <time>2013-04-14T06:48:49Z</time>
      </trkpt>
      <trkpt lat="42.93873" lon="-0.69889">
        <ele>1526</ele>
        <time>2013-04-14T06:49:02Z</time>
      </trkpt>
      <trkpt lat="42.93872" lon="-0.69896">
        <ele>1530</ele>
        <time>2013-04-14T06:49:10Z</time>
      </trkpt>
      <trkpt lat="42.93866" lon="-0.6991">
        <ele>1528</ele>
        <time>2013-04-14T06:49:26Z</time>
      </trkpt>
      <trkpt lat="42.93862" lon="-0.69916">
        <ele>1528</ele>
        <time>2013-04-14T06:49:36Z</time>
      </trkpt>
      <trkpt lat="42.93859" lon="-0.69928">
        <ele>1530</ele>
        <time>2013-04-14T06:49:50Z</time>
      </trkpt>
      <trkpt lat="42.93859" lon="-0.6993">
        <ele>1529</ele>
        <time>2013-04-14T06:49:53Z</time>
      </trkpt>
      <trkpt lat="42.93858" lon="-0.69944">
        <ele>1531</ele>
        <time>2013-04-14T06:50:06Z</time>
      </trkpt>
      <trkpt lat="42.93857" lon="-0.69957">
        <ele>1532</ele>
        <time>2013-04-14T06:50:18Z</time>
      </trkpt>
      <trkpt lat="42.93856" lon="-0.69967">
        <ele>1534</ele>
        <time>2013-04-14T06:50:26Z</time>
      </trkpt>
      <trkpt lat="42.93857" lon="-0.69969">
        <ele>1534</ele>
        <time>2013-04-14T06:50:27Z</time>
      </trkpt>
      <trkpt lat="42.93855" lon="-0.69975">
        <ele>1535</ele>
        <time>2013-04-14T06:50:32Z</time>
      </trkpt>
      <trkpt lat="42.93848" lon="-0.69987">
        <ele>1538</ele>
        <time>2013-04-14T06:50:46Z</time>
      </trkpt>
      <trkpt lat="42.93839" lon="-0.70001">
        <ele>1538</ele>
        <time>2013-04-14T06:51:00Z</time>
      </trkpt>
      <trkpt lat="42.93832" lon="-0.70012">
        <ele>1539</ele>
        <time>2013-04-14T06:51:14Z</time>
      </trkpt>
      <trkpt lat="42.93825" lon="-0.70021">
        <ele>1540</ele>
        <time>2013-04-14T06:51:27Z</time>
      </trkpt>
      <trkpt lat="42.93819" lon="-0.70026">
        <ele>1542</ele>
        <time>2013-04-14T06:51:35Z</time>
      </trkpt>
      <trkpt lat="42.9381" lon="-0.70035">
        <ele>1542</ele>
        <time>2013-04-14T06:51:51Z</time>
      </trkpt>
      <trkpt lat="42.93808" lon="-0.70041">
        <ele>1543</ele>
        <time>2013-04-14T06:52:03Z</time>
      </trkpt>
      <trkpt lat="42.93807" lon="-0.70043">
        <ele>1544</ele>
        <time>2013-04-14T06:52:05Z</time>
      </trkpt>
      <trkpt lat="42.93804" lon="-0.70055">
        <ele>1545</ele>
        <time>2013-04-14T06:52:19Z</time>
      </trkpt>
      <trkpt lat="42.93805" lon="-0.70065">
        <ele>1548</ele>
        <time>2013-04-14T06:52:32Z</time>
      </trkpt>
      <trkpt lat="42.93805" lon="-0.70079">
        <ele>1550</ele>
        <time>2013-04-14T06:52:46Z</time>
      </trkpt>
      <trkpt lat="42.93805" lon="-0.70089">
        <ele>1552</ele>
        <time>2013-04-14T06:52:58Z</time>
      </trkpt>
      <trkpt lat="42.93804" lon="-0.70104">
        <ele>1555</ele>
        <time>2013-04-14T06:53:15Z</time>
      </trkpt>
      <trkpt lat="42.93803" lon="-0.70112">
        <ele>1557</ele>
        <time>2013-04-14T06:53:27Z</time>
      </trkpt>
      <trkpt lat="42.93801" lon="-0.70125">
        <ele>1559</ele>
        <time>2013-04-14T06:53:41Z</time>
      </trkpt>
      <trkpt lat="42.93801" lon="-0.7014">
        <ele>1561</ele>
        <time>2013-04-14T06:53:57Z</time>
      </trkpt>
      <trkpt lat="42.93802" lon="-0.70147">
        <ele>1563</ele>
        <time>2013-04-14T06:54:08Z</time>
      </trkpt>
      <trkpt lat="42.93799" lon="-0.70152">
        <ele>1564</ele>
        <time>2013-04-14T06:54:20Z</time>
      </trkpt>
      <trkpt lat="42.9379" lon="-0.70153">
        <ele>1566</ele>
        <time>2013-04-14T06:54:35Z</time>
      </trkpt>
      <trkpt lat="42.93785" lon="-0.70151">
        <ele>1567</ele>
        <time>2013-04-14T06:54:57Z</time>
      </trkpt>
      <trkpt lat="42.93777" lon="-0.70144">
        <ele>1569</ele>
        <time>2013-04-14T06:55:12Z</time>
      </trkpt>
      <trkpt lat="42.93772" lon="-0.70142">
        <ele>1570</ele>
        <time>2013-04-14T06:55:25Z</time>
      </trkpt>
      <trkpt lat="42.9377" lon="-0.70156">
        <ele>1572</ele>
        <time>2013-04-14T06:55:40Z</time>
      </trkpt>
      <trkpt lat="42.9377" lon="-0.70167">
        <ele>1574</ele>
        <time>2013-04-14T06:55:55Z</time>
      </trkpt>
      <trkpt lat="42.93768" lon="-0.70178">
        <ele>1577</ele>
        <time>2013-04-14T06:56:10Z</time>
      </trkpt>
      <trkpt lat="42.93768" lon="-0.70186">
        <ele>1580</ele>
        <time>2013-04-14T06:56:25Z</time>
      </trkpt>
      <trkpt lat="42.93766" lon="-0.70201">
        <ele>1581</ele>
        <time>2013-04-14T06:56:39Z</time>
      </trkpt>
      <trkpt lat="42.93765" lon="-0.70207">
        <ele>1582</ele>
        <time>2013-04-14T06:56:45Z</time>
      </trkpt>
      <trkpt lat="42.93759" lon="-0.7022">
        <ele>1585</ele>
        <time>2013-04-14T06:57:00Z</time>
      </trkpt>
      <trkpt lat="42.93757" lon="-0.70232">
        <ele>1587</ele>
        <time>2013-04-14T06:57:13Z</time>
      </trkpt>
      <trkpt lat="42.93753" lon="-0.70242">
        <ele>1588</ele>
        <time>2013-04-14T06:57:25Z</time>
      </trkpt>
      <trkpt lat="42.93747" lon="-0.70252">
        <ele>1590</ele>
        <time>2013-04-14T06:57:39Z</time>
      </trkpt>
      <trkpt lat="42.93745" lon="-0.70261">
        <ele>1592</ele>
        <time>2013-04-14T06:57:54Z</time>
      </trkpt>
      <trkpt lat="42.93745" lon="-0.70276">
        <ele>1594</ele>
        <time>2013-04-14T06:58:11Z</time>
      </trkpt>
      <trkpt lat="42.93746" lon="-0.70291">
        <ele>1596</ele>
        <time>2013-04-14T06:58:28Z</time>
      </trkpt>
      <trkpt lat="42.93748" lon="-0.70304">
        <ele>1599</ele>
        <time>2013-04-14T06:58:41Z</time>
      </trkpt>
      <trkpt lat="42.93751" lon="-0.70316">
        <ele>1601</ele>
        <time>2013-04-14T06:58:58Z</time>
      </trkpt>
      <trkpt lat="42.93755" lon="-0.70328">
        <ele>1603</ele>
        <time>2013-04-14T06:59:15Z</time>
      </trkpt>
      <trkpt lat="42.93754" lon="-0.7034">
        <ele>1606</ele>
        <time>2013-04-14T06:59:30Z</time>
      </trkpt>
      <trkpt lat="42.93756" lon="-0.70353">
        <ele>1606</ele>
        <time>2013-04-14T06:59:43Z</time>
      </trkpt>
      <trkpt lat="42.93756" lon="-0.70367">
        <ele>1608</ele>
        <time>2013-04-14T07:00:01Z</time>
      </trkpt>
      <trkpt lat="42.93755" lon="-0.70383">
        <ele>1611</ele>
        <time>2013-04-14T07:00:15Z</time>
      </trkpt>
      <trkpt lat="42.93755" lon="-0.70387">
        <ele>1614</ele>
        <time>2013-04-14T07:00:19Z</time>
      </trkpt>
      <trkpt lat="42.93756" lon="-0.70393">
        <ele>1617</ele>
        <time>2013-04-14T07:00:28Z</time>
      </trkpt>
      <trkpt lat="42.93752" lon="-0.70401">
        <ele>1618</ele>
        <time>2013-04-14T07:00:38Z</time>
      </trkpt>
      <trkpt lat="42.93746" lon="-0.70407">
        <ele>1616</ele>
        <time>2013-04-14T07:00:47Z</time>
      </trkpt>
      <trkpt lat="42.93738" lon="-0.70413">
        <ele>1617</ele>
        <time>2013-04-14T07:01:01Z</time>
      </trkpt>
      <trkpt lat="42.93734" lon="-0.70417">
        <ele>1621</ele>
        <time>2013-04-14T07:01:09Z</time>
      </trkpt>
      <trkpt lat="42.93728" lon="-0.70424">
        <ele>1623</ele>
        <time>2013-04-14T07:01:20Z</time>
      </trkpt>
      <trkpt lat="42.93725" lon="-0.70427">
        <ele>1626</ele>
        <time>2013-04-14T07:01:28Z</time>
      </trkpt>
      <trkpt lat="42.93716" lon="-0.70436">
        <ele>1624</ele>
        <time>2013-04-14T07:01:41Z</time>
      </trkpt>
      <trkpt lat="42.93715" lon="-0.70437">
        <ele>1625</ele>
        <time>2013-04-14T07:01:42Z</time>
      </trkpt>
      <trkpt lat="42.93712" lon="-0.7044">
        <ele>1628</ele>
        <time>2013-04-14T07:01:47Z</time>
      </trkpt>
      <trkpt lat="42.93705" lon="-0.70444">
        <ele>1625</ele>
        <time>2013-04-14T07:02:00Z</time>
      </trkpt>
      <trkpt lat="42.93701" lon="-0.70445">
        <ele>1628</ele>
        <time>2013-04-14T07:02:11Z</time>
      </trkpt>
      <trkpt lat="42.93697" lon="-0.70447">
        <ele>1629</ele>
        <time>2013-04-14T07:02:22Z</time>
      </trkpt>
      <trkpt lat="42.93698" lon="-0.7046">
        <ele>1630</ele>
        <time>2013-04-14T07:02:34Z</time>
      </trkpt>
      <trkpt lat="42.93699" lon="-0.70473">
        <ele>1632</ele>
        <time>2013-04-14T07:02:48Z</time>
      </trkpt>
      <trkpt lat="42.93699" lon="-0.70478">
        <ele>1632</ele>
        <time>2013-04-14T07:02:53Z</time>
      </trkpt>
      <trkpt lat="42.937" lon="-0.70486">
        <ele>1633</ele>
        <time>2013-04-14T07:03:06Z</time>
      </trkpt>
      <trkpt lat="42.93693" lon="-0.70489">
        <ele>1637</ele>
        <time>2013-04-14T07:03:15Z</time>
      </trkpt>
      <trkpt lat="42.93688" lon="-0.70489">
        <ele>1636</ele>
        <time>2013-04-14T07:03:23Z</time>
      </trkpt>
      <trkpt lat="42.93681" lon="-0.70494">
        <ele>1637</ele>
        <time>2013-04-14T07:03:40Z</time>
      </trkpt>
      <trkpt lat="42.93674" lon="-0.70493">
        <ele>1639</ele>
        <time>2013-04-14T07:03:54Z</time>
      </trkpt>
      <trkpt lat="42.93669" lon="-0.70499">
        <ele>1641</ele>
        <time>2013-04-14T07:04:08Z</time>
      </trkpt>
      <trkpt lat="42.93667" lon="-0.70507">
        <ele>1643</ele>
        <time>2013-04-14T07:04:22Z</time>
      </trkpt>
      <trkpt lat="42.93666" lon="-0.70514">
        <ele>1646</ele>
        <time>2013-04-14T07:04:34Z</time>
      </trkpt>
      <trkpt lat="42.93665" lon="-0.70522">
        <ele>1647</ele>
        <time>2013-04-14T07:04:46Z</time>
      </trkpt>
      <trkpt lat="42.93663" lon="-0.70534">
        <ele>1648</ele>
        <time>2013-04-14T07:05:01Z</time>
      </trkpt>
      <trkpt lat="42.9366" lon="-0.70547">
        <ele>1650</ele>
        <time>2013-04-14T07:05:18Z</time>
      </trkpt>
      <trkpt lat="42.93659" lon="-0.70558">
        <ele>1652</ele>
        <time>2013-04-14T07:05:29Z</time>
      </trkpt>
      <trkpt lat="42.93656" lon="-0.70569">
        <ele>1654</ele>
        <time>2013-04-14T07:05:44Z</time>
      </trkpt>
      <trkpt lat="42.93653" lon="-0.70579">
        <ele>1655</ele>
        <time>2013-04-14T07:06:00Z</time>
      </trkpt>
      <trkpt lat="42.93652" lon="-0.70587">
        <ele>1657</ele>
        <time>2013-04-14T07:06:13Z</time>
      </trkpt>
      <trkpt lat="42.9365" lon="-0.70589">
        <ele>1659</ele>
        <time>2013-04-14T07:06:24Z</time>
      </trkpt>
      <trkpt lat="42.93649" lon="-0.70602">
        <ele>1660</ele>
        <time>2013-04-14T07:06:37Z</time>
      </trkpt>
      <trkpt lat="42.93648" lon="-0.70604">
        <ele>1661</ele>
        <time>2013-04-14T07:06:39Z</time>
      </trkpt>
      <trkpt lat="42.93647" lon="-0.70612">
        <ele>1662</ele>
        <time>2013-04-14T07:06:47Z</time>
      </trkpt>
      <trkpt lat="42.93643" lon="-0.70627">
        <ele>1662</ele>
        <time>2013-04-14T07:07:03Z</time>
      </trkpt>
      <trkpt lat="42.93637" lon="-0.70642">
        <ele>1665</ele>
        <time>2013-04-14T07:07:18Z</time>
      </trkpt>
      <trkpt lat="42.93634" lon="-0.70655">
        <ele>1667</ele>
        <time>2013-04-14T07:07:33Z</time>
      </trkpt>
      <trkpt lat="42.93634" lon="-0.70657">
        <ele>1667</ele>
        <time>2013-04-14T07:07:35Z</time>
      </trkpt>
      <trkpt lat="42.93632" lon="-0.70672">
        <ele>1668</ele>
        <time>2013-04-14T07:07:49Z</time>
      </trkpt>
      <trkpt lat="42.93628" lon="-0.70688">
        <ele>1670</ele>
        <time>2013-04-14T07:08:05Z</time>
      </trkpt>
      <trkpt lat="42.93624" lon="-0.70699">
        <ele>1675</ele>
        <time>2013-04-14T07:08:19Z</time>
      </trkpt>
      <trkpt lat="42.93623" lon="-0.70701">
        <ele>1675</ele>
        <time>2013-04-14T07:08:21Z</time>
      </trkpt>
      <trkpt lat="42.93621" lon="-0.70706">
        <ele>1672</ele>
        <time>2013-04-14T07:08:26Z</time>
      </trkpt>
      <trkpt lat="42.93619" lon="-0.70714">
        <ele>1675</ele>
        <time>2013-04-14T07:08:35Z</time>
      </trkpt>
      <trkpt lat="42.93617" lon="-0.70723">
        <ele>1675</ele>
        <time>2013-04-14T07:08:50Z</time>
      </trkpt>
      <trkpt lat="42.93616" lon="-0.7074">
        <ele>1679</ele>
        <time>2013-04-14T07:09:07Z</time>
      </trkpt>
      <trkpt lat="42.93616" lon="-0.70744">
        <ele>1677</ele>
        <time>2013-04-14T07:09:11Z</time>
      </trkpt>
      <trkpt lat="42.93615" lon="-0.70755">
        <ele>1679</ele>
        <time>2013-04-14T07:09:24Z</time>
      </trkpt>
      <trkpt lat="42.93616" lon="-0.70764">
        <ele>1680</ele>
        <time>2013-04-14T07:09:37Z</time>
      </trkpt>
      <trkpt lat="42.93616" lon="-0.70776">
        <ele>1682</ele>
        <time>2013-04-14T07:09:49Z</time>
      </trkpt>
      <trkpt lat="42.93618" lon="-0.70792">
        <ele>1684</ele>
        <time>2013-04-14T07:10:08Z</time>
      </trkpt>
      <trkpt lat="42.93619" lon="-0.70805">
        <ele>1686</ele>
        <time>2013-04-14T07:10:27Z</time>
      </trkpt>
      <trkpt lat="42.93617" lon="-0.70814">
        <ele>1688</ele>
        <time>2013-04-14T07:10:40Z</time>
      </trkpt>
      <trkpt lat="42.93614" lon="-0.70824">
        <ele>1688</ele>
        <time>2013-04-14T07:10:53Z</time>
      </trkpt>
      <trkpt lat="42.93613" lon="-0.70834">
        <ele>1690</ele>
        <time>2013-04-14T07:11:08Z</time>
      </trkpt>
      <trkpt lat="42.93611" lon="-0.70849">
        <ele>1692</ele>
        <time>2013-04-14T07:11:26Z</time>
      </trkpt>
      <trkpt lat="42.9361" lon="-0.70861">
        <ele>1695</ele>
        <time>2013-04-14T07:11:44Z</time>
      </trkpt>
      <trkpt lat="42.93608" lon="-0.70875">
        <ele>1697</ele>
        <time>2013-04-14T07:12:00Z</time>
      </trkpt>
      <trkpt lat="42.93607" lon="-0.70888">
        <ele>1699</ele>
        <time>2013-04-14T07:12:16Z</time>
      </trkpt>
      <trkpt lat="42.93606" lon="-0.70897">
        <ele>1702</ele>
        <time>2013-04-14T07:12:27Z</time>
      </trkpt>
      <trkpt lat="42.93605" lon="-0.70902">
        <ele>1705</ele>
        <time>2013-04-14T07:12:39Z</time>
      </trkpt>
      <trkpt lat="42.93605" lon="-0.70902">
        <ele>1708</ele>
        <time>2013-04-14T07:12:43Z</time>
      </trkpt>
      <trkpt lat="42.93601" lon="-0.70914">
        <ele>1707</ele>
        <time>2013-04-14T07:12:56Z</time>
      </trkpt>
      <trkpt lat="42.936" lon="-0.70918">
        <ele>1707</ele>
        <time>2013-04-14T07:13:00Z</time>
      </trkpt>
      <trkpt lat="42.93599" lon="-0.70923">
        <ele>1708</ele>
        <time>2013-04-14T07:13:04Z</time>
      </trkpt>
      <trkpt lat="42.93596" lon="-0.70931">
        <ele>1709</ele>
        <time>2013-04-14T07:13:15Z</time>
      </trkpt>
      <trkpt lat="42.93593" lon="-0.70935">
        <ele>1711</ele>
        <time>2013-04-14T07:13:22Z</time>
      </trkpt>
      <trkpt lat="42.93592" lon="-0.70943">
        <ele>1710</ele>
        <time>2013-04-14T07:13:34Z</time>
      </trkpt>
      <trkpt lat="42.93592" lon="-0.70944">
        <ele>1711</ele>
        <time>2013-04-14T07:13:37Z</time>
      </trkpt>
      <trkpt lat="42.93591" lon="-0.70946">
        <ele>1710</ele>
        <time>2013-04-14T07:13:40Z</time>
      </trkpt>
      <trkpt lat="42.93589" lon="-0.70953">
        <ele>1711</ele>
        <time>2013-04-14T07:13:50Z</time>
      </trkpt>
      <trkpt lat="42.93585" lon="-0.70964">
        <ele>1712</ele>
        <time>2013-04-14T07:14:03Z</time>
      </trkpt>
      <trkpt lat="42.93581" lon="-0.70974">
        <ele>1713</ele>
        <time>2013-04-14T07:14:14Z</time>
      </trkpt>
      <trkpt lat="42.93577" lon="-0.70985">
        <ele>1715</ele>
        <time>2013-04-14T07:14:27Z</time>
      </trkpt>
      <trkpt lat="42.93573" lon="-0.70995">
        <ele>1717</ele>
        <time>2013-04-14T07:14:42Z</time>
      </trkpt>
      <trkpt lat="42.93571" lon="-0.71005">
        <ele>1718</ele>
        <time>2013-04-14T07:14:57Z</time>
      </trkpt>
      <trkpt lat="42.93568" lon="-0.71016">
        <ele>1721</ele>
        <time>2013-04-14T07:15:09Z</time>
      </trkpt>
      <trkpt lat="42.93566" lon="-0.71027">
        <ele>1722</ele>
        <time>2013-04-14T07:15:25Z</time>
      </trkpt>
      <trkpt lat="42.93563" lon="-0.71039">
        <ele>1725</ele>
        <time>2013-04-14T07:15:38Z</time>
      </trkpt>
      <trkpt lat="42.9356" lon="-0.71048">
        <ele>1726</ele>
        <time>2013-04-14T07:15:52Z</time>
      </trkpt>
      <trkpt lat="42.93557" lon="-0.7106">
        <ele>1728</ele>
        <time>2013-04-14T07:16:07Z</time>
      </trkpt>
      <trkpt lat="42.93554" lon="-0.71068">
        <ele>1730</ele>
        <time>2013-04-14T07:16:19Z</time>
      </trkpt>
      <trkpt lat="42.9355" lon="-0.71079">
        <ele>1732</ele>
        <time>2013-04-14T07:16:37Z</time>
      </trkpt>
      <trkpt lat="42.93546" lon="-0.71088">
        <ele>1734</ele>
        <time>2013-04-14T07:16:49Z</time>
      </trkpt>
      <trkpt lat="42.93541" lon="-0.71096">
        <ele>1736</ele>
        <time>2013-04-14T07:17:03Z</time>
      </trkpt>
      <trkpt lat="42.93536" lon="-0.71107">
        <ele>1738</ele>
        <time>2013-04-14T07:17:17Z</time>
      </trkpt>
      <trkpt lat="42.93531" lon="-0.71117">
        <ele>1739</ele>
        <time>2013-04-14T07:17:31Z</time>
      </trkpt>
      <trkpt lat="42.93529" lon="-0.71122">
        <ele>1742</ele>
        <time>2013-04-14T07:17:37Z</time>
      </trkpt>
      <trkpt lat="42.93528" lon="-0.71125">
        <ele>1743</ele>
        <time>2013-04-14T07:17:41Z</time>
      </trkpt>
      <trkpt lat="42.93528" lon="-0.71127">
        <ele>1743</ele>
        <time>2013-04-14T07:17:43Z</time>
      </trkpt>
      <trkpt lat="42.93523" lon="-0.71133">
        <ele>1745</ele>
        <time>2013-04-14T07:17:55Z</time>
      </trkpt>
      <trkpt lat="42.9352" lon="-0.71141">
        <ele>1746</ele>
        <time>2013-04-14T07:18:07Z</time>
      </trkpt>
      <trkpt lat="42.93518" lon="-0.71151">
        <ele>1748</ele>
        <time>2013-04-14T07:18:20Z</time>
      </trkpt>
      <trkpt lat="42.93514" lon="-0.71159">
        <ele>1749</ele>
        <time>2013-04-14T07:18:35Z</time>
      </trkpt>
      <trkpt lat="42.93512" lon="-0.71172">
        <ele>1749</ele>
        <time>2013-04-14T07:18:51Z</time>
      </trkpt>
      <trkpt lat="42.93505" lon="-0.71169">
        <ele>1751</ele>
        <time>2013-04-14T07:19:02Z</time>
      </trkpt>
      <trkpt lat="42.93497" lon="-0.71166">
        <ele>1752</ele>
        <time>2013-04-14T07:19:18Z</time>
      </trkpt>
      <trkpt lat="42.9349" lon="-0.71165">
        <ele>1755</ele>
        <time>2013-04-14T07:19:31Z</time>
      </trkpt>
      <trkpt lat="42.93489" lon="-0.71166">
        <ele>1757</ele>
        <time>2013-04-14T07:19:34Z</time>
      </trkpt>
      <trkpt lat="42.93487" lon="-0.71178">
        <ele>1758</ele>
        <time>2013-04-14T07:19:50Z</time>
      </trkpt>
      <trkpt lat="42.93483" lon="-0.7119">
        <ele>1760</ele>
        <time>2013-04-14T07:20:04Z</time>
      </trkpt>
      <trkpt lat="42.93483" lon="-0.712">
        <ele>1762</ele>
        <time>2013-04-14T07:20:20Z</time>
      </trkpt>
      <trkpt lat="42.93479" lon="-0.71206">
        <ele>1763</ele>
        <time>2013-04-14T07:20:32Z</time>
      </trkpt>
      <trkpt lat="42.9347" lon="-0.71207">
        <ele>1766</ele>
        <time>2013-04-14T07:20:45Z</time>
      </trkpt>
      <trkpt lat="42.93468" lon="-0.71217">
        <ele>1768</ele>
        <time>2013-04-14T07:20:59Z</time>
      </trkpt>
      <trkpt lat="42.93468" lon="-0.71226">
        <ele>1769</ele>
        <time>2013-04-14T07:21:12Z</time>
      </trkpt>
      <trkpt lat="42.93465" lon="-0.71239">
        <ele>1772</ele>
        <time>2013-04-14T07:21:26Z</time>
      </trkpt>
      <trkpt lat="42.93464" lon="-0.71248">
        <ele>1776</ele>
        <time>2013-04-14T07:21:37Z</time>
      </trkpt>
      <trkpt lat="42.93464" lon="-0.71249">
        <ele>1775</ele>
        <time>2013-04-14T07:21:38Z</time>
      </trkpt>
      <trkpt lat="42.9346" lon="-0.71265">
        <ele>1779</ele>
        <time>2013-04-14T07:21:58Z</time>
      </trkpt>
      <trkpt lat="42.9346" lon="-0.71266">
        <ele>1779</ele>
        <time>2013-04-14T07:21:59Z</time>
      </trkpt>
      <trkpt lat="42.93459" lon="-0.71269">
        <ele>1780</ele>
        <time>2013-04-14T07:22:05Z</time>
      </trkpt>
      <trkpt lat="42.93456" lon="-0.71283">
        <ele>1779</ele>
        <time>2013-04-14T07:22:22Z</time>
      </trkpt>
      <trkpt lat="42.93456" lon="-0.71294">
        <ele>1780</ele>
        <time>2013-04-14T07:22:33Z</time>
      </trkpt>
      <trkpt lat="42.93458" lon="-0.71305">
        <ele>1782</ele>
        <time>2013-04-14T07:22:46Z</time>
      </trkpt>
      <trkpt lat="42.93458" lon="-0.71318">
        <ele>1785</ele>
        <time>2013-04-14T07:23:01Z</time>
      </trkpt>
      <trkpt lat="42.93459" lon="-0.7132">
        <ele>1786</ele>
        <time>2013-04-14T07:23:03Z</time>
      </trkpt>
      <trkpt lat="42.93456" lon="-0.71331">
        <ele>1787</ele>
        <time>2013-04-14T07:23:24Z</time>
      </trkpt>
      <trkpt lat="42.93455" lon="-0.71332">
        <ele>1788</ele>
        <time>2013-04-14T07:23:26Z</time>
      </trkpt>
      <trkpt lat="42.9345" lon="-0.7133">
        <ele>1789</ele>
        <time>2013-04-14T07:23:38Z</time>
      </trkpt>
      <trkpt lat="42.93442" lon="-0.71329">
        <ele>1791</ele>
        <time>2013-04-14T07:23:51Z</time>
      </trkpt>
      <trkpt lat="42.93433" lon="-0.71324">
        <ele>1793</ele>
        <time>2013-04-14T07:24:06Z</time>
      </trkpt>
      <trkpt lat="42.93431" lon="-0.7133">
        <ele>1794</ele>
        <time>2013-04-14T07:24:16Z</time>
      </trkpt>
      <trkpt lat="42.93432" lon="-0.71346">
        <ele>1796</ele>
        <time>2013-04-14T07:24:31Z</time>
      </trkpt>
      <trkpt lat="42.93431" lon="-0.71354">
        <ele>1799</ele>
        <time>2013-04-14T07:24:45Z</time>
      </trkpt>
      <trkpt lat="42.93432" lon="-0.71361">
        <ele>1799</ele>
        <time>2013-04-14T07:24:51Z</time>
      </trkpt>
      <trkpt lat="42.93432" lon="-0.71373">
        <ele>1803</ele>
        <time>2013-04-14T07:25:05Z</time>
      </trkpt>
      <trkpt lat="42.93434" lon="-0.71383">
        <ele>1806</ele>
        <time>2013-04-14T07:25:18Z</time>
      </trkpt>
      <trkpt lat="42.93436" lon="-0.71388">
        <ele>1805</ele>
        <time>2013-04-14T07:25:23Z</time>
      </trkpt>
      <trkpt lat="42.93431" lon="-0.71396">
        <ele>1805</ele>
        <time>2013-04-14T07:25:34Z</time>
      </trkpt>
      <trkpt lat="42.93429" lon="-0.71397">
        <ele>1807</ele>
        <time>2013-04-14T07:25:37Z</time>
      </trkpt>
      <trkpt lat="42.93419" lon="-0.71401">
        <ele>1809</ele>
        <time>2013-04-14T07:25:57Z</time>
      </trkpt>
      <trkpt lat="42.93419" lon="-0.7141">
        <ele>1810</ele>
        <time>2013-04-14T07:26:09Z</time>
      </trkpt>
      <trkpt lat="42.93426" lon="-0.71419">
        <ele>1812</ele>
        <time>2013-04-14T07:26:22Z</time>
      </trkpt>
      <trkpt lat="42.9343" lon="-0.71425">
        <ele>1814</ele>
        <time>2013-04-14T07:26:32Z</time>
      </trkpt>
      <trkpt lat="42.93433" lon="-0.71436">
        <ele>1817</ele>
        <time>2013-04-14T07:26:47Z</time>
      </trkpt>
      <trkpt lat="42.93432" lon="-0.71447">
        <ele>1818</ele>
        <time>2013-04-14T07:27:01Z</time>
      </trkpt>
      <trkpt lat="42.93427" lon="-0.71458">
        <ele>1820</ele>
        <time>2013-04-14T07:27:15Z</time>
      </trkpt>
      <trkpt lat="42.93424" lon="-0.71467">
        <ele>1823</ele>
        <time>2013-04-14T07:27:32Z</time>
      </trkpt>
      <trkpt lat="42.93423" lon="-0.7148">
        <ele>1825</ele>
        <time>2013-04-14T07:27:47Z</time>
      </trkpt>
      <trkpt lat="42.93422" lon="-0.71483">
        <ele>1826</ele>
        <time>2013-04-14T07:27:53Z</time>
      </trkpt>
      <trkpt lat="42.93415" lon="-0.71487">
        <ele>1827</ele>
        <time>2013-04-14T07:28:05Z</time>
      </trkpt>
      <trkpt lat="42.93413" lon="-0.71489">
        <ele>1828</ele>
        <time>2013-04-14T07:28:13Z</time>
      </trkpt>
      <trkpt lat="42.93407" lon="-0.71484">
        <ele>1828</ele>
        <time>2013-04-14T07:28:24Z</time>
      </trkpt>
      <trkpt lat="42.93409" lon="-0.71485">
        <ele>1828</ele>
        <time>2013-04-14T07:28:46Z</time>
      </trkpt>
      <trkpt lat="42.93407" lon="-0.71489">
        <ele>1829</ele>
        <time>2013-04-14T07:28:59Z</time>
      </trkpt>
      <trkpt lat="42.93408" lon="-0.71491">
        <ele>1828</ele>
        <time>2013-04-14T07:29:21Z</time>
      </trkpt>
      <trkpt lat="42.934" lon="-0.71491">
        <ele>1830</ele>
        <time>2013-04-14T07:29:32Z</time>
      </trkpt>
      <trkpt lat="42.93395" lon="-0.71492">
        <ele>1832</ele>
        <time>2013-04-14T07:29:45Z</time>
      </trkpt>
      <trkpt lat="42.93394" lon="-0.71494">
        <ele>1833</ele>
        <time>2013-04-14T07:29:48Z</time>
      </trkpt>
      <trkpt lat="42.93387" lon="-0.71498">
        <ele>1835</ele>
        <time>2013-04-14T07:30:00Z</time>
      </trkpt>
      <trkpt lat="42.93382" lon="-0.71496">
        <ele>1836</ele>
        <time>2013-04-14T07:30:07Z</time>
      </trkpt>
      <trkpt lat="42.93382" lon="-0.71495">
        <ele>1836</ele>
        <time>2013-04-14T07:30:25Z</time>
      </trkpt>
      <trkpt lat="42.93376" lon="-0.71491">
        <ele>1837</ele>
        <time>2013-04-14T07:30:34Z</time>
      </trkpt>
      <trkpt lat="42.93375" lon="-0.71492">
        <ele>1838</ele>
        <time>2013-04-14T07:30:36Z</time>
      </trkpt>
      <trkpt lat="42.93371" lon="-0.71505">
        <ele>1842</ele>
        <time>2013-04-14T07:30:49Z</time>
      </trkpt>
      <trkpt lat="42.93371" lon="-0.71508">
        <ele>1840</ele>
        <time>2013-04-14T07:30:52Z</time>
      </trkpt>
      <trkpt lat="42.9337" lon="-0.7151">
        <ele>1839</ele>
        <time>2013-04-14T07:31:07Z</time>
      </trkpt>
      <trkpt lat="42.93369" lon="-0.71519">
        <ele>1839</ele>
        <time>2013-04-14T07:31:21Z</time>
      </trkpt>
      <trkpt lat="42.93364" lon="-0.7153">
        <ele>1839</ele>
        <time>2013-04-14T07:31:35Z</time>
      </trkpt>
      <trkpt lat="42.93359" lon="-0.71538">
        <ele>1841</ele>
        <time>2013-04-14T07:31:48Z</time>
      </trkpt>
      <trkpt lat="42.93356" lon="-0.71548">
        <ele>1842</ele>
        <time>2013-04-14T07:32:00Z</time>
      </trkpt>
      <trkpt lat="42.93351" lon="-0.7156">
        <ele>1843</ele>
        <time>2013-04-14T07:32:13Z</time>
      </trkpt>
      <trkpt lat="42.93343" lon="-0.71574">
        <ele>1846</ele>
        <time>2013-04-14T07:32:28Z</time>
      </trkpt>
      <trkpt lat="42.93339" lon="-0.71577">
        <ele>1846</ele>
        <time>2013-04-14T07:32:34Z</time>
      </trkpt>
      <trkpt lat="42.93332" lon="-0.71586">
        <ele>1847</ele>
        <time>2013-04-14T07:32:49Z</time>
      </trkpt>
      <trkpt lat="42.93329" lon="-0.71603">
        <ele>1849</ele>
        <time>2013-04-14T07:33:04Z</time>
      </trkpt>
      <trkpt lat="42.93323" lon="-0.71614">
        <ele>1851</ele>
        <time>2013-04-14T07:33:19Z</time>
      </trkpt>
      <trkpt lat="42.93318" lon="-0.71624">
        <ele>1852</ele>
        <time>2013-04-14T07:33:29Z</time>
      </trkpt>
      <trkpt lat="42.93312" lon="-0.71635">
        <ele>1853</ele>
        <time>2013-04-14T07:33:44Z</time>
      </trkpt>
      <trkpt lat="42.93307" lon="-0.71645">
        <ele>1853</ele>
        <time>2013-04-14T07:33:56Z</time>
      </trkpt>
      <trkpt lat="42.933" lon="-0.71652">
        <ele>1852</ele>
        <time>2013-04-14T07:34:13Z</time>
      </trkpt>
      <trkpt lat="42.93294" lon="-0.71665">
        <ele>1853</ele>
        <time>2013-04-14T07:34:27Z</time>
      </trkpt>
      <trkpt lat="42.93289" lon="-0.71679">
        <ele>1854</ele>
        <time>2013-04-14T07:34:42Z</time>
      </trkpt>
      <trkpt lat="42.93283" lon="-0.71688">
        <ele>1855</ele>
        <time>2013-04-14T07:34:54Z</time>
      </trkpt>
      <trkpt lat="42.93277" lon="-0.71701">
        <ele>1854</ele>
        <time>2013-04-14T07:35:08Z</time>
      </trkpt>
      <trkpt lat="42.93272" lon="-0.71708">
        <ele>1856</ele>
        <time>2013-04-14T07:35:21Z</time>
      </trkpt>
      <trkpt lat="42.93266" lon="-0.7172">
        <ele>1856</ele>
        <time>2013-04-14T07:35:33Z</time>
      </trkpt>
      <trkpt lat="42.9326" lon="-0.71731">
        <ele>1856</ele>
        <time>2013-04-14T07:35:50Z</time>
      </trkpt>
      <trkpt lat="42.93257" lon="-0.71739">
        <ele>1857</ele>
        <time>2013-04-14T07:36:01Z</time>
      </trkpt>
      <trkpt lat="42.93251" lon="-0.71753">
        <ele>1858</ele>
        <time>2013-04-14T07:36:16Z</time>
      </trkpt>
      <trkpt lat="42.93246" lon="-0.71765">
        <ele>1859</ele>
        <time>2013-04-14T07:36:30Z</time>
      </trkpt>
      <trkpt lat="42.93241" lon="-0.71778">
        <ele>1861</ele>
        <time>2013-04-14T07:36:47Z</time>
      </trkpt>
      <trkpt lat="42.93236" lon="-0.71795">
        <ele>1863</ele>
        <time>2013-04-14T07:37:03Z</time>
      </trkpt>
      <trkpt lat="42.93235" lon="-0.71809">
        <ele>1864</ele>
        <time>2013-04-14T07:37:13Z</time>
      </trkpt>
      <trkpt lat="42.93236" lon="-0.71819">
        <ele>1865</ele>
        <time>2013-04-14T07:37:25Z</time>
      </trkpt>
      <trkpt lat="42.93233" lon="-0.71833">
        <ele>1866</ele>
        <time>2013-04-14T07:37:40Z</time>
      </trkpt>
      <trkpt lat="42.93229" lon="-0.7185">
        <ele>1867</ele>
        <time>2013-04-14T07:37:55Z</time>
      </trkpt>
      <trkpt lat="42.93224" lon="-0.71863">
        <ele>1868</ele>
        <time>2013-04-14T07:38:12Z</time>
      </trkpt>
      <trkpt lat="42.93222" lon="-0.71879">
        <ele>1870</ele>
        <time>2013-04-14T07:38:29Z</time>
      </trkpt>
      <trkpt lat="42.93217" lon="-0.71886">
        <ele>1871</ele>
        <time>2013-04-14T07:38:41Z</time>
      </trkpt>
      <trkpt lat="42.93217" lon="-0.71897">
        <ele>1872</ele>
        <time>2013-04-14T07:38:56Z</time>
      </trkpt>
      <trkpt lat="42.93212" lon="-0.7191">
        <ele>1873</ele>
        <time>2013-04-14T07:39:09Z</time>
      </trkpt>
      <trkpt lat="42.93209" lon="-0.71924">
        <ele>1874</ele>
        <time>2013-04-14T07:39:23Z</time>
      </trkpt>
      <trkpt lat="42.93204" lon="-0.71938">
        <ele>1876</ele>
        <time>2013-04-14T07:39:37Z</time>
      </trkpt>
      <trkpt lat="42.93201" lon="-0.71938">
        <ele>1876</ele>
        <time>2013-04-14T07:39:51Z</time>
      </trkpt>
      <trkpt lat="42.93198" lon="-0.71943">
        <ele>1876</ele>
        <time>2013-04-14T07:40:01Z</time>
      </trkpt>
      <trkpt lat="42.93192" lon="-0.71955">
        <ele>1879</ele>
        <time>2013-04-14T07:40:15Z</time>
      </trkpt>
      <trkpt lat="42.93184" lon="-0.71972">
        <ele>1880</ele>
        <time>2013-04-14T07:40:31Z</time>
      </trkpt>
      <trkpt lat="42.93177" lon="-0.71986">
        <ele>1882</ele>
        <time>2013-04-14T07:40:47Z</time>
      </trkpt>
      <trkpt lat="42.9317" lon="-0.71999">
        <ele>1883</ele>
        <time>2013-04-14T07:41:01Z</time>
      </trkpt>
      <trkpt lat="42.93168" lon="-0.71998">
        <ele>1882</ele>
        <time>2013-04-14T07:41:15Z</time>
      </trkpt>
      <trkpt lat="42.93162" lon="-0.72008">
        <ele>1883</ele>
        <time>2013-04-14T07:41:27Z</time>
      </trkpt>
      <trkpt lat="42.93161" lon="-0.72011">
        <ele>1884</ele>
        <time>2013-04-14T07:41:40Z</time>
      </trkpt>
      <trkpt lat="42.93157" lon="-0.72011">
        <ele>1884</ele>
        <time>2013-04-14T07:41:47Z</time>
      </trkpt>
      <trkpt lat="42.93149" lon="-0.72029">
        <ele>1885</ele>
        <time>2013-04-14T07:42:03Z</time>
      </trkpt>
      <trkpt lat="42.93142" lon="-0.72044">
        <ele>1885</ele>
        <time>2013-04-14T07:42:17Z</time>
      </trkpt>
      <trkpt lat="42.9314" lon="-0.72053">
        <ele>1885</ele>
        <time>2013-04-14T07:42:24Z</time>
      </trkpt>
      <trkpt lat="42.93133" lon="-0.72071">
        <ele>1885</ele>
        <time>2013-04-14T07:42:39Z</time>
      </trkpt>
      <trkpt lat="42.93121" lon="-0.7209">
        <ele>1884</ele>
        <time>2013-04-14T07:42:55Z</time>
      </trkpt>
      <trkpt lat="42.93118" lon="-0.72106">
        <ele>1885</ele>
        <time>2013-04-14T07:43:11Z</time>
      </trkpt>
      <trkpt lat="42.93114" lon="-0.7212">
        <ele>1889</ele>
        <time>2013-04-14T07:43:28Z</time>
      </trkpt>
      <trkpt lat="42.9311" lon="-0.72135">
        <ele>1890</ele>
        <time>2013-04-14T07:43:45Z</time>
      </trkpt>
      <trkpt lat="42.93106" lon="-0.72151">
        <ele>1892</ele>
        <time>2013-04-14T07:44:02Z</time>
      </trkpt>
      <trkpt lat="42.931" lon="-0.72164">
        <ele>1893</ele>
        <time>2013-04-14T07:44:18Z</time>
      </trkpt>
      <trkpt lat="42.93096" lon="-0.72177">
        <ele>1894</ele>
        <time>2013-04-14T07:44:34Z</time>
      </trkpt>
      <trkpt lat="42.9309" lon="-0.72189">
        <ele>1896</ele>
        <time>2013-04-14T07:44:50Z</time>
      </trkpt>
      <trkpt lat="42.93082" lon="-0.72202">
        <ele>1897</ele>
        <time>2013-04-14T07:45:04Z</time>
      </trkpt>
      <trkpt lat="42.93077" lon="-0.72213">
        <ele>1898</ele>
        <time>2013-04-14T07:45:19Z</time>
      </trkpt>
      <trkpt lat="42.93073" lon="-0.72221">
        <ele>1900</ele>
        <time>2013-04-14T07:45:32Z</time>
      </trkpt>
      <trkpt lat="42.93068" lon="-0.72232">
        <ele>1902</ele>
        <time>2013-04-14T07:45:47Z</time>
      </trkpt>
      <trkpt lat="42.93067" lon="-0.72234">
        <ele>1903</ele>
        <time>2013-04-14T07:45:49Z</time>
      </trkpt>
      <trkpt lat="42.93061" lon="-0.72246">
        <ele>1904</ele>
        <time>2013-04-14T07:46:05Z</time>
      </trkpt>
      <trkpt lat="42.93055" lon="-0.72255">
        <ele>1907</ele>
        <time>2013-04-14T07:46:19Z</time>
      </trkpt>
      <trkpt lat="42.93048" lon="-0.72265">
        <ele>1910</ele>
        <time>2013-04-14T07:46:33Z</time>
      </trkpt>
      <trkpt lat="42.93042" lon="-0.72273">
        <ele>1911</ele>
        <time>2013-04-14T07:46:47Z</time>
      </trkpt>
      <trkpt lat="42.93036" lon="-0.72281">
        <ele>1912</ele>
        <time>2013-04-14T07:46:57Z</time>
      </trkpt>
      <trkpt lat="42.93031" lon="-0.72289">
        <ele>1915</ele>
        <time>2013-04-14T07:47:10Z</time>
      </trkpt>
      <trkpt lat="42.93029" lon="-0.72291">
        <ele>1916</ele>
        <time>2013-04-14T07:47:14Z</time>
      </trkpt>
      <trkpt lat="42.93027" lon="-0.72294">
        <ele>1917</ele>
        <time>2013-04-14T07:47:18Z</time>
      </trkpt>
      <trkpt lat="42.93022" lon="-0.72301">
        <ele>1918</ele>
        <time>2013-04-14T07:47:29Z</time>
      </trkpt>
      <trkpt lat="42.93019" lon="-0.72308">
        <ele>1918</ele>
        <time>2013-04-14T07:47:40Z</time>
      </trkpt>
      <trkpt lat="42.93017" lon="-0.72311">
        <ele>1920</ele>
        <time>2013-04-14T07:47:47Z</time>
      </trkpt>
      <trkpt lat="42.9301" lon="-0.72319">
        <ele>1921</ele>
        <time>2013-04-14T07:47:59Z</time>
      </trkpt>
      <trkpt lat="42.93009" lon="-0.7232">
        <ele>1922</ele>
        <time>2013-04-14T07:48:03Z</time>
      </trkpt>
      <trkpt lat="42.93001" lon="-0.72324">
        <ele>1921</ele>
        <time>2013-04-14T07:48:14Z</time>
      </trkpt>
      <trkpt lat="42.92993" lon="-0.72337">
        <ele>1923</ele>
        <time>2013-04-14T07:48:28Z</time>
      </trkpt>
      <trkpt lat="42.92988" lon="-0.7234">
        <ele>1927</ele>
        <time>2013-04-14T07:48:40Z</time>
      </trkpt>
      <trkpt lat="42.92989" lon="-0.72339">
        <ele>1928</ele>
        <time>2013-04-14T07:48:46Z</time>
      </trkpt>
      <trkpt lat="42.92988" lon="-0.72336">
        <ele>1927</ele>
        <time>2013-04-14T07:49:03Z</time>
      </trkpt>
      <trkpt lat="42.92989" lon="-0.72336">
        <ele>1929</ele>
        <time>2013-04-14T07:49:22Z</time>
      </trkpt>
      <trkpt lat="42.92987" lon="-0.72332">
        <ele>1930</ele>
        <time>2013-04-14T07:49:35Z</time>
      </trkpt>
      <trkpt lat="42.92985" lon="-0.72327">
        <ele>1933</ele>
        <time>2013-04-14T07:49:41Z</time>
      </trkpt>
      <trkpt lat="42.92983" lon="-0.72323">
        <ele>1930</ele>
        <time>2013-04-14T07:49:53Z</time>
      </trkpt>
      <trkpt lat="42.92983" lon="-0.72323">
        <ele>1930</ele>
        <time>2013-04-14T07:50:06Z</time>
      </trkpt>
      <trkpt lat="42.92984" lon="-0.72322">
        <ele>1930</ele>
        <time>2013-04-14T07:50:19Z</time>
      </trkpt>
      <trkpt lat="42.92983" lon="-0.72322">
        <ele>1930</ele>
        <time>2013-04-14T07:50:29Z</time>
      </trkpt>
      <trkpt lat="42.92982" lon="-0.72323">
        <ele>1929</ele>
        <time>2013-04-14T07:50:41Z</time>
      </trkpt>
      <trkpt lat="42.92983" lon="-0.72323">
        <ele>1929</ele>
        <time>2013-04-14T07:51:15Z</time>
      </trkpt>
      <trkpt lat="42.92983" lon="-0.72325">
        <ele>1929</ele>
        <time>2013-04-14T07:51:48Z</time>
      </trkpt>
      <trkpt lat="42.92983" lon="-0.72323">
        <ele>1928</ele>
        <time>2013-04-14T07:52:25Z</time>
      </trkpt>
      <trkpt lat="42.92985" lon="-0.72325">
        <ele>1927</ele>
        <time>2013-04-14T07:52:43Z</time>
      </trkpt>
      <trkpt lat="42.92984" lon="-0.72327">
        <ele>1929</ele>
        <time>2013-04-14T07:53:01Z</time>
      </trkpt>
      <trkpt lat="42.92985" lon="-0.72327">
        <ele>1928</ele>
        <time>2013-04-14T07:53:17Z</time>
      </trkpt>
      <trkpt lat="42.92981" lon="-0.7233">
        <ele>1928</ele>
        <time>2013-04-14T07:53:40Z</time>
      </trkpt>
      <trkpt lat="42.92974" lon="-0.72328">
        <ele>1929</ele>
        <time>2013-04-14T07:54:08Z</time>
      </trkpt>
      <trkpt lat="42.92975" lon="-0.72326">
        <ele>1929</ele>
        <time>2013-04-14T07:54:34Z</time>
      </trkpt>
      <trkpt lat="42.92984" lon="-0.72327">
        <ele>1930</ele>
        <time>2013-04-14T07:54:58Z</time>
      </trkpt>
      <trkpt lat="42.92979" lon="-0.72331">
        <ele>1931</ele>
        <time>2013-04-14T07:55:17Z</time>
      </trkpt>
      <trkpt lat="42.92984" lon="-0.72331">
        <ele>1930</ele>
        <time>2013-04-14T07:55:52Z</time>
      </trkpt>
      <trkpt lat="42.92983" lon="-0.72331">
        <ele>1930</ele>
        <time>2013-04-14T07:56:02Z</time>
      </trkpt>
      <trkpt lat="42.9298" lon="-0.72333">
        <ele>1929</ele>
        <time>2013-04-14T07:56:41Z</time>
      </trkpt>
      <trkpt lat="42.92986" lon="-0.72329">
        <ele>1929</ele>
        <time>2013-04-14T07:57:11Z</time>
      </trkpt>
      <trkpt lat="42.92986" lon="-0.72323">
        <ele>1930</ele>
        <time>2013-04-14T07:57:33Z</time>
      </trkpt>
      <trkpt lat="42.92982" lon="-0.72323">
        <ele>1929</ele>
        <time>2013-04-14T07:57:45Z</time>
      </trkpt>
      <trkpt lat="42.92981" lon="-0.72324">
        <ele>1928</ele>
        <time>2013-04-14T07:58:16Z</time>
      </trkpt>
      <trkpt lat="42.92983" lon="-0.72324">
        <ele>1929</ele>
        <time>2013-04-14T07:58:47Z</time>
      </trkpt>
      <trkpt lat="42.92984" lon="-0.72324">
        <ele>1929</ele>
        <time>2013-04-14T07:59:11Z</time>
      </trkpt>
      <trkpt lat="42.92984" lon="-0.72323">
        <ele>1930</ele>
        <time>2013-04-14T07:59:16Z</time>
      </trkpt>
      <trkpt lat="42.92984" lon="-0.72325">
        <ele>1934</ele>
        <time>2013-04-14T07:59:24Z</time>
      </trkpt>
      <trkpt lat="42.92985" lon="-0.72324">
        <ele>1934</ele>
        <time>2013-04-14T07:59:42Z</time>
      </trkpt>
      <trkpt lat="42.92991" lon="-0.72322">
        <ele>1933</ele>
        <time>2013-04-14T07:59:58Z</time>
      </trkpt>
      <trkpt lat="42.92989" lon="-0.72325">
        <ele>1930</ele>
        <time>2013-04-14T08:00:22Z</time>
      </trkpt>
      <trkpt lat="42.92985" lon="-0.72324">
        <ele>1931</ele>
        <time>2013-04-14T08:00:44Z</time>
      </trkpt>
      <trkpt lat="42.92984" lon="-0.72326">
        <ele>1931</ele>
        <time>2013-04-14T08:00:59Z</time>
      </trkpt>
      <trkpt lat="42.92981" lon="-0.72328">
        <ele>1931</ele>
        <time>2013-04-14T08:01:28Z</time>
      </trkpt>
      <trkpt lat="42.92992" lon="-0.72325">
        <ele>1932</ele>
        <time>2013-04-14T08:01:56Z</time>
      </trkpt>
      <trkpt lat="42.92985" lon="-0.72329">
        <ele>1930</ele>
        <time>2013-04-14T08:02:16Z</time>
      </trkpt>
      <trkpt lat="42.92983" lon="-0.72325">
        <ele>1931</ele>
        <time>2013-04-14T08:02:35Z</time>
      </trkpt>
      <trkpt lat="42.92982" lon="-0.72326">
        <ele>1930</ele>
        <time>2013-04-14T08:02:51Z</time>
      </trkpt>
      <trkpt lat="42.92982" lon="-0.72326">
        <ele>1931</ele>
        <time>2013-04-14T08:03:01Z</time>
      </trkpt>
      <trkpt lat="42.92985" lon="-0.72323">
        <ele>1931</ele>
        <time>2013-04-14T08:03:22Z</time>
      </trkpt>
      <trkpt lat="42.92984" lon="-0.72323">
        <ele>1933</ele>
        <time>2013-04-14T08:03:32Z</time>
      </trkpt>
      <trkpt lat="42.92983" lon="-0.72324">
        <ele>1930</ele>
        <time>2013-04-14T08:03:53Z</time>
      </trkpt>
      <trkpt lat="42.9298" lon="-0.72325">
        <ele>1931</ele>
        <time>2013-04-14T08:04:19Z</time>
      </trkpt>
      <trkpt lat="42.9298" lon="-0.72325">
        <ele>1930</ele>
        <time>2013-04-14T08:04:46Z</time>
      </trkpt>
      <trkpt lat="42.92982" lon="-0.72324">
        <ele>1930</ele>
        <time>2013-04-14T08:05:21Z</time>
      </trkpt>
      <trkpt lat="42.92982" lon="-0.72323">
        <ele>1930</ele>
        <time>2013-04-14T08:05:50Z</time>
      </trkpt>
      <trkpt lat="42.92977" lon="-0.72325">
        <ele>1929</ele>
        <time>2013-04-14T08:06:13Z</time>
      </trkpt>
      <trkpt lat="42.92974" lon="-0.72327">
        <ele>1929</ele>
        <time>2013-04-14T08:06:44Z</time>
      </trkpt>
      <trkpt lat="42.9298" lon="-0.72324">
        <ele>1930</ele>
        <time>2013-04-14T08:06:55Z</time>
      </trkpt>
      <trkpt lat="42.92987" lon="-0.72322">
        <ele>1929</ele>
        <time>2013-04-14T08:07:20Z</time>
      </trkpt>
      <trkpt lat="42.92986" lon="-0.72324">
        <ele>1929</ele>
        <time>2013-04-14T08:07:55Z</time>
      </trkpt>
      <trkpt lat="42.92987" lon="-0.72322">
        <ele>1930</ele>
        <time>2013-04-14T08:08:22Z</time>
      </trkpt>
      <trkpt lat="42.92984" lon="-0.72324">
        <ele>1930</ele>
        <time>2013-04-14T08:08:36Z</time>
      </trkpt>
      <trkpt lat="42.92984" lon="-0.72324">
        <ele>1929</ele>
        <time>2013-04-14T08:08:43Z</time>
      </trkpt>
      <trkpt lat="42.92984" lon="-0.72326">
        <ele>1929</ele>
        <time>2013-04-14T08:08:59Z</time>
      </trkpt>
      <trkpt lat="42.92985" lon="-0.72325">
        <ele>1929</ele>
        <time>2013-04-14T08:09:30Z</time>
      </trkpt>
      <trkpt lat="42.92989" lon="-0.72326">
        <ele>1929</ele>
        <time>2013-04-14T08:09:55Z</time>
      </trkpt>
      <trkpt lat="42.92994" lon="-0.72326">
        <ele>1929</ele>
        <time>2013-04-14T08:10:07Z</time>
      </trkpt>
      <trkpt lat="42.92968" lon="-0.72332">
        <ele>1931</ele>
        <time>2013-04-14T08:10:30Z</time>
      </trkpt>
      <trkpt lat="42.92977" lon="-0.72324">
        <ele>1932</ele>
        <time>2013-04-14T08:10:44Z</time>
      </trkpt>
      <trkpt lat="42.92976" lon="-0.72323">
        <ele>1932</ele>
        <time>2013-04-14T08:11:01Z</time>
      </trkpt>
      <trkpt lat="42.92982" lon="-0.7232">
        <ele>1935</ele>
        <time>2013-04-14T08:11:20Z</time>
      </trkpt>
      <trkpt lat="42.92983" lon="-0.7232">
        <ele>1934</ele>
        <time>2013-04-14T08:11:36Z</time>
      </trkpt>
      <trkpt lat="42.92984" lon="-0.72328">
        <ele>1933</ele>
        <time>2013-04-14T08:11:47Z</time>
      </trkpt>
      <trkpt lat="42.92987" lon="-0.72335">
        <ele>1931</ele>
        <time>2013-04-14T08:11:58Z</time>
      </trkpt>
      <trkpt lat="42.92996" lon="-0.72337">
        <ele>1929</ele>
        <time>2013-04-14T08:12:11Z</time>
      </trkpt>
      <trkpt lat="42.92991" lon="-0.72341">
        <ele>1931</ele>
        <time>2013-04-14T08:12:24Z</time>
      </trkpt>
      <trkpt lat="42.92994" lon="-0.72344">
        <ele>1931</ele>
        <time>2013-04-14T08:12:41Z</time>
      </trkpt>
      <trkpt lat="42.92996" lon="-0.72342">
        <ele>1932</ele>
        <time>2013-04-14T08:13:00Z</time>
      </trkpt>
      <trkpt lat="42.92997" lon="-0.72342">
        <ele>1933</ele>
        <time>2013-04-14T08:13:16Z</time>
      </trkpt>
      <trkpt lat="42.92991" lon="-0.72341">
        <ele>1933</ele>
        <time>2013-04-14T08:13:40Z</time>
      </trkpt>
      <trkpt lat="42.92979" lon="-0.72343">
        <ele>1934</ele>
        <time>2013-04-14T08:14:13Z</time>
      </trkpt>
      <trkpt lat="42.92984" lon="-0.72341">
        <ele>1934</ele>
        <time>2013-04-14T08:14:21Z</time>
      </trkpt>
      <trkpt lat="42.92987" lon="-0.72341">
        <ele>1934</ele>
        <time>2013-04-14T08:14:30Z</time>
      </trkpt>
      <trkpt lat="42.9299" lon="-0.72343">
        <ele>1933</ele>
        <time>2013-04-14T08:14:51Z</time>
      </trkpt>
      <trkpt lat="42.9299" lon="-0.7235">
        <ele>1935</ele>
        <time>2013-04-14T08:15:09Z</time>
      </trkpt>
      <trkpt lat="42.9299" lon="-0.72354">
        <ele>1935</ele>
        <time>2013-04-14T08:15:13Z</time>
      </trkpt>
      <trkpt lat="42.92989" lon="-0.72362">
        <ele>1936</ele>
        <time>2013-04-14T08:15:20Z</time>
      </trkpt>
      <trkpt lat="42.92989" lon="-0.72376">
        <ele>1938</ele>
        <time>2013-04-14T08:15:35Z</time>
      </trkpt>
      <trkpt lat="42.92993" lon="-0.72394">
        <ele>1937</ele>
        <time>2013-04-14T08:15:51Z</time>
      </trkpt>
      <trkpt lat="42.92992" lon="-0.72402">
        <ele>1940</ele>
        <time>2013-04-14T08:16:05Z</time>
      </trkpt>
      <trkpt lat="42.9299" lon="-0.72408">
        <ele>1941</ele>
        <time>2013-04-14T08:16:17Z</time>
      </trkpt>
      <trkpt lat="42.9299" lon="-0.7241">
        <ele>1944</ele>
        <time>2013-04-14T08:16:20Z</time>
      </trkpt>
      <trkpt lat="42.92985" lon="-0.72416">
        <ele>1943</ele>
        <time>2013-04-14T08:16:31Z</time>
      </trkpt>
      <trkpt lat="42.92981" lon="-0.72422">
        <ele>1943</ele>
        <time>2013-04-14T08:16:38Z</time>
      </trkpt>
      <trkpt lat="42.92973" lon="-0.72428">
        <ele>1946</ele>
        <time>2013-04-14T08:16:53Z</time>
      </trkpt>
      <trkpt lat="42.92964" lon="-0.72431">
        <ele>1947</ele>
        <time>2013-04-14T08:17:07Z</time>
      </trkpt>
      <trkpt lat="42.92953" lon="-0.72432">
        <ele>1950</ele>
        <time>2013-04-14T08:17:24Z</time>
      </trkpt>
      <trkpt lat="42.92945" lon="-0.72439">
        <ele>1952</ele>
        <time>2013-04-14T08:17:37Z</time>
      </trkpt>
      <trkpt lat="42.92943" lon="-0.72443">
        <ele>1954</ele>
        <time>2013-04-14T08:17:40Z</time>
      </trkpt>
      <trkpt lat="42.92935" lon="-0.72451">
        <ele>1954</ele>
        <time>2013-04-14T08:17:53Z</time>
      </trkpt>
      <trkpt lat="42.92934" lon="-0.72453">
        <ele>1955</ele>
        <time>2013-04-14T08:17:55Z</time>
      </trkpt>
      <trkpt lat="42.92929" lon="-0.72459">
        <ele>1956</ele>
        <time>2013-04-14T08:18:08Z</time>
      </trkpt>
      <trkpt lat="42.92924" lon="-0.72464">
        <ele>1957</ele>
        <time>2013-04-14T08:18:18Z</time>
      </trkpt>
      <trkpt lat="42.92916" lon="-0.72469">
        <ele>1958</ele>
        <time>2013-04-14T08:18:30Z</time>
      </trkpt>
      <trkpt lat="42.92914" lon="-0.7247">
        <ele>1961</ele>
        <time>2013-04-14T08:18:34Z</time>
      </trkpt>
      <trkpt lat="42.92908" lon="-0.72476">
        <ele>1960</ele>
        <time>2013-04-14T08:18:47Z</time>
      </trkpt>
      <trkpt lat="42.92904" lon="-0.72479">
        <ele>1962</ele>
        <time>2013-04-14T08:18:58Z</time>
      </trkpt>
      <trkpt lat="42.92896" lon="-0.72483">
        <ele>1964</ele>
        <time>2013-04-14T08:19:11Z</time>
      </trkpt>
      <trkpt lat="42.92894" lon="-0.72484">
        <ele>1965</ele>
        <time>2013-04-14T08:19:20Z</time>
      </trkpt>
      <trkpt lat="42.92887" lon="-0.72487">
        <ele>1965</ele>
        <time>2013-04-14T08:19:34Z</time>
      </trkpt>
      <trkpt lat="42.92883" lon="-0.72489">
        <ele>1966</ele>
        <time>2013-04-14T08:19:54Z</time>
      </trkpt>
      <trkpt lat="42.9288" lon="-0.7249">
        <ele>1967</ele>
        <time>2013-04-14T08:20:10Z</time>
      </trkpt>
      <trkpt lat="42.92872" lon="-0.72492">
        <ele>1969</ele>
        <time>2013-04-14T08:20:23Z</time>
      </trkpt>
      <trkpt lat="42.92864" lon="-0.72494">
        <ele>1970</ele>
        <time>2013-04-14T08:20:37Z</time>
      </trkpt>
      <trkpt lat="42.92856" lon="-0.725">
        <ele>1972</ele>
        <time>2013-04-14T08:20:54Z</time>
      </trkpt>
      <trkpt lat="42.9285" lon="-0.72503">
        <ele>1974</ele>
        <time>2013-04-14T08:21:06Z</time>
      </trkpt>
      <trkpt lat="42.92843" lon="-0.72507">
        <ele>1977</ele>
        <time>2013-04-14T08:21:22Z</time>
      </trkpt>
      <trkpt lat="42.92838" lon="-0.7251">
        <ele>1979</ele>
        <time>2013-04-14T08:21:36Z</time>
      </trkpt>
      <trkpt lat="42.92832" lon="-0.72513">
        <ele>1982</ele>
        <time>2013-04-14T08:21:50Z</time>
      </trkpt>
      <trkpt lat="42.92829" lon="-0.72513">
        <ele>1983</ele>
        <time>2013-04-14T08:22:03Z</time>
      </trkpt>
      <trkpt lat="42.92822" lon="-0.72514">
        <ele>1985</ele>
        <time>2013-04-14T08:22:11Z</time>
      </trkpt>
      <trkpt lat="42.92819" lon="-0.72515">
        <ele>1989</ele>
        <time>2013-04-14T08:22:14Z</time>
      </trkpt>
      <trkpt lat="42.92815" lon="-0.72516">
        <ele>1986</ele>
        <time>2013-04-14T08:22:18Z</time>
      </trkpt>
      <trkpt lat="42.92811" lon="-0.72518">
        <ele>1989</ele>
        <time>2013-04-14T08:22:33Z</time>
      </trkpt>
      <trkpt lat="42.92805" lon="-0.72525">
        <ele>1989</ele>
        <time>2013-04-14T08:22:44Z</time>
      </trkpt>
      <trkpt lat="42.9281" lon="-0.72534">
        <ele>1992</ele>
        <time>2013-04-14T08:22:57Z</time>
      </trkpt>
      <trkpt lat="42.92811" lon="-0.72539">
        <ele>1994</ele>
        <time>2013-04-14T08:23:05Z</time>
      </trkpt>
      <trkpt lat="42.92811" lon="-0.7255">
        <ele>1994</ele>
        <time>2013-04-14T08:23:15Z</time>
      </trkpt>
      <trkpt lat="42.92805" lon="-0.72557">
        <ele>1995</ele>
        <time>2013-04-14T08:23:30Z</time>
      </trkpt>
      <trkpt lat="42.92798" lon="-0.72557">
        <ele>1998</ele>
        <time>2013-04-14T08:23:44Z</time>
      </trkpt>
      <trkpt lat="42.92792" lon="-0.72553">
        <ele>1999</ele>
        <time>2013-04-14T08:23:58Z</time>
      </trkpt>
      <trkpt lat="42.92788" lon="-0.72557">
        <ele>2001</ele>
        <time>2013-04-14T08:24:08Z</time>
      </trkpt>
      <trkpt lat="42.92788" lon="-0.72573">
        <ele>2002</ele>
        <time>2013-04-14T08:24:22Z</time>
      </trkpt>
      <trkpt lat="42.92789" lon="-0.72586">
        <ele>2005</ele>
        <time>2013-04-14T08:24:37Z</time>
      </trkpt>
      <trkpt lat="42.92791" lon="-0.72597">
        <ele>2005</ele>
        <time>2013-04-14T08:24:50Z</time>
      </trkpt>
      <trkpt lat="42.92794" lon="-0.72605">
        <ele>2007</ele>
        <time>2013-04-14T08:25:04Z</time>
      </trkpt>
      <trkpt lat="42.928" lon="-0.72609">
        <ele>2008</ele>
        <time>2013-04-14T08:25:17Z</time>
      </trkpt>
      <trkpt lat="42.92806" lon="-0.72613">
        <ele>2010</ele>
        <time>2013-04-14T08:25:34Z</time>
      </trkpt>
      <trkpt lat="42.92811" lon="-0.72619">
        <ele>2012</ele>
        <time>2013-04-14T08:25:54Z</time>
      </trkpt>
      <trkpt lat="42.92818" lon="-0.72624">
        <ele>2014</ele>
        <time>2013-04-14T08:26:08Z</time>
      </trkpt>
      <trkpt lat="42.92826" lon="-0.72628">
        <ele>2015</ele>
        <time>2013-04-14T08:26:19Z</time>
      </trkpt>
      <trkpt lat="42.92827" lon="-0.72629">
        <ele>2015</ele>
        <time>2013-04-14T08:26:32Z</time>
      </trkpt>
      <trkpt lat="42.9283" lon="-0.72632">
        <ele>2016</ele>
        <time>2013-04-14T08:26:48Z</time>
      </trkpt>
      <trkpt lat="42.92836" lon="-0.72633">
        <ele>2019</ele>
        <time>2013-04-14T08:27:04Z</time>
      </trkpt>
      <trkpt lat="42.92836" lon="-0.72635">
        <ele>2019</ele>
        <time>2013-04-14T08:27:09Z</time>
      </trkpt>
      <trkpt lat="42.92832" lon="-0.72641">
        <ele>2022</ele>
        <time>2013-04-14T08:27:20Z</time>
      </trkpt>
      <trkpt lat="42.92824" lon="-0.7265">
        <ele>2023</ele>
        <time>2013-04-14T08:27:36Z</time>
      </trkpt>
      <trkpt lat="42.9282" lon="-0.72654">
        <ele>2022</ele>
        <time>2013-04-14T08:27:49Z</time>
      </trkpt>
      <trkpt lat="42.92816" lon="-0.72658">
        <ele>2025</ele>
        <time>2013-04-14T08:28:02Z</time>
      </trkpt>
      <trkpt lat="42.9281" lon="-0.72661">
        <ele>2029</ele>
        <time>2013-04-14T08:28:17Z</time>
      </trkpt>
      <trkpt lat="42.92803" lon="-0.72663">
        <ele>2029</ele>
        <time>2013-04-14T08:28:31Z</time>
      </trkpt>
      <trkpt lat="42.92797" lon="-0.72662">
        <ele>2030</ele>
        <time>2013-04-14T08:28:45Z</time>
      </trkpt>
      <trkpt lat="42.92792" lon="-0.72664">
        <ele>2031</ele>
        <time>2013-04-14T08:28:58Z</time>
      </trkpt>
      <trkpt lat="42.92789" lon="-0.72664">
        <ele>2032</ele>
        <time>2013-04-14T08:29:06Z</time>
      </trkpt>
      <trkpt lat="42.92792" lon="-0.72674">
        <ele>2034</ele>
        <time>2013-04-14T08:29:20Z</time>
      </trkpt>
      <trkpt lat="42.92797" lon="-0.72684">
        <ele>2037</ele>
        <time>2013-04-14T08:29:35Z</time>
      </trkpt>
      <trkpt lat="42.92798" lon="-0.72685">
        <ele>2039</ele>
        <time>2013-04-14T08:29:39Z</time>
      </trkpt>
      <trkpt lat="42.92803" lon="-0.72692">
        <ele>2040</ele>
        <time>2013-04-14T08:29:51Z</time>
      </trkpt>
      <trkpt lat="42.92809" lon="-0.72705">
        <ele>2042</ele>
        <time>2013-04-14T08:30:03Z</time>
      </trkpt>
      <trkpt lat="42.92813" lon="-0.72707">
        <ele>2044</ele>
        <time>2013-04-14T08:30:18Z</time>
      </trkpt>
      <trkpt lat="42.92809" lon="-0.72707">
        <ele>2045</ele>
        <time>2013-04-14T08:30:30Z</time>
      </trkpt>
      <trkpt lat="42.92803" lon="-0.72709">
        <ele>2047</ele>
        <time>2013-04-14T08:30:42Z</time>
      </trkpt>
      <trkpt lat="42.92798" lon="-0.72709">
        <ele>2048</ele>
        <time>2013-04-14T08:30:53Z</time>
      </trkpt>
      <trkpt lat="42.92794" lon="-0.72709">
        <ele>2052</ele>
        <time>2013-04-14T08:31:05Z</time>
      </trkpt>
      <trkpt lat="42.92791" lon="-0.72709">
        <ele>2052</ele>
        <time>2013-04-14T08:31:08Z</time>
      </trkpt>
      <trkpt lat="42.92784" lon="-0.72708">
        <ele>2053</ele>
        <time>2013-04-14T08:31:18Z</time>
      </trkpt>
      <trkpt lat="42.92783" lon="-0.72706">
        <ele>2054</ele>
        <time>2013-04-14T08:31:32Z</time>
      </trkpt>
      <trkpt lat="42.92781" lon="-0.72707">
        <ele>2055</ele>
        <time>2013-04-14T08:31:56Z</time>
      </trkpt>
      <trkpt lat="42.92779" lon="-0.72708">
        <ele>2056</ele>
        <time>2013-04-14T08:32:14Z</time>
      </trkpt>
      <trkpt lat="42.92782" lon="-0.72713">
        <ele>2056</ele>
        <time>2013-04-14T08:32:27Z</time>
      </trkpt>
      <trkpt lat="42.92786" lon="-0.7272">
        <ele>2058</ele>
        <time>2013-04-14T08:32:40Z</time>
      </trkpt>
      <trkpt lat="42.9279" lon="-0.72724">
        <ele>2061</ele>
        <time>2013-04-14T08:32:51Z</time>
      </trkpt>
      <trkpt lat="42.92799" lon="-0.72731">
        <ele>2063</ele>
        <time>2013-04-14T08:33:07Z</time>
      </trkpt>
      <trkpt lat="42.92804" lon="-0.72737">
        <ele>2066</ele>
        <time>2013-04-14T08:33:19Z</time>
      </trkpt>
      <trkpt lat="42.92809" lon="-0.72741">
        <ele>2068</ele>
        <time>2013-04-14T08:33:34Z</time>
      </trkpt>
      <trkpt lat="42.92814" lon="-0.72741">
        <ele>2067</ele>
        <time>2013-04-14T08:33:46Z</time>
      </trkpt>
      <trkpt lat="42.92809" lon="-0.72747">
        <ele>2069</ele>
        <time>2013-04-14T08:33:58Z</time>
      </trkpt>
      <trkpt lat="42.92803" lon="-0.72751">
        <ele>2072</ele>
        <time>2013-04-14T08:34:12Z</time>
      </trkpt>
      <trkpt lat="42.92795" lon="-0.72756">
        <ele>2075</ele>
        <time>2013-04-14T08:34:26Z</time>
      </trkpt>
      <trkpt lat="42.92788" lon="-0.72759">
        <ele>2077</ele>
        <time>2013-04-14T08:34:40Z</time>
      </trkpt>
      <trkpt lat="42.92786" lon="-0.72759">
        <ele>2078</ele>
        <time>2013-04-14T08:34:44Z</time>
      </trkpt>
      <trkpt lat="42.92778" lon="-0.7276">
        <ele>2079</ele>
        <time>2013-04-14T08:34:56Z</time>
      </trkpt>
      <trkpt lat="42.92775" lon="-0.72759">
        <ele>2080</ele>
        <time>2013-04-14T08:35:07Z</time>
      </trkpt>
      <trkpt lat="42.92777" lon="-0.72768">
        <ele>2082</ele>
        <time>2013-04-14T08:35:19Z</time>
      </trkpt>
      <trkpt lat="42.92781" lon="-0.72774">
        <ele>2083</ele>
        <time>2013-04-14T08:35:31Z</time>
      </trkpt>
      <trkpt lat="42.92782" lon="-0.72776">
        <ele>2085</ele>
        <time>2013-04-14T08:35:35Z</time>
      </trkpt>
      <trkpt lat="42.92782" lon="-0.72777">
        <ele>2083</ele>
        <time>2013-04-14T08:35:49Z</time>
      </trkpt>
      <trkpt lat="42.92784" lon="-0.72779">
        <ele>2085</ele>
        <time>2013-04-14T08:36:04Z</time>
      </trkpt>
      <trkpt lat="42.92787" lon="-0.72779">
        <ele>2086</ele>
        <time>2013-04-14T08:36:23Z</time>
      </trkpt>
      <trkpt lat="42.92789" lon="-0.72783">
        <ele>2088</ele>
        <time>2013-04-14T08:36:34Z</time>
      </trkpt>
      <trkpt lat="42.92793" lon="-0.72796">
        <ele>2089</ele>
        <time>2013-04-14T08:36:49Z</time>
      </trkpt>
      <trkpt lat="42.92797" lon="-0.72806">
        <ele>2092</ele>
        <time>2013-04-14T08:37:04Z</time>
      </trkpt>
      <trkpt lat="42.92801" lon="-0.72815">
        <ele>2096</ele>
        <time>2013-04-14T08:37:16Z</time>
      </trkpt>
      <trkpt lat="42.92805" lon="-0.72821">
        <ele>2098</ele>
        <time>2013-04-14T08:37:28Z</time>
      </trkpt>
      <trkpt lat="42.92806" lon="-0.72826">
        <ele>2101</ele>
        <time>2013-04-14T08:37:39Z</time>
      </trkpt>
      <trkpt lat="42.92804" lon="-0.72831">
        <ele>2104</ele>
        <time>2013-04-14T08:37:50Z</time>
      </trkpt>
      <trkpt lat="42.92801" lon="-0.72843">
        <ele>2105</ele>
        <time>2013-04-14T08:38:04Z</time>
      </trkpt>
      <trkpt lat="42.92794" lon="-0.72855">
        <ele>2106</ele>
        <time>2013-04-14T08:38:20Z</time>
      </trkpt>
      <trkpt lat="42.92793" lon="-0.72857">
        <ele>2108</ele>
        <time>2013-04-14T08:38:25Z</time>
      </trkpt>
      <trkpt lat="42.92792" lon="-0.72858">
        <ele>2109</ele>
        <time>2013-04-14T08:38:37Z</time>
      </trkpt>
      <trkpt lat="42.92789" lon="-0.72859">
        <ele>2111</ele>
        <time>2013-04-14T08:38:53Z</time>
      </trkpt>
      <trkpt lat="42.92783" lon="-0.72858">
        <ele>2112</ele>
        <time>2013-04-14T08:39:04Z</time>
      </trkpt>
      <trkpt lat="42.92778" lon="-0.72863">
        <ele>2113</ele>
        <time>2013-04-14T08:39:17Z</time>
      </trkpt>
      <trkpt lat="42.92776" lon="-0.72873">
        <ele>2116</ele>
        <time>2013-04-14T08:39:27Z</time>
      </trkpt>
      <trkpt lat="42.92774" lon="-0.72882">
        <ele>2118</ele>
        <time>2013-04-14T08:39:40Z</time>
      </trkpt>
      <trkpt lat="42.92769" lon="-0.72888">
        <ele>2122</ele>
        <time>2013-04-14T08:39:54Z</time>
      </trkpt>
      <trkpt lat="42.92761" lon="-0.72889">
        <ele>2124</ele>
        <time>2013-04-14T08:40:05Z</time>
      </trkpt>
      <trkpt lat="42.92761" lon="-0.7289">
        <ele>2124</ele>
        <time>2013-04-14T08:40:06Z</time>
      </trkpt>
      <trkpt lat="42.92756" lon="-0.72892">
        <ele>2126</ele>
        <time>2013-04-14T08:40:17Z</time>
      </trkpt>
      <trkpt lat="42.92748" lon="-0.729">
        <ele>2127</ele>
        <time>2013-04-14T08:40:30Z</time>
      </trkpt>
      <trkpt lat="42.92739" lon="-0.72905">
        <ele>2127</ele>
        <time>2013-04-14T08:40:43Z</time>
      </trkpt>
      <trkpt lat="42.92737" lon="-0.72905">
        <ele>2127</ele>
        <time>2013-04-14T08:40:45Z</time>
      </trkpt>
      <trkpt lat="42.92728" lon="-0.7291">
        <ele>2129</ele>
        <time>2013-04-14T08:40:57Z</time>
      </trkpt>
      <trkpt lat="42.92728" lon="-0.72909">
        <ele>2130</ele>
        <time>2013-04-14T08:40:58Z</time>
      </trkpt>
      <trkpt lat="42.92718" lon="-0.72909">
        <ele>2132</ele>
        <time>2013-04-14T08:41:14Z</time>
      </trkpt>
      <trkpt lat="42.92711" lon="-0.72905">
        <ele>2134</ele>
        <time>2013-04-14T08:41:25Z</time>
      </trkpt>
      <trkpt lat="42.92706" lon="-0.72901">
        <ele>2136</ele>
        <time>2013-04-14T08:41:38Z</time>
      </trkpt>
      <trkpt lat="42.927" lon="-0.72898">
        <ele>2138</ele>
        <time>2013-04-14T08:41:51Z</time>
      </trkpt>
      <trkpt lat="42.92693" lon="-0.72904">
        <ele>2139</ele>
        <time>2013-04-14T08:42:05Z</time>
      </trkpt>
      <trkpt lat="42.92688" lon="-0.7291">
        <ele>2140</ele>
        <time>2013-04-14T08:42:16Z</time>
      </trkpt>
      <trkpt lat="42.92683" lon="-0.72919">
        <ele>2142</ele>
        <time>2013-04-14T08:42:30Z</time>
      </trkpt>
      <trkpt lat="42.92679" lon="-0.7293">
        <ele>2143</ele>
        <time>2013-04-14T08:42:43Z</time>
      </trkpt>
      <trkpt lat="42.92673" lon="-0.72934">
        <ele>2145</ele>
        <time>2013-04-14T08:43:00Z</time>
      </trkpt>
      <trkpt lat="42.92665" lon="-0.72937">
        <ele>2147</ele>
        <time>2013-04-14T08:43:14Z</time>
      </trkpt>
      <trkpt lat="42.92659" lon="-0.72941">
        <ele>2148</ele>
        <time>2013-04-14T08:43:27Z</time>
      </trkpt>
      <trkpt lat="42.92657" lon="-0.72943">
        <ele>2149</ele>
        <time>2013-04-14T08:43:32Z</time>
      </trkpt>
      <trkpt lat="42.92652" lon="-0.72944">
        <ele>2153</ele>
        <time>2013-04-14T08:43:42Z</time>
      </trkpt>
      <trkpt lat="42.92652" lon="-0.72944">
        <ele>2153</ele>
        <time>2013-04-14T08:43:43Z</time>
      </trkpt>
      <trkpt lat="42.92651" lon="-0.72944">
        <ele>2151</ele>
        <time>2013-04-14T08:43:45Z</time>
      </trkpt>
      <trkpt lat="42.92645" lon="-0.7294">
        <ele>2153</ele>
        <time>2013-04-14T08:43:58Z</time>
      </trkpt>
      <trkpt lat="42.92644" lon="-0.72939">
        <ele>2153</ele>
        <time>2013-04-14T08:43:59Z</time>
      </trkpt>
      <trkpt lat="42.92637" lon="-0.72933">
        <ele>2156</ele>
        <time>2013-04-14T08:44:13Z</time>
      </trkpt>
      <trkpt lat="42.92633" lon="-0.72928">
        <ele>2159</ele>
        <time>2013-04-14T08:44:24Z</time>
      </trkpt>
      <trkpt lat="42.92632" lon="-0.72927">
        <ele>2160</ele>
        <time>2013-04-14T08:44:26Z</time>
      </trkpt>
      <trkpt lat="42.92628" lon="-0.72921">
        <ele>2162</ele>
        <time>2013-04-14T08:44:40Z</time>
      </trkpt>
      <trkpt lat="42.92627" lon="-0.72915">
        <ele>2164</ele>
        <time>2013-04-14T08:44:50Z</time>
      </trkpt>
      <trkpt lat="42.92629" lon="-0.72913">
        <ele>2163</ele>
        <time>2013-04-14T08:45:07Z</time>
      </trkpt>
      <trkpt lat="42.92625" lon="-0.72904">
        <ele>2164</ele>
        <time>2013-04-14T08:45:21Z</time>
      </trkpt>
      <trkpt lat="42.92621" lon="-0.72899">
        <ele>2163</ele>
        <time>2013-04-14T08:45:26Z</time>
      </trkpt>
      <trkpt lat="42.92616" lon="-0.72889">
        <ele>2164</ele>
        <time>2013-04-14T08:45:38Z</time>
      </trkpt>
      <trkpt lat="42.92614" lon="-0.72885">
        <ele>2163</ele>
        <time>2013-04-14T08:45:41Z</time>
      </trkpt>
      <trkpt lat="42.92612" lon="-0.72879">
        <ele>2163</ele>
        <time>2013-04-14T08:45:54Z</time>
      </trkpt>
      <trkpt lat="42.92611" lon="-0.72878">
        <ele>2163</ele>
        <time>2013-04-14T08:45:57Z</time>
      </trkpt>
      <trkpt lat="42.92615" lon="-0.72874">
        <ele>2163</ele>
        <time>2013-04-14T08:46:08Z</time>
      </trkpt>
      <trkpt lat="42.92618" lon="-0.72875">
        <ele>2164</ele>
        <time>2013-04-14T08:46:21Z</time>
      </trkpt>
      <trkpt lat="42.92616" lon="-0.72875">
        <ele>2166</ele>
        <time>2013-04-14T08:46:32Z</time>
      </trkpt>
      <trkpt lat="42.92616" lon="-0.72875">
        <ele>2165</ele>
        <time>2013-04-14T08:46:34Z</time>
      </trkpt>
      <trkpt lat="42.92616" lon="-0.72876">
        <ele>2166</ele>
        <time>2013-04-14T08:46:40Z</time>
      </trkpt>
      <trkpt lat="42.92614" lon="-0.72876">
        <ele>2166</ele>
        <time>2013-04-14T08:46:50Z</time>
      </trkpt>
      <trkpt lat="42.92612" lon="-0.72874">
        <ele>2169</ele>
        <time>2013-04-14T08:46:54Z</time>
      </trkpt>
      <trkpt lat="42.9261" lon="-0.72871">
        <ele>2167</ele>
        <time>2013-04-14T08:46:58Z</time>
      </trkpt>
      <trkpt lat="42.92608" lon="-0.72868">
        <ele>2165</ele>
        <time>2013-04-14T08:47:03Z</time>
      </trkpt>
      <trkpt lat="42.926" lon="-0.7286">
        <ele>2164</ele>
        <time>2013-04-14T08:47:16Z</time>
      </trkpt>
      <trkpt lat="42.92593" lon="-0.72852">
        <ele>2166</ele>
        <time>2013-04-14T08:47:29Z</time>
      </trkpt>
      <trkpt lat="42.92591" lon="-0.72853">
        <ele>2169</ele>
        <time>2013-04-14T08:47:48Z</time>
      </trkpt>
      <trkpt lat="42.92584" lon="-0.72846">
        <ele>2169</ele>
        <time>2013-04-14T08:48:00Z</time>
      </trkpt>
      <trkpt lat="42.92577" lon="-0.72837">
        <ele>2171</ele>
        <time>2013-04-14T08:48:13Z</time>
      </trkpt>
      <trkpt lat="42.92573" lon="-0.72834">
        <ele>2175</ele>
        <time>2013-04-14T08:48:19Z</time>
      </trkpt>
      <trkpt lat="42.92571" lon="-0.72831">
        <ele>2178</ele>
        <time>2013-04-14T08:48:23Z</time>
      </trkpt>
      <trkpt lat="42.92571" lon="-0.7283">
        <ele>2178</ele>
        <time>2013-04-14T08:48:24Z</time>
      </trkpt>
      <trkpt lat="42.92569" lon="-0.72828">
        <ele>2176</ele>
        <time>2013-04-14T08:48:27Z</time>
      </trkpt>
      <trkpt lat="42.92567" lon="-0.72825">
        <ele>2174</ele>
        <time>2013-04-14T08:48:32Z</time>
      </trkpt>
      <trkpt lat="42.92562" lon="-0.72819">
        <ele>2179</ele>
        <time>2013-04-14T08:48:41Z</time>
      </trkpt>
      <trkpt lat="42.92559" lon="-0.72817">
        <ele>2176</ele>
        <time>2013-04-14T08:48:46Z</time>
      </trkpt>
      <trkpt lat="42.92557" lon="-0.72814">
        <ele>2174</ele>
        <time>2013-04-14T08:48:49Z</time>
      </trkpt>
      <trkpt lat="42.92556" lon="-0.72813">
        <ele>2174</ele>
        <time>2013-04-14T08:48:51Z</time>
      </trkpt>
      <trkpt lat="42.92547" lon="-0.72806">
        <ele>2175</ele>
        <time>2013-04-14T08:49:04Z</time>
      </trkpt>
      <trkpt lat="42.92537" lon="-0.72804">
        <ele>2175</ele>
        <time>2013-04-14T08:49:18Z</time>
      </trkpt>
      <trkpt lat="42.92528" lon="-0.72797">
        <ele>2177</ele>
        <time>2013-04-14T08:49:31Z</time>
      </trkpt>
      <trkpt lat="42.92517" lon="-0.72792">
        <ele>2179</ele>
        <time>2013-04-14T08:49:45Z</time>
      </trkpt>
      <trkpt lat="42.92507" lon="-0.72786">
        <ele>2180</ele>
        <time>2013-04-14T08:49:58Z</time>
      </trkpt>
      <trkpt lat="42.925" lon="-0.72783">
        <ele>2183</ele>
        <time>2013-04-14T08:50:09Z</time>
      </trkpt>
      <trkpt lat="42.92499" lon="-0.72782">
        <ele>2184</ele>
        <time>2013-04-14T08:50:11Z</time>
      </trkpt>
      <trkpt lat="42.92496" lon="-0.7278">
        <ele>2185</ele>
        <time>2013-04-14T08:50:16Z</time>
      </trkpt>
      <trkpt lat="42.9249" lon="-0.72774">
        <ele>2188</ele>
        <time>2013-04-14T08:50:27Z</time>
      </trkpt>
      <trkpt lat="42.92486" lon="-0.72768">
        <ele>2187</ele>
        <time>2013-04-14T08:50:36Z</time>
      </trkpt>
      <trkpt lat="42.9248" lon="-0.72758">
        <ele>2188</ele>
        <time>2013-04-14T08:50:51Z</time>
      </trkpt>
      <trkpt lat="42.92476" lon="-0.72745">
        <ele>2187</ele>
        <time>2013-04-14T08:51:07Z</time>
      </trkpt>
      <trkpt lat="42.9247" lon="-0.72736">
        <ele>2189</ele>
        <time>2013-04-14T08:51:23Z</time>
      </trkpt>
      <trkpt lat="42.92468" lon="-0.72733">
        <ele>2191</ele>
        <time>2013-04-14T08:51:32Z</time>
      </trkpt>
      <trkpt lat="42.92468" lon="-0.72733">
        <ele>2196</ele>
        <time>2013-04-14T08:51:38Z</time>
      </trkpt>
      <trkpt lat="42.92468" lon="-0.72734">
        <ele>2194</ele>
        <time>2013-04-14T08:51:39Z</time>
      </trkpt>
      <trkpt lat="42.92468" lon="-0.72734">
        <ele>2191</ele>
        <time>2013-04-14T08:51:43Z</time>
      </trkpt>
      <trkpt lat="42.92466" lon="-0.72731">
        <ele>2192</ele>
        <time>2013-04-14T08:52:09Z</time>
      </trkpt>
      <trkpt lat="42.92465" lon="-0.72729">
        <ele>2192</ele>
        <time>2013-04-14T08:52:22Z</time>
      </trkpt>
      <trkpt lat="42.9246" lon="-0.7273">
        <ele>2194</ele>
        <time>2013-04-14T08:52:34Z</time>
      </trkpt>
      <trkpt lat="42.9246" lon="-0.72732">
        <ele>2195</ele>
        <time>2013-04-14T08:52:37Z</time>
      </trkpt>
      <trkpt lat="42.92458" lon="-0.72735">
        <ele>2195</ele>
        <time>2013-04-14T08:52:41Z</time>
      </trkpt>
      <trkpt lat="42.92455" lon="-0.72742">
        <ele>2197</ele>
        <time>2013-04-14T08:52:48Z</time>
      </trkpt>
      <trkpt lat="42.92451" lon="-0.72749">
        <ele>2200</ele>
        <time>2013-04-14T08:53:01Z</time>
      </trkpt>
      <trkpt lat="42.92448" lon="-0.72755">
        <ele>2202</ele>
        <time>2013-04-14T08:53:09Z</time>
      </trkpt>
      <trkpt lat="42.92447" lon="-0.72758">
        <ele>2204</ele>
        <time>2013-04-14T08:53:12Z</time>
      </trkpt>
      <trkpt lat="42.92446" lon="-0.72759">
        <ele>2205</ele>
        <time>2013-04-14T08:53:14Z</time>
      </trkpt>
      <trkpt lat="42.92446" lon="-0.72761">
        <ele>2203</ele>
        <time>2013-04-14T08:53:16Z</time>
      </trkpt>
      <trkpt lat="42.9244" lon="-0.72767">
        <ele>2203</ele>
        <time>2013-04-14T08:53:30Z</time>
      </trkpt>
      <trkpt lat="42.92436" lon="-0.72758">
        <ele>2204</ele>
        <time>2013-04-14T08:53:42Z</time>
      </trkpt>
      <trkpt lat="42.92436" lon="-0.72756">
        <ele>2203</ele>
        <time>2013-04-14T08:53:44Z</time>
      </trkpt>
      <trkpt lat="42.92433" lon="-0.72747">
        <ele>2207</ele>
        <time>2013-04-14T08:53:59Z</time>
      </trkpt>
      <trkpt lat="42.92432" lon="-0.72741">
        <ele>2206</ele>
        <time>2013-04-14T08:54:12Z</time>
      </trkpt>
      <trkpt lat="42.92426" lon="-0.7275">
        <ele>2208</ele>
        <time>2013-04-14T08:54:25Z</time>
      </trkpt>
      <trkpt lat="42.92421" lon="-0.7276">
        <ele>2211</ele>
        <time>2013-04-14T08:54:41Z</time>
      </trkpt>
      <trkpt lat="42.92414" lon="-0.72769">
        <ele>2212</ele>
        <time>2013-04-14T08:54:54Z</time>
      </trkpt>
      <trkpt lat="42.9241" lon="-0.72764">
        <ele>2213</ele>
        <time>2013-04-14T08:55:05Z</time>
      </trkpt>
      <trkpt lat="42.92407" lon="-0.72757">
        <ele>2215</ele>
        <time>2013-04-14T08:55:11Z</time>
      </trkpt>
      <trkpt lat="42.92403" lon="-0.72745">
        <ele>2217</ele>
        <time>2013-04-14T08:55:26Z</time>
      </trkpt>
      <trkpt lat="42.92399" lon="-0.72735">
        <ele>2219</ele>
        <time>2013-04-14T08:55:38Z</time>
      </trkpt>
      <trkpt lat="42.92397" lon="-0.72725">
        <ele>2221</ele>
        <time>2013-04-14T08:55:54Z</time>
      </trkpt>
      <trkpt lat="42.92392" lon="-0.72709">
        <ele>2223</ele>
        <time>2013-04-14T08:56:09Z</time>
      </trkpt>
      <trkpt lat="42.9239" lon="-0.72698">
        <ele>2227</ele>
        <time>2013-04-14T08:56:23Z</time>
      </trkpt>
      <trkpt lat="42.92387" lon="-0.72684">
        <ele>2229</ele>
        <time>2013-04-14T08:56:37Z</time>
      </trkpt>
      <trkpt lat="42.92386" lon="-0.72683">
        <ele>2231</ele>
        <time>2013-04-14T08:56:39Z</time>
      </trkpt>
      <trkpt lat="42.92386" lon="-0.72681">
        <ele>2237</ele>
        <time>2013-04-14T08:56:44Z</time>
      </trkpt>
      <trkpt lat="42.92385" lon="-0.72679">
        <ele>2240</ele>
        <time>2013-04-14T08:56:45Z</time>
      </trkpt>
      <trkpt lat="42.92385" lon="-0.72678">
        <ele>2239</ele>
        <time>2013-04-14T08:56:46Z</time>
      </trkpt>
      <trkpt lat="42.92385" lon="-0.72678">
        <ele>2236</ele>
        <time>2013-04-14T08:56:47Z</time>
      </trkpt>
      <trkpt lat="42.92384" lon="-0.72673">
        <ele>2232</ele>
        <time>2013-04-14T08:56:49Z</time>
      </trkpt>
      <trkpt lat="42.92383" lon="-0.7267">
        <ele>2231</ele>
        <time>2013-04-14T08:56:51Z</time>
      </trkpt>
      <trkpt lat="42.9238" lon="-0.72659">
        <ele>2231</ele>
        <time>2013-04-14T08:57:08Z</time>
      </trkpt>
      <trkpt lat="42.92376" lon="-0.72644">
        <ele>2231</ele>
        <time>2013-04-14T08:57:27Z</time>
      </trkpt>
      <trkpt lat="42.92378" lon="-0.72639">
        <ele>2232</ele>
        <time>2013-04-14T08:57:40Z</time>
      </trkpt>
      <trkpt lat="42.92376" lon="-0.7263">
        <ele>2235</ele>
        <time>2013-04-14T08:57:51Z</time>
      </trkpt>
      <trkpt lat="42.92373" lon="-0.72615">
        <ele>2236</ele>
        <time>2013-04-14T08:58:07Z</time>
      </trkpt>
      <trkpt lat="42.92374" lon="-0.72616">
        <ele>2237</ele>
        <time>2013-04-14T08:58:12Z</time>
      </trkpt>
      <trkpt lat="42.92373" lon="-0.72602">
        <ele>2239</ele>
        <time>2013-04-14T08:58:25Z</time>
      </trkpt>
      <trkpt lat="42.92373" lon="-0.72592">
        <ele>2242</ele>
        <time>2013-04-14T08:58:39Z</time>
      </trkpt>
      <trkpt lat="42.92373" lon="-0.72584">
        <ele>2245</ele>
        <time>2013-04-14T08:58:51Z</time>
      </trkpt>
      <trkpt lat="42.92367" lon="-0.72577">
        <ele>2248</ele>
        <time>2013-04-14T08:59:04Z</time>
      </trkpt>
      <trkpt lat="42.92365" lon="-0.72579">
        <ele>2248</ele>
        <time>2013-04-14T08:59:18Z</time>
      </trkpt>
      <trkpt lat="42.92361" lon="-0.72584">
        <ele>2249</ele>
        <time>2013-04-14T08:59:32Z</time>
      </trkpt>
      <trkpt lat="42.92356" lon="-0.72591">
        <ele>2249</ele>
        <time>2013-04-14T08:59:45Z</time>
      </trkpt>
      <trkpt lat="42.92351" lon="-0.72602">
        <ele>2250</ele>
        <time>2013-04-14T08:59:58Z</time>
      </trkpt>
      <trkpt lat="42.9235" lon="-0.72606">
        <ele>2251</ele>
        <time>2013-04-14T09:00:12Z</time>
      </trkpt>
      <trkpt lat="42.92349" lon="-0.72609">
        <ele>2251</ele>
        <time>2013-04-14T09:00:29Z</time>
      </trkpt>
      <trkpt lat="42.92348" lon="-0.72619">
        <ele>2252</ele>
        <time>2013-04-14T09:00:43Z</time>
      </trkpt>
      <trkpt lat="42.92347" lon="-0.7263">
        <ele>2253</ele>
        <time>2013-04-14T09:00:56Z</time>
      </trkpt>
      <trkpt lat="42.92344" lon="-0.72646">
        <ele>2255</ele>
        <time>2013-04-14T09:01:11Z</time>
      </trkpt>
      <trkpt lat="42.92341" lon="-0.72658">
        <ele>2257</ele>
        <time>2013-04-14T09:01:27Z</time>
      </trkpt>
      <trkpt lat="42.92334" lon="-0.72674">
        <ele>2257</ele>
        <time>2013-04-14T09:01:41Z</time>
      </trkpt>
      <trkpt lat="42.92331" lon="-0.72682">
        <ele>2259</ele>
        <time>2013-04-14T09:01:55Z</time>
      </trkpt>
      <trkpt lat="42.92328" lon="-0.72697">
        <ele>2259</ele>
        <time>2013-04-14T09:02:10Z</time>
      </trkpt>
      <trkpt lat="42.92325" lon="-0.7271">
        <ele>2261</ele>
        <time>2013-04-14T09:02:25Z</time>
      </trkpt>
      <trkpt lat="42.9232" lon="-0.72718">
        <ele>2262</ele>
        <time>2013-04-14T09:02:36Z</time>
      </trkpt>
      <trkpt lat="42.92312" lon="-0.72728">
        <ele>2264</ele>
        <time>2013-04-14T09:02:51Z</time>
      </trkpt>
      <trkpt lat="42.92308" lon="-0.72727">
        <ele>2267</ele>
        <time>2013-04-14T09:03:00Z</time>
      </trkpt>
      <trkpt lat="42.92305" lon="-0.72721">
        <ele>2268</ele>
        <time>2013-04-14T09:03:10Z</time>
      </trkpt>
      <trkpt lat="42.92303" lon="-0.72708">
        <ele>2269</ele>
        <time>2013-04-14T09:03:25Z</time>
      </trkpt>
      <trkpt lat="42.92301" lon="-0.72698">
        <ele>2272</ele>
        <time>2013-04-14T09:03:38Z</time>
      </trkpt>
      <trkpt lat="42.92299" lon="-0.72687">
        <ele>2274</ele>
        <time>2013-04-14T09:03:51Z</time>
      </trkpt>
      <trkpt lat="42.92298" lon="-0.72689">
        <ele>2274</ele>
        <time>2013-04-14T09:04:13Z</time>
      </trkpt>
      <trkpt lat="42.92297" lon="-0.72687">
        <ele>2276</ele>
        <time>2013-04-14T09:04:19Z</time>
      </trkpt>
      <trkpt lat="42.92295" lon="-0.72669">
        <ele>2277</ele>
        <time>2013-04-14T09:04:36Z</time>
      </trkpt>
      <trkpt lat="42.9229" lon="-0.72658">
        <ele>2280</ele>
        <time>2013-04-14T09:04:49Z</time>
      </trkpt>
      <trkpt lat="42.92285" lon="-0.72655">
        <ele>2281</ele>
        <time>2013-04-14T09:05:01Z</time>
      </trkpt>
      <trkpt lat="42.92282" lon="-0.72652">
        <ele>2282</ele>
        <time>2013-04-14T09:05:12Z</time>
      </trkpt>
      <trkpt lat="42.92281" lon="-0.72652">
        <ele>2282</ele>
        <time>2013-04-14T09:05:14Z</time>
      </trkpt>
      <trkpt lat="42.92278" lon="-0.7265">
        <ele>2283</ele>
        <time>2013-04-14T09:05:30Z</time>
      </trkpt>
      <trkpt lat="42.92278" lon="-0.72647">
        <ele>2283</ele>
        <time>2013-04-14T09:05:44Z</time>
      </trkpt>
      <trkpt lat="42.92272" lon="-0.72644">
        <ele>2285</ele>
        <time>2013-04-14T09:05:55Z</time>
      </trkpt>
      <trkpt lat="42.92272" lon="-0.72643">
        <ele>2284</ele>
        <time>2013-04-14T09:06:05Z</time>
      </trkpt>
      <trkpt lat="42.9227" lon="-0.72643">
        <ele>2284</ele>
        <time>2013-04-14T09:06:18Z</time>
      </trkpt>
      <trkpt lat="42.92262" lon="-0.7264">
        <ele>2286</ele>
        <time>2013-04-14T09:06:31Z</time>
      </trkpt>
      <trkpt lat="42.92261" lon="-0.72639">
        <ele>2288</ele>
        <time>2013-04-14T09:06:34Z</time>
      </trkpt>
      <trkpt lat="42.92253" lon="-0.72635">
        <ele>2290</ele>
        <time>2013-04-14T09:06:46Z</time>
      </trkpt>
      <trkpt lat="42.92244" lon="-0.72628">
        <ele>2291</ele>
        <time>2013-04-14T09:06:59Z</time>
      </trkpt>
      <trkpt lat="42.92238" lon="-0.72616">
        <ele>2293</ele>
        <time>2013-04-14T09:07:14Z</time>
      </trkpt>
      <trkpt lat="42.92236" lon="-0.72608">
        <ele>2294</ele>
        <time>2013-04-14T09:07:27Z</time>
      </trkpt>
      <trkpt lat="42.92233" lon="-0.72601">
        <ele>2294</ele>
        <time>2013-04-14T09:07:39Z</time>
      </trkpt>
      <trkpt lat="42.92232" lon="-0.72599">
        <ele>2294</ele>
        <time>2013-04-14T09:07:41Z</time>
      </trkpt>
      <trkpt lat="42.92225" lon="-0.72587">
        <ele>2293</ele>
        <time>2013-04-14T09:07:54Z</time>
      </trkpt>
      <trkpt lat="42.92219" lon="-0.72574">
        <ele>2294</ele>
        <time>2013-04-14T09:08:08Z</time>
      </trkpt>
      <trkpt lat="42.92211" lon="-0.7256">
        <ele>2294</ele>
        <time>2013-04-14T09:08:23Z</time>
      </trkpt>
      <trkpt lat="42.9221" lon="-0.72558">
        <ele>2295</ele>
        <time>2013-04-14T09:08:26Z</time>
      </trkpt>
      <trkpt lat="42.922" lon="-0.72547">
        <ele>2296</ele>
        <time>2013-04-14T09:08:40Z</time>
      </trkpt>
      <trkpt lat="42.92192" lon="-0.72544">
        <ele>2297</ele>
        <time>2013-04-14T09:08:54Z</time>
      </trkpt>
      <trkpt lat="42.92182" lon="-0.72544">
        <ele>2299</ele>
        <time>2013-04-14T09:09:05Z</time>
      </trkpt>
      <trkpt lat="42.92168" lon="-0.72542">
        <ele>2300</ele>
        <time>2013-04-14T09:09:19Z</time>
      </trkpt>
      <trkpt lat="42.92157" lon="-0.72541">
        <ele>2300</ele>
        <time>2013-04-14T09:09:33Z</time>
      </trkpt>
      <trkpt lat="42.92154" lon="-0.72539">
        <ele>2300</ele>
        <time>2013-04-14T09:09:38Z</time>
      </trkpt>
      <trkpt lat="42.92151" lon="-0.72535">
        <ele>2299</ele>
        <time>2013-04-14T09:09:44Z</time>
      </trkpt>
      <trkpt lat="42.92146" lon="-0.72532">
        <ele>2298</ele>
        <time>2013-04-14T09:09:52Z</time>
      </trkpt>
      <trkpt lat="42.92145" lon="-0.72526">
        <ele>2297</ele>
        <time>2013-04-14T09:10:07Z</time>
      </trkpt>
      <trkpt lat="42.92137" lon="-0.72525">
        <ele>2296</ele>
        <time>2013-04-14T09:10:29Z</time>
      </trkpt>
      <trkpt lat="42.92129" lon="-0.72521">
        <ele>2296</ele>
        <time>2013-04-14T09:10:36Z</time>
      </trkpt>
      <trkpt lat="42.92113" lon="-0.7251">
        <ele>2293</ele>
        <time>2013-04-14T09:10:51Z</time>
      </trkpt>
      <trkpt lat="42.92105" lon="-0.72502">
        <ele>2292</ele>
        <time>2013-04-14T09:11:00Z</time>
      </trkpt>
      <trkpt lat="42.92096" lon="-0.72498">
        <ele>2292</ele>
        <time>2013-04-14T09:11:12Z</time>
      </trkpt>
      <trkpt lat="42.92093" lon="-0.72499">
        <ele>2292</ele>
        <time>2013-04-14T09:11:23Z</time>
      </trkpt>
      <trkpt lat="42.92094" lon="-0.72499">
        <ele>2293</ele>
        <time>2013-04-14T09:11:49Z</time>
      </trkpt>
      <trkpt lat="42.92081" lon="-0.72494">
        <ele>2293</ele>
        <time>2013-04-14T09:12:03Z</time>
      </trkpt>
      <trkpt lat="42.92079" lon="-0.72493">
        <ele>2292</ele>
        <time>2013-04-14T09:12:15Z</time>
      </trkpt>
      <trkpt lat="42.92065" lon="-0.72494">
        <ele>2294</ele>
        <time>2013-04-14T09:12:30Z</time>
      </trkpt>
      <trkpt lat="42.92056" lon="-0.72493">
        <ele>2296</ele>
        <time>2013-04-14T09:12:44Z</time>
      </trkpt>
      <trkpt lat="42.92047" lon="-0.72488">
        <ele>2298</ele>
        <time>2013-04-14T09:12:58Z</time>
      </trkpt>
      <trkpt lat="42.92039" lon="-0.72489">
        <ele>2301</ele>
        <time>2013-04-14T09:13:11Z</time>
      </trkpt>
      <trkpt lat="42.92037" lon="-0.72497">
        <ele>2305</ele>
        <time>2013-04-14T09:13:21Z</time>
      </trkpt>
      <trkpt lat="42.92035" lon="-0.72509">
        <ele>2304</ele>
        <time>2013-04-14T09:13:36Z</time>
      </trkpt>
      <trkpt lat="42.92032" lon="-0.72517">
        <ele>2308</ele>
        <time>2013-04-14T09:13:47Z</time>
      </trkpt>
      <trkpt lat="42.92031" lon="-0.72516">
        <ele>2308</ele>
        <time>2013-04-14T09:13:48Z</time>
      </trkpt>
      <trkpt lat="42.92021" lon="-0.72509">
        <ele>2310</ele>
        <time>2013-04-14T09:14:05Z</time>
      </trkpt>
      <trkpt lat="42.92018" lon="-0.72505">
        <ele>2313</ele>
        <time>2013-04-14T09:14:11Z</time>
      </trkpt>
      <trkpt lat="42.92011" lon="-0.72502">
        <ele>2312</ele>
        <time>2013-04-14T09:14:25Z</time>
      </trkpt>
      <trkpt lat="42.92009" lon="-0.725">
        <ele>2314</ele>
        <time>2013-04-14T09:14:31Z</time>
      </trkpt>
      <trkpt lat="42.92" lon="-0.72494">
        <ele>2315</ele>
        <time>2013-04-14T09:14:47Z</time>
      </trkpt>
      <trkpt lat="42.91996" lon="-0.72502">
        <ele>2316</ele>
        <time>2013-04-14T09:14:59Z</time>
      </trkpt>
      <trkpt lat="42.91996" lon="-0.72507">
        <ele>2318</ele>
        <time>2013-04-14T09:15:05Z</time>
      </trkpt>
      <trkpt lat="42.91995" lon="-0.72519">
        <ele>2321</ele>
        <time>2013-04-14T09:15:19Z</time>
      </trkpt>
      <trkpt lat="42.91991" lon="-0.72519">
        <ele>2322</ele>
        <time>2013-04-14T09:15:31Z</time>
      </trkpt>
      <trkpt lat="42.91984" lon="-0.72513">
        <ele>2326</ele>
        <time>2013-04-14T09:15:48Z</time>
      </trkpt>
      <trkpt lat="42.9198" lon="-0.7251">
        <ele>2329</ele>
        <time>2013-04-14T09:16:01Z</time>
      </trkpt>
      <trkpt lat="42.91971" lon="-0.72505">
        <ele>2331</ele>
        <time>2013-04-14T09:16:18Z</time>
      </trkpt>
      <trkpt lat="42.91969" lon="-0.72503">
        <ele>2330</ele>
        <time>2013-04-14T09:16:24Z</time>
      </trkpt>
      <trkpt lat="42.91964" lon="-0.725">
        <ele>2332</ele>
        <time>2013-04-14T09:16:34Z</time>
      </trkpt>
      <trkpt lat="42.91957" lon="-0.72499">
        <ele>2335</ele>
        <time>2013-04-14T09:16:44Z</time>
      </trkpt>
      <trkpt lat="42.91957" lon="-0.72499">
        <ele>2336</ele>
        <time>2013-04-14T09:16:49Z</time>
      </trkpt>
      <trkpt lat="42.91958" lon="-0.72501">
        <ele>2339</ele>
        <time>2013-04-14T09:17:07Z</time>
      </trkpt>
      <trkpt lat="42.91957" lon="-0.72499">
        <ele>2336</ele>
        <time>2013-04-14T09:17:20Z</time>
      </trkpt>
      <trkpt lat="42.91954" lon="-0.72499">
        <ele>2338</ele>
        <time>2013-04-14T09:17:33Z</time>
      </trkpt>
      <trkpt lat="42.91955" lon="-0.72502">
        <ele>2340</ele>
        <time>2013-04-14T09:17:37Z</time>
      </trkpt>
      <trkpt lat="42.91954" lon="-0.72503">
        <ele>2344</ele>
        <time>2013-04-14T09:17:39Z</time>
      </trkpt>
      <trkpt lat="42.91954" lon="-0.72504">
        <ele>2343</ele>
        <time>2013-04-14T09:17:40Z</time>
      </trkpt>
      <trkpt lat="42.91955" lon="-0.72506">
        <ele>2340</ele>
        <time>2013-04-14T09:17:42Z</time>
      </trkpt>
      <trkpt lat="42.91954" lon="-0.72507">
        <ele>2340</ele>
        <time>2013-04-14T09:17:43Z</time>
      </trkpt>
      <trkpt lat="42.91954" lon="-0.72511">
        <ele>2338</ele>
        <time>2013-04-14T09:17:47Z</time>
      </trkpt>
      <trkpt lat="42.91954" lon="-0.72518">
        <ele>2340</ele>
        <time>2013-04-14T09:17:55Z</time>
      </trkpt>
      <trkpt lat="42.91954" lon="-0.7252">
        <ele>2340</ele>
        <time>2013-04-14T09:18:00Z</time>
      </trkpt>
      <trkpt lat="42.91954" lon="-0.72529">
        <ele>2342</ele>
        <time>2013-04-14T09:18:13Z</time>
      </trkpt>
      <trkpt lat="42.91954" lon="-0.72538">
        <ele>2344</ele>
        <time>2013-04-14T09:18:26Z</time>
      </trkpt>
      <trkpt lat="42.91954" lon="-0.72547">
        <ele>2348</ele>
        <time>2013-04-14T09:18:39Z</time>
      </trkpt>
      <trkpt lat="42.91949" lon="-0.72549">
        <ele>2348</ele>
        <time>2013-04-14T09:18:50Z</time>
      </trkpt>
      <trkpt lat="42.91941" lon="-0.72548">
        <ele>2350</ele>
        <time>2013-04-14T09:19:01Z</time>
      </trkpt>
      <trkpt lat="42.91937" lon="-0.72547">
        <ele>2352</ele>
        <time>2013-04-14T09:19:07Z</time>
      </trkpt>
      <trkpt lat="42.91931" lon="-0.72546">
        <ele>2354</ele>
        <time>2013-04-14T09:19:19Z</time>
      </trkpt>
      <trkpt lat="42.91932" lon="-0.72546">
        <ele>2358</ele>
        <time>2013-04-14T09:19:26Z</time>
      </trkpt>
      <trkpt lat="42.91932" lon="-0.72547">
        <ele>2359</ele>
        <time>2013-04-14T09:19:28Z</time>
      </trkpt>
      <trkpt lat="42.91933" lon="-0.72548">
        <ele>2356</ele>
        <time>2013-04-14T09:19:30Z</time>
      </trkpt>
      <trkpt lat="42.91933" lon="-0.72549">
        <ele>2357</ele>
        <time>2013-04-14T09:19:31Z</time>
      </trkpt>
      <trkpt lat="42.91933" lon="-0.7255">
        <ele>2356</ele>
        <time>2013-04-14T09:19:32Z</time>
      </trkpt>
      <trkpt lat="42.91933" lon="-0.72552">
        <ele>2355</ele>
        <time>2013-04-14T09:19:34Z</time>
      </trkpt>
      <trkpt lat="42.91934" lon="-0.72559">
        <ele>2355</ele>
        <time>2013-04-14T09:19:40Z</time>
      </trkpt>
      <trkpt lat="42.91934" lon="-0.72564">
        <ele>2354</ele>
        <time>2013-04-14T09:19:54Z</time>
      </trkpt>
      <trkpt lat="42.91932" lon="-0.72562">
        <ele>2356</ele>
        <time>2013-04-14T09:20:01Z</time>
      </trkpt>
      <trkpt lat="42.91929" lon="-0.72559">
        <ele>2358</ele>
        <time>2013-04-14T09:20:10Z</time>
      </trkpt>
      <trkpt lat="42.91926" lon="-0.72558">
        <ele>2362</ele>
        <time>2013-04-14T09:20:14Z</time>
      </trkpt>
      <trkpt lat="42.91926" lon="-0.72558">
        <ele>2364</ele>
        <time>2013-04-14T09:20:16Z</time>
      </trkpt>
      <trkpt lat="42.91926" lon="-0.72558">
        <ele>2359</ele>
        <time>2013-04-14T09:20:20Z</time>
      </trkpt>
      <trkpt lat="42.91926" lon="-0.72558">
        <ele>2358</ele>
        <time>2013-04-14T09:20:21Z</time>
      </trkpt>
      <trkpt lat="42.91925" lon="-0.72557">
        <ele>2360</ele>
        <time>2013-04-14T09:20:37Z</time>
      </trkpt>
      <trkpt lat="42.91925" lon="-0.72557">
        <ele>2362</ele>
        <time>2013-04-14T09:20:39Z</time>
      </trkpt>
      <trkpt lat="42.91923" lon="-0.72558">
        <ele>2361</ele>
        <time>2013-04-14T09:20:50Z</time>
      </trkpt>
      <trkpt lat="42.91922" lon="-0.72559">
        <ele>2358</ele>
        <time>2013-04-14T09:20:58Z</time>
      </trkpt>
      <trkpt lat="42.9192" lon="-0.72556">
        <ele>2358</ele>
        <time>2013-04-14T09:21:13Z</time>
      </trkpt>
      <trkpt lat="42.9192" lon="-0.72557">
        <ele>2359</ele>
        <time>2013-04-14T09:21:20Z</time>
      </trkpt>
      <trkpt lat="42.91918" lon="-0.72557">
        <ele>2358</ele>
        <time>2013-04-14T09:21:27Z</time>
      </trkpt>
      <trkpt lat="42.91916" lon="-0.72558">
        <ele>2360</ele>
        <time>2013-04-14T09:21:38Z</time>
      </trkpt>
      <trkpt lat="42.91916" lon="-0.72559">
        <ele>2359</ele>
        <time>2013-04-14T09:21:55Z</time>
      </trkpt>
      <trkpt lat="42.91916" lon="-0.7256">
        <ele>2360</ele>
        <time>2013-04-14T09:21:58Z</time>
      </trkpt>
      <trkpt lat="42.91911" lon="-0.7256">
        <ele>2358</ele>
        <time>2013-04-14T09:22:15Z</time>
      </trkpt>
      <trkpt lat="42.91909" lon="-0.72559">
        <ele>2359</ele>
        <time>2013-04-14T09:22:30Z</time>
      </trkpt>
      <trkpt lat="42.91902" lon="-0.72557">
        <ele>2360</ele>
        <time>2013-04-14T09:22:42Z</time>
      </trkpt>
      <trkpt lat="42.91897" lon="-0.72551">
        <ele>2363</ele>
        <time>2013-04-14T09:22:54Z</time>
      </trkpt>
      <trkpt lat="42.91894" lon="-0.72543">
        <ele>2365</ele>
        <time>2013-04-14T09:23:06Z</time>
      </trkpt>
      <trkpt lat="42.91889" lon="-0.72535">
        <ele>2366</ele>
        <time>2013-04-14T09:23:20Z</time>
      </trkpt>
      <trkpt lat="42.91888" lon="-0.72533">
        <ele>2367</ele>
        <time>2013-04-14T09:23:36Z</time>
      </trkpt>
      <trkpt lat="42.91885" lon="-0.72542">
        <ele>2368</ele>
        <time>2013-04-14T09:23:50Z</time>
      </trkpt>
      <trkpt lat="42.91881" lon="-0.7255">
        <ele>2370</ele>
        <time>2013-04-14T09:24:04Z</time>
      </trkpt>
      <trkpt lat="42.91877" lon="-0.72555">
        <ele>2373</ele>
        <time>2013-04-14T09:24:16Z</time>
      </trkpt>
      <trkpt lat="42.91872" lon="-0.72559">
        <ele>2375</ele>
        <time>2013-04-14T09:24:26Z</time>
      </trkpt>
      <trkpt lat="42.91865" lon="-0.7255">
        <ele>2377</ele>
        <time>2013-04-14T09:24:40Z</time>
      </trkpt>
      <trkpt lat="42.91861" lon="-0.72541">
        <ele>2379</ele>
        <time>2013-04-14T09:24:55Z</time>
      </trkpt>
      <trkpt lat="42.91857" lon="-0.72535">
        <ele>2381</ele>
        <time>2013-04-14T09:25:08Z</time>
      </trkpt>
      <trkpt lat="42.91852" lon="-0.7253">
        <ele>2383</ele>
        <time>2013-04-14T09:25:24Z</time>
      </trkpt>
      <trkpt lat="42.91851" lon="-0.72531">
        <ele>2385</ele>
        <time>2013-04-14T09:25:34Z</time>
      </trkpt>
      <trkpt lat="42.91848" lon="-0.7253">
        <ele>2386</ele>
        <time>2013-04-14T09:25:43Z</time>
      </trkpt>
      <trkpt lat="42.91845" lon="-0.72529">
        <ele>2387</ele>
        <time>2013-04-14T09:25:56Z</time>
      </trkpt>
      <trkpt lat="42.91844" lon="-0.72528">
        <ele>2388</ele>
        <time>2013-04-14T09:26:07Z</time>
      </trkpt>
      <trkpt lat="42.91839" lon="-0.72528">
        <ele>2388</ele>
        <time>2013-04-14T09:26:14Z</time>
      </trkpt>
      <trkpt lat="42.91836" lon="-0.72525">
        <ele>2388</ele>
        <time>2013-04-14T09:26:27Z</time>
      </trkpt>
      <trkpt lat="42.91836" lon="-0.72524">
        <ele>2389</ele>
        <time>2013-04-14T09:26:33Z</time>
      </trkpt>
      <trkpt lat="42.91836" lon="-0.72525">
        <ele>2389</ele>
        <time>2013-04-14T09:26:44Z</time>
      </trkpt>
      <trkpt lat="42.91836" lon="-0.72524">
        <ele>2390</ele>
        <time>2013-04-14T09:27:08Z</time>
      </trkpt>
      <trkpt lat="42.9183" lon="-0.72521">
        <ele>2390</ele>
        <time>2013-04-14T09:27:27Z</time>
      </trkpt>
      <trkpt lat="42.91828" lon="-0.7252">
        <ele>2391</ele>
        <time>2013-04-14T09:27:40Z</time>
      </trkpt>
      <trkpt lat="42.91829" lon="-0.72517">
        <ele>2391</ele>
        <time>2013-04-14T09:27:44Z</time>
      </trkpt>
      <trkpt lat="42.91831" lon="-0.72506">
        <ele>2391</ele>
        <time>2013-04-14T09:27:55Z</time>
      </trkpt>
      <trkpt lat="42.91831" lon="-0.72502">
        <ele>2393</ele>
        <time>2013-04-14T09:28:01Z</time>
      </trkpt>
      <trkpt lat="42.91832" lon="-0.72493">
        <ele>2391</ele>
        <time>2013-04-14T09:28:14Z</time>
      </trkpt>
      <trkpt lat="42.91832" lon="-0.72487">
        <ele>2396</ele>
        <time>2013-04-14T09:28:22Z</time>
      </trkpt>
      <trkpt lat="42.91832" lon="-0.72486">
        <ele>2396</ele>
        <time>2013-04-14T09:28:23Z</time>
      </trkpt>
      <trkpt lat="42.91832" lon="-0.72484">
        <ele>2398</ele>
        <time>2013-04-14T09:28:27Z</time>
      </trkpt>
      <trkpt lat="42.91833" lon="-0.72475">
        <ele>2397</ele>
        <time>2013-04-14T09:28:41Z</time>
      </trkpt>
      <trkpt lat="42.91834" lon="-0.72469">
        <ele>2395</ele>
        <time>2013-04-14T09:28:58Z</time>
      </trkpt>
      <trkpt lat="42.91835" lon="-0.72468">
        <ele>2398</ele>
        <time>2013-04-14T09:29:06Z</time>
      </trkpt>
      <trkpt lat="42.91835" lon="-0.72468">
        <ele>2398</ele>
        <time>2013-04-14T09:29:07Z</time>
      </trkpt>
      <trkpt lat="42.91835" lon="-0.72464">
        <ele>2400</ele>
        <time>2013-04-14T09:29:11Z</time>
      </trkpt>
      <trkpt lat="42.91836" lon="-0.72459">
        <ele>2401</ele>
        <time>2013-04-14T09:29:17Z</time>
      </trkpt>
      <trkpt lat="42.91836" lon="-0.72457">
        <ele>2402</ele>
        <time>2013-04-14T09:29:20Z</time>
      </trkpt>
      <trkpt lat="42.91839" lon="-0.72442">
        <ele>2402</ele>
        <time>2013-04-14T09:29:35Z</time>
      </trkpt>
      <trkpt lat="42.91842" lon="-0.72429">
        <ele>2402</ele>
        <time>2013-04-14T09:29:50Z</time>
      </trkpt>
      <trkpt lat="42.91842" lon="-0.72415">
        <ele>2404</ele>
        <time>2013-04-14T09:30:05Z</time>
      </trkpt>
      <trkpt lat="42.91844" lon="-0.724">
        <ele>2406</ele>
        <time>2013-04-14T09:30:20Z</time>
      </trkpt>
      <trkpt lat="42.91845" lon="-0.72385">
        <ele>2408</ele>
        <time>2013-04-14T09:30:34Z</time>
      </trkpt>
      <trkpt lat="42.9184" lon="-0.72369">
        <ele>2410</ele>
        <time>2013-04-14T09:30:50Z</time>
      </trkpt>
      <trkpt lat="42.91837" lon="-0.7236">
        <ele>2413</ele>
        <time>2013-04-14T09:31:02Z</time>
      </trkpt>
      <trkpt lat="42.91834" lon="-0.72354">
        <ele>2414</ele>
        <time>2013-04-14T09:31:10Z</time>
      </trkpt>
      <trkpt lat="42.9183" lon="-0.72345">
        <ele>2415</ele>
        <time>2013-04-14T09:31:26Z</time>
      </trkpt>
      <trkpt lat="42.91827" lon="-0.72342">
        <ele>2418</ele>
        <time>2013-04-14T09:31:37Z</time>
      </trkpt>
      <trkpt lat="42.91826" lon="-0.72335">
        <ele>2421</ele>
        <time>2013-04-14T09:31:47Z</time>
      </trkpt>
      <trkpt lat="42.91826" lon="-0.72335">
        <ele>2422</ele>
        <time>2013-04-14T09:31:49Z</time>
      </trkpt>
      <trkpt lat="42.91826" lon="-0.72335">
        <ele>2425</ele>
        <time>2013-04-14T09:31:51Z</time>
      </trkpt>
      <trkpt lat="42.91826" lon="-0.72335">
        <ele>2421</ele>
        <time>2013-04-14T09:31:54Z</time>
      </trkpt>
      <trkpt lat="42.91826" lon="-0.72336">
        <ele>2421</ele>
        <time>2013-04-14T09:31:55Z</time>
      </trkpt>
      <trkpt lat="42.91826" lon="-0.72336">
        <ele>2417</ele>
        <time>2013-04-14T09:32:04Z</time>
      </trkpt>
      <trkpt lat="42.91826" lon="-0.72336">
        <ele>2419</ele>
        <time>2013-04-14T09:32:10Z</time>
      </trkpt>
      <trkpt lat="42.91825" lon="-0.72337">
        <ele>2417</ele>
        <time>2013-04-14T09:32:28Z</time>
      </trkpt>
      <trkpt lat="42.91825" lon="-0.72338">
        <ele>2417</ele>
        <time>2013-04-14T09:32:29Z</time>
      </trkpt>
      <trkpt lat="42.91825" lon="-0.72338">
        <ele>2416</ele>
        <time>2013-04-14T09:32:31Z</time>
      </trkpt>
      <trkpt lat="42.91824" lon="-0.72339">
        <ele>2415</ele>
        <time>2013-04-14T09:32:42Z</time>
      </trkpt>
      <trkpt lat="42.91825" lon="-0.72339">
        <ele>2417</ele>
        <time>2013-04-14T09:32:45Z</time>
      </trkpt>
      <trkpt lat="42.91825" lon="-0.72339">
        <ele>2414</ele>
        <time>2013-04-14T09:32:57Z</time>
      </trkpt>
      <trkpt lat="42.91825" lon="-0.72336">
        <ele>2415</ele>
        <time>2013-04-14T09:33:11Z</time>
      </trkpt>
      <trkpt lat="42.91823" lon="-0.72333">
        <ele>2414</ele>
        <time>2013-04-14T09:33:20Z</time>
      </trkpt>
      <trkpt lat="42.91823" lon="-0.72332">
        <ele>2418</ele>
        <time>2013-04-14T09:33:25Z</time>
      </trkpt>
      <trkpt lat="42.91823" lon="-0.72331">
        <ele>2416</ele>
        <time>2013-04-14T09:33:38Z</time>
      </trkpt>
      <trkpt lat="42.91823" lon="-0.72332">
        <ele>2418</ele>
        <time>2013-04-14T09:33:43Z</time>
      </trkpt>
      <trkpt lat="42.91824" lon="-0.72332">
        <ele>2419</ele>
        <time>2013-04-14T09:33:46Z</time>
      </trkpt>
      <trkpt lat="42.91824" lon="-0.72333">
        <ele>2418</ele>
        <time>2013-04-14T09:33:50Z</time>
      </trkpt>
      <trkpt lat="42.91824" lon="-0.72333">
        <ele>2417</ele>
        <time>2013-04-14T09:33:53Z</time>
      </trkpt>
      <trkpt lat="42.91824" lon="-0.72331">
        <ele>2416</ele>
        <time>2013-04-14T09:34:11Z</time>
      </trkpt>
      <trkpt lat="42.91824" lon="-0.72329">
        <ele>2417</ele>
        <time>2013-04-14T09:34:24Z</time>
      </trkpt>
      <trkpt lat="42.91824" lon="-0.72329">
        <ele>2420</ele>
        <time>2013-04-14T09:34:28Z</time>
      </trkpt>
      <trkpt lat="42.91824" lon="-0.72329">
        <ele>2417</ele>
        <time>2013-04-14T09:34:31Z</time>
      </trkpt>
      <trkpt lat="42.91823" lon="-0.7233">
        <ele>2420</ele>
        <time>2013-04-14T09:35:02Z</time>
      </trkpt>
      <trkpt lat="42.91823" lon="-0.72331">
        <ele>2418</ele>
        <time>2013-04-14T09:35:08Z</time>
      </trkpt>
      <trkpt lat="42.91823" lon="-0.7233">
        <ele>2417</ele>
        <time>2013-04-14T09:35:30Z</time>
      </trkpt>
      <trkpt lat="42.91823" lon="-0.72331">
        <ele>2417</ele>
        <time>2013-04-14T09:35:57Z</time>
      </trkpt>
      <trkpt lat="42.91824" lon="-0.72331">
        <ele>2420</ele>
        <time>2013-04-14T09:36:03Z</time>
      </trkpt>
      <trkpt lat="42.91824" lon="-0.72331">
        <ele>2418</ele>
        <time>2013-04-14T09:36:05Z</time>
      </trkpt>
      <trkpt lat="42.91824" lon="-0.72332">
        <ele>2422</ele>
        <time>2013-04-14T09:36:10Z</time>
      </trkpt>
      <trkpt lat="42.91825" lon="-0.72338">
        <ele>2421</ele>
        <time>2013-04-14T09:36:20Z</time>
      </trkpt>
      <trkpt lat="42.91826" lon="-0.72341">
        <ele>2419</ele>
        <time>2013-04-14T09:36:24Z</time>
      </trkpt>
      <trkpt lat="42.91827" lon="-0.72342">
        <ele>2415</ele>
        <time>2013-04-14T09:36:37Z</time>
      </trkpt>
      <trkpt lat="42.91827" lon="-0.72342">
        <ele>2414</ele>
        <time>2013-04-14T09:36:54Z</time>
      </trkpt>
      <trkpt lat="42.91827" lon="-0.72343">
        <ele>2414</ele>
        <time>2013-04-14T09:37:10Z</time>
      </trkpt>
      <trkpt lat="42.91827" lon="-0.72343">
        <ele>2416</ele>
        <time>2013-04-14T09:37:22Z</time>
      </trkpt>
      <trkpt lat="42.91826" lon="-0.72343">
        <ele>2413</ele>
        <time>2013-04-14T09:37:32Z</time>
      </trkpt>
      <trkpt lat="42.91825" lon="-0.72342">
        <ele>2414</ele>
        <time>2013-04-14T09:37:59Z</time>
      </trkpt>
      <trkpt lat="42.91825" lon="-0.72341">
        <ele>2416</ele>
        <time>2013-04-14T09:38:22Z</time>
      </trkpt>
      <trkpt lat="42.91825" lon="-0.72341">
        <ele>2414</ele>
        <time>2013-04-14T09:38:30Z</time>
      </trkpt>
      <trkpt lat="42.91825" lon="-0.72341">
        <ele>2414</ele>
        <time>2013-04-14T09:39:01Z</time>
      </trkpt>
      <trkpt lat="42.91825" lon="-0.7234">
        <ele>2415</ele>
        <time>2013-04-14T09:39:29Z</time>
      </trkpt>
      <trkpt lat="42.91825" lon="-0.72341">
        <ele>2416</ele>
        <time>2013-04-14T09:39:35Z</time>
      </trkpt>
      <trkpt lat="42.91825" lon="-0.72341">
        <ele>2415</ele>
        <time>2013-04-14T09:39:51Z</time>
      </trkpt>
      <trkpt lat="42.91825" lon="-0.72339">
        <ele>2418</ele>
        <time>2013-04-14T09:40:20Z</time>
      </trkpt>
      <trkpt lat="42.91825" lon="-0.72341">
        <ele>2416</ele>
        <time>2013-04-14T09:40:51Z</time>
      </trkpt>
      <trkpt lat="42.91825" lon="-0.72341">
        <ele>2417</ele>
        <time>2013-04-14T09:41:08Z</time>
      </trkpt>
      <trkpt lat="42.91825" lon="-0.72341">
        <ele>2415</ele>
        <time>2013-04-14T09:41:30Z</time>
      </trkpt>
      <trkpt lat="42.91824" lon="-0.72339">
        <ele>2414</ele>
        <time>2013-04-14T09:41:49Z</time>
      </trkpt>
      <trkpt lat="42.91824" lon="-0.7234">
        <ele>2418</ele>
        <time>2013-04-14T09:42:22Z</time>
      </trkpt>
      <trkpt lat="42.91824" lon="-0.7234">
        <ele>2418</ele>
        <time>2013-04-14T09:42:23Z</time>
      </trkpt>
      <trkpt lat="42.91824" lon="-0.7234">
        <ele>2416</ele>
        <time>2013-04-14T09:42:26Z</time>
      </trkpt>
      <trkpt lat="42.91824" lon="-0.72341">
        <ele>2415</ele>
        <time>2013-04-14T09:42:49Z</time>
      </trkpt>
      <trkpt lat="42.91824" lon="-0.72341">
        <ele>2417</ele>
        <time>2013-04-14T09:42:53Z</time>
      </trkpt>
      <trkpt lat="42.91824" lon="-0.7234">
        <ele>2418</ele>
        <time>2013-04-14T09:43:08Z</time>
      </trkpt>
      <trkpt lat="42.91826" lon="-0.7234">
        <ele>2418</ele>
        <time>2013-04-14T09:43:22Z</time>
      </trkpt>
      <trkpt lat="42.91826" lon="-0.7234">
        <ele>2417</ele>
        <time>2013-04-14T09:43:25Z</time>
      </trkpt>
      <trkpt lat="42.91824" lon="-0.72343">
        <ele>2419</ele>
        <time>2013-04-14T09:44:04Z</time>
      </trkpt>
      <trkpt lat="42.91825" lon="-0.72343">
        <ele>2415</ele>
        <time>2013-04-14T09:44:31Z</time>
      </trkpt>
      <trkpt lat="42.91825" lon="-0.72344">
        <ele>2416</ele>
        <time>2013-04-14T09:44:46Z</time>
      </trkpt>
      <trkpt lat="42.91825" lon="-0.72344">
        <ele>2415</ele>
        <time>2013-04-14T09:44:54Z</time>
      </trkpt>
      <trkpt lat="42.91825" lon="-0.72343">
        <ele>2417</ele>
        <time>2013-04-14T09:45:10Z</time>
      </trkpt>
      <trkpt lat="42.91826" lon="-0.72344">
        <ele>2418</ele>
        <time>2013-04-14T09:45:48Z</time>
      </trkpt>
      <trkpt lat="42.91826" lon="-0.72345">
        <ele>2417</ele>
        <time>2013-04-14T09:46:08Z</time>
      </trkpt>
      <trkpt lat="42.91825" lon="-0.72344">
        <ele>2419</ele>
        <time>2013-04-14T09:46:23Z</time>
      </trkpt>
      <trkpt lat="42.91825" lon="-0.72344">
        <ele>2418</ele>
        <time>2013-04-14T09:46:26Z</time>
      </trkpt>
      <trkpt lat="42.91825" lon="-0.72345">
        <ele>2418</ele>
        <time>2013-04-14T09:46:45Z</time>
      </trkpt>
      <trkpt lat="42.91826" lon="-0.72343">
        <ele>2418</ele>
        <time>2013-04-14T09:47:05Z</time>
      </trkpt>
      <trkpt lat="42.91826" lon="-0.72343">
        <ele>2416</ele>
        <time>2013-04-14T09:47:23Z</time>
      </trkpt>
      <trkpt lat="42.91826" lon="-0.72343">
        <ele>2417</ele>
        <time>2013-04-14T09:47:35Z</time>
      </trkpt>
      <trkpt lat="42.91826" lon="-0.72344">
        <ele>2418</ele>
        <time>2013-04-14T09:47:49Z</time>
      </trkpt>
      <trkpt lat="42.91826" lon="-0.72343">
        <ele>2417</ele>
        <time>2013-04-14T09:47:53Z</time>
      </trkpt>
      <trkpt lat="42.91827" lon="-0.72342">
        <ele>2420</ele>
        <time>2013-04-14T09:48:00Z</time>
      </trkpt>
      <trkpt lat="42.91827" lon="-0.72342">
        <ele>2420</ele>
        <time>2013-04-14T09:48:01Z</time>
      </trkpt>
      <trkpt lat="42.91827" lon="-0.72342">
        <ele>2418</ele>
        <time>2013-04-14T09:48:03Z</time>
      </trkpt>
      <trkpt lat="42.91826" lon="-0.72343">
        <ele>2418</ele>
        <time>2013-04-14T09:48:25Z</time>
      </trkpt>
      <trkpt lat="42.91825" lon="-0.72346">
        <ele>2418</ele>
        <time>2013-04-14T09:48:42Z</time>
      </trkpt>
      <trkpt lat="42.91825" lon="-0.72347">
        <ele>2419</ele>
        <time>2013-04-14T09:48:43Z</time>
      </trkpt>
      <trkpt lat="42.91826" lon="-0.72348">
        <ele>2419</ele>
        <time>2013-04-14T09:48:56Z</time>
      </trkpt>
      <trkpt lat="42.9183" lon="-0.7235">
        <ele>2417</ele>
        <time>2013-04-14T09:48:59Z</time>
      </trkpt>
      <trkpt lat="42.91831" lon="-0.72352">
        <ele>2417</ele>
        <time>2013-04-14T09:49:00Z</time>
      </trkpt>
      <trkpt lat="42.91832" lon="-0.72354">
        <ele>2417</ele>
        <time>2013-04-14T09:49:01Z</time>
      </trkpt>
      <trkpt lat="42.91834" lon="-0.72357">
        <ele>2415</ele>
        <time>2013-04-14T09:49:02Z</time>
      </trkpt>
      <trkpt lat="42.9184" lon="-0.72361">
        <ele>2416</ele>
        <time>2013-04-14T09:49:04Z</time>
      </trkpt>
      <trkpt lat="42.91842" lon="-0.72365">
        <ele>2415</ele>
        <time>2013-04-14T09:49:05Z</time>
      </trkpt>
      <trkpt lat="42.91843" lon="-0.7237">
        <ele>2414</ele>
        <time>2013-04-14T09:49:06Z</time>
      </trkpt>
      <trkpt lat="42.91844" lon="-0.72374">
        <ele>2414</ele>
        <time>2013-04-14T09:49:07Z</time>
      </trkpt>
      <trkpt lat="42.91846" lon="-0.72377">
        <ele>2413</ele>
        <time>2013-04-14T09:49:08Z</time>
      </trkpt>
      <trkpt lat="42.91849" lon="-0.72389">
        <ele>2411</ele>
        <time>2013-04-14T09:49:11Z</time>
      </trkpt>
      <trkpt lat="42.91849" lon="-0.72404">
        <ele>2407</ele>
        <time>2013-04-14T09:49:15Z</time>
      </trkpt>
      <trkpt lat="42.91848" lon="-0.72433">
        <ele>2404</ele>
        <time>2013-04-14T09:49:22Z</time>
      </trkpt>
      <trkpt lat="42.91847" lon="-0.72455">
        <ele>2401</ele>
        <time>2013-04-14T09:49:27Z</time>
      </trkpt>
      <trkpt lat="42.91846" lon="-0.72474">
        <ele>2398</ele>
        <time>2013-04-14T09:49:31Z</time>
      </trkpt>
      <trkpt lat="42.91851" lon="-0.72482">
        <ele>2396</ele>
        <time>2013-04-14T09:49:33Z</time>
      </trkpt>
      <trkpt lat="42.91851" lon="-0.72488">
        <ele>2395</ele>
        <time>2013-04-14T09:49:34Z</time>
      </trkpt>
      <trkpt lat="42.9185" lon="-0.72492">
        <ele>2393</ele>
        <time>2013-04-14T09:49:35Z</time>
      </trkpt>
      <trkpt lat="42.91849" lon="-0.72496">
        <ele>2393</ele>
        <time>2013-04-14T09:49:36Z</time>
      </trkpt>
      <trkpt lat="42.91849" lon="-0.72501">
        <ele>2392</ele>
        <time>2013-04-14T09:49:37Z</time>
      </trkpt>
      <trkpt lat="42.9185" lon="-0.72505">
        <ele>2392</ele>
        <time>2013-04-14T09:49:38Z</time>
      </trkpt>
      <trkpt lat="42.91857" lon="-0.72518">
        <ele>2388</ele>
        <time>2013-04-14T09:49:41Z</time>
      </trkpt>
      <trkpt lat="42.91857" lon="-0.72523">
        <ele>2387</ele>
        <time>2013-04-14T09:49:42Z</time>
      </trkpt>
      <trkpt lat="42.91858" lon="-0.72528">
        <ele>2386</ele>
        <time>2013-04-14T09:49:43Z</time>
      </trkpt>
      <trkpt lat="42.91859" lon="-0.72542">
        <ele>2384</ele>
        <time>2013-04-14T09:49:46Z</time>
      </trkpt>
      <trkpt lat="42.91866" lon="-0.72565">
        <ele>2380</ele>
        <time>2013-04-14T09:49:52Z</time>
      </trkpt>
      <trkpt lat="42.91867" lon="-0.72569">
        <ele>2381</ele>
        <time>2013-04-14T09:49:53Z</time>
      </trkpt>
      <trkpt lat="42.9187" lon="-0.72571">
        <ele>2379</ele>
        <time>2013-04-14T09:49:54Z</time>
      </trkpt>
      <trkpt lat="42.91874" lon="-0.72569">
        <ele>2378</ele>
        <time>2013-04-14T09:49:55Z</time>
      </trkpt>
      <trkpt lat="42.91881" lon="-0.72566">
        <ele>2378</ele>
        <time>2013-04-14T09:49:57Z</time>
      </trkpt>
      <trkpt lat="42.91884" lon="-0.72568">
        <ele>2376</ele>
        <time>2013-04-14T09:49:58Z</time>
      </trkpt>
      <trkpt lat="42.91887" lon="-0.72569">
        <ele>2377</ele>
        <time>2013-04-14T09:49:59Z</time>
      </trkpt>
      <trkpt lat="42.91893" lon="-0.7257">
        <ele>2374</ele>
        <time>2013-04-14T09:50:01Z</time>
      </trkpt>
      <trkpt lat="42.91898" lon="-0.7257">
        <ele>2373</ele>
        <time>2013-04-14T09:50:02Z</time>
      </trkpt>
      <trkpt lat="42.91902" lon="-0.72569">
        <ele>2373</ele>
        <time>2013-04-14T09:50:03Z</time>
      </trkpt>
      <trkpt lat="42.91912" lon="-0.72566">
        <ele>2370</ele>
        <time>2013-04-14T09:50:05Z</time>
      </trkpt>
      <trkpt lat="42.91916" lon="-0.72564">
        <ele>2369</ele>
        <time>2013-04-14T09:50:06Z</time>
      </trkpt>
      <trkpt lat="42.91919" lon="-0.72563">
        <ele>2369</ele>
        <time>2013-04-14T09:50:07Z</time>
      </trkpt>
      <trkpt lat="42.91922" lon="-0.72563">
        <ele>2370</ele>
        <time>2013-04-14T09:50:09Z</time>
      </trkpt>
      <trkpt lat="42.91925" lon="-0.72564">
        <ele>2369</ele>
        <time>2013-04-14T09:50:18Z</time>
      </trkpt>
      <trkpt lat="42.91925" lon="-0.72564">
        <ele>2368</ele>
        <time>2013-04-14T09:50:20Z</time>
      </trkpt>
      <trkpt lat="42.91925" lon="-0.72564">
        <ele>2368</ele>
        <time>2013-04-14T09:50:29Z</time>
      </trkpt>
      <trkpt lat="42.91928" lon="-0.72565">
        <ele>2367</ele>
        <time>2013-04-14T09:50:31Z</time>
      </trkpt>
      <trkpt lat="42.91932" lon="-0.72566">
        <ele>2365</ele>
        <time>2013-04-14T09:50:33Z</time>
      </trkpt>
      <trkpt lat="42.9194" lon="-0.7257">
        <ele>2361</ele>
        <time>2013-04-14T09:50:37Z</time>
      </trkpt>
      <trkpt lat="42.91943" lon="-0.72572">
        <ele>2361</ele>
        <time>2013-04-14T09:50:38Z</time>
      </trkpt>
      <trkpt lat="42.91947" lon="-0.72573">
        <ele>2360</ele>
        <time>2013-04-14T09:50:39Z</time>
      </trkpt>
      <trkpt lat="42.91951" lon="-0.72567">
        <ele>2359</ele>
        <time>2013-04-14T09:50:41Z</time>
      </trkpt>
      <trkpt lat="42.91955" lon="-0.72562">
        <ele>2356</ele>
        <time>2013-04-14T09:50:44Z</time>
      </trkpt>
      <trkpt lat="42.91956" lon="-0.72563">
        <ele>2353</ele>
        <time>2013-04-14T09:50:52Z</time>
      </trkpt>
      <trkpt lat="42.91959" lon="-0.72565">
        <ele>2351</ele>
        <time>2013-04-14T09:51:00Z</time>
      </trkpt>
      <trkpt lat="42.91964" lon="-0.72569">
        <ele>2350</ele>
        <time>2013-04-14T09:51:18Z</time>
      </trkpt>
      <trkpt lat="42.91973" lon="-0.72563">
        <ele>2347</ele>
        <time>2013-04-14T09:51:22Z</time>
      </trkpt>
      <trkpt lat="42.91976" lon="-0.72564">
        <ele>2344</ele>
        <time>2013-04-14T09:51:23Z</time>
      </trkpt>
      <trkpt lat="42.91982" lon="-0.72566">
        <ele>2340</ele>
        <time>2013-04-14T09:51:25Z</time>
      </trkpt>
      <trkpt lat="42.91991" lon="-0.72559">
        <ele>2337</ele>
        <time>2013-04-14T09:51:28Z</time>
      </trkpt>
      <trkpt lat="42.91995" lon="-0.72561">
        <ele>2332</ele>
        <time>2013-04-14T09:51:29Z</time>
      </trkpt>
      <trkpt lat="42.92004" lon="-0.72557">
        <ele>2328</ele>
        <time>2013-04-14T09:51:32Z</time>
      </trkpt>
      <trkpt lat="42.9201" lon="-0.7255">
        <ele>2327</ele>
        <time>2013-04-14T09:51:34Z</time>
      </trkpt>
      <trkpt lat="42.92013" lon="-0.72551">
        <ele>2321</ele>
        <time>2013-04-14T09:51:35Z</time>
      </trkpt>
      <trkpt lat="42.92014" lon="-0.72551">
        <ele>2321</ele>
        <time>2013-04-14T09:51:37Z</time>
      </trkpt>
      <trkpt lat="42.92014" lon="-0.72551">
        <ele>2321</ele>
        <time>2013-04-14T09:51:43Z</time>
      </trkpt>
      <trkpt lat="42.92022" lon="-0.72532">
        <ele>2317</ele>
        <time>2013-04-14T09:51:50Z</time>
      </trkpt>
      <trkpt lat="42.92022" lon="-0.72528">
        <ele>2316</ele>
        <time>2013-04-14T09:51:51Z</time>
      </trkpt>
      <trkpt lat="42.92023" lon="-0.72514">
        <ele>2315</ele>
        <time>2013-04-14T09:51:54Z</time>
      </trkpt>
      <trkpt lat="42.92037" lon="-0.72514">
        <ele>2312</ele>
        <time>2013-04-14T09:51:58Z</time>
      </trkpt>
      <trkpt lat="42.92046" lon="-0.72505">
        <ele>2308</ele>
        <time>2013-04-14T09:52:01Z</time>
      </trkpt>
      <trkpt lat="42.92067" lon="-0.72494">
        <ele>2304</ele>
        <time>2013-04-14T09:52:04Z</time>
      </trkpt>
      <trkpt lat="42.921" lon="-0.72483">
        <ele>2300</ele>
        <time>2013-04-14T09:52:08Z</time>
      </trkpt>
      <trkpt lat="42.92114" lon="-0.72477">
        <ele>2299</ele>
        <time>2013-04-14T09:52:12Z</time>
      </trkpt>
      <trkpt lat="42.92115" lon="-0.72478">
        <ele>2299</ele>
        <time>2013-04-14T09:52:13Z</time>
      </trkpt>
      <trkpt lat="42.92117" lon="-0.72478">
        <ele>2298</ele>
        <time>2013-04-14T09:52:14Z</time>
      </trkpt>
      <trkpt lat="42.92118" lon="-0.72478">
        <ele>2299</ele>
        <time>2013-04-14T09:52:15Z</time>
      </trkpt>
      <trkpt lat="42.9212" lon="-0.72478">
        <ele>2299</ele>
        <time>2013-04-14T09:52:16Z</time>
      </trkpt>
      <trkpt lat="42.92121" lon="-0.72477">
        <ele>2299</ele>
        <time>2013-04-14T09:52:17Z</time>
      </trkpt>
      <trkpt lat="42.92123" lon="-0.72478">
        <ele>2299</ele>
        <time>2013-04-14T09:52:18Z</time>
      </trkpt>
      <trkpt lat="42.92134" lon="-0.72478">
        <ele>2300</ele>
        <time>2013-04-14T09:52:24Z</time>
      </trkpt>
      <trkpt lat="42.92144" lon="-0.72479">
        <ele>2299</ele>
        <time>2013-04-14T09:52:32Z</time>
      </trkpt>
      <trkpt lat="42.92149" lon="-0.72481">
        <ele>2301</ele>
        <time>2013-04-14T09:52:36Z</time>
      </trkpt>
      <trkpt lat="42.92156" lon="-0.72482">
        <ele>2301</ele>
        <time>2013-04-14T09:52:40Z</time>
      </trkpt>
      <trkpt lat="42.92161" lon="-0.72484">
        <ele>2300</ele>
        <time>2013-04-14T09:52:46Z</time>
      </trkpt>
      <trkpt lat="42.92164" lon="-0.72485">
        <ele>2301</ele>
        <time>2013-04-14T09:52:50Z</time>
      </trkpt>
      <trkpt lat="42.92169" lon="-0.72485">
        <ele>2300</ele>
        <time>2013-04-14T09:52:59Z</time>
      </trkpt>
      <trkpt lat="42.92171" lon="-0.72484">
        <ele>2301</ele>
        <time>2013-04-14T09:53:03Z</time>
      </trkpt>
      <trkpt lat="42.92175" lon="-0.72485">
        <ele>2301</ele>
        <time>2013-04-14T09:53:09Z</time>
      </trkpt>
      <trkpt lat="42.92178" lon="-0.72485">
        <ele>2302</ele>
        <time>2013-04-14T09:53:11Z</time>
      </trkpt>
      <trkpt lat="42.92182" lon="-0.72485">
        <ele>2302</ele>
        <time>2013-04-14T09:53:17Z</time>
      </trkpt>
      <trkpt lat="42.92189" lon="-0.72484">
        <ele>2300</ele>
        <time>2013-04-14T09:53:34Z</time>
      </trkpt>
      <trkpt lat="42.92221" lon="-0.72495">
        <ele>2298</ele>
        <time>2013-04-14T09:53:48Z</time>
      </trkpt>
      <trkpt lat="42.92224" lon="-0.72499">
        <ele>2298</ele>
        <time>2013-04-14T09:53:49Z</time>
      </trkpt>
      <trkpt lat="42.92231" lon="-0.72509">
        <ele>2297</ele>
        <time>2013-04-14T09:53:52Z</time>
      </trkpt>
      <trkpt lat="42.92246" lon="-0.72533">
        <ele>2296</ele>
        <time>2013-04-14T09:53:57Z</time>
      </trkpt>
      <trkpt lat="42.92256" lon="-0.72538">
        <ele>2295</ele>
        <time>2013-04-14T09:53:59Z</time>
      </trkpt>
      <trkpt lat="42.92267" lon="-0.72548">
        <ele>2293</ele>
        <time>2013-04-14T09:54:02Z</time>
      </trkpt>
      <trkpt lat="42.92271" lon="-0.72557">
        <ele>2291</ele>
        <time>2013-04-14T09:54:04Z</time>
      </trkpt>
      <trkpt lat="42.92275" lon="-0.72577">
        <ele>2289</ele>
        <time>2013-04-14T09:54:07Z</time>
      </trkpt>
      <trkpt lat="42.9228" lon="-0.72588">
        <ele>2290</ele>
        <time>2013-04-14T09:54:16Z</time>
      </trkpt>
      <trkpt lat="42.92287" lon="-0.72613">
        <ele>2287</ele>
        <time>2013-04-14T09:54:24Z</time>
      </trkpt>
      <trkpt lat="42.92291" lon="-0.72642">
        <ele>2284</ele>
        <time>2013-04-14T09:54:31Z</time>
      </trkpt>
      <trkpt lat="42.92296" lon="-0.72662">
        <ele>2281</ele>
        <time>2013-04-14T09:54:41Z</time>
      </trkpt>
      <trkpt lat="42.92296" lon="-0.72664">
        <ele>2282</ele>
        <time>2013-04-14T09:54:55Z</time>
      </trkpt>
      <trkpt lat="42.92298" lon="-0.72668">
        <ele>2281</ele>
        <time>2013-04-14T09:55:06Z</time>
      </trkpt>
      <trkpt lat="42.92308" lon="-0.72663">
        <ele>2277</ele>
        <time>2013-04-14T09:55:10Z</time>
      </trkpt>
      <trkpt lat="42.92316" lon="-0.72666">
        <ele>2274</ele>
        <time>2013-04-14T09:55:13Z</time>
      </trkpt>
      <trkpt lat="42.92325" lon="-0.72662">
        <ele>2271</ele>
        <time>2013-04-14T09:55:16Z</time>
      </trkpt>
      <trkpt lat="42.92328" lon="-0.72667">
        <ele>2268</ele>
        <time>2013-04-14T09:55:19Z</time>
      </trkpt>
      <trkpt lat="42.92328" lon="-0.72671">
        <ele>2267</ele>
        <time>2013-04-14T09:55:21Z</time>
      </trkpt>
      <trkpt lat="42.92331" lon="-0.72688">
        <ele>2265</ele>
        <time>2013-04-14T09:55:27Z</time>
      </trkpt>
      <trkpt lat="42.92334" lon="-0.72697">
        <ele>2265</ele>
        <time>2013-04-14T09:55:31Z</time>
      </trkpt>
      <trkpt lat="42.92338" lon="-0.72719">
        <ele>2260</ele>
        <time>2013-04-14T09:55:35Z</time>
      </trkpt>
      <trkpt lat="42.9234" lon="-0.72741">
        <ele>2255</ele>
        <time>2013-04-14T09:55:39Z</time>
      </trkpt>
      <trkpt lat="42.92347" lon="-0.72745">
        <ele>2252</ele>
        <time>2013-04-14T09:55:42Z</time>
      </trkpt>
      <trkpt lat="42.92355" lon="-0.72739">
        <ele>2250</ele>
        <time>2013-04-14T09:55:45Z</time>
      </trkpt>
      <trkpt lat="42.92359" lon="-0.72746">
        <ele>2246</ele>
        <time>2013-04-14T09:55:47Z</time>
      </trkpt>
      <trkpt lat="42.92365" lon="-0.72745">
        <ele>2241</ele>
        <time>2013-04-14T09:55:49Z</time>
      </trkpt>
      <trkpt lat="42.92372" lon="-0.72742">
        <ele>2240</ele>
        <time>2013-04-14T09:55:51Z</time>
      </trkpt>
      <trkpt lat="42.92375" lon="-0.7275">
        <ele>2236</ele>
        <time>2013-04-14T09:55:53Z</time>
      </trkpt>
      <trkpt lat="42.92381" lon="-0.72752">
        <ele>2232</ele>
        <time>2013-04-14T09:55:55Z</time>
      </trkpt>
      <trkpt lat="42.92391" lon="-0.7275">
        <ele>2227</ele>
        <time>2013-04-14T09:55:58Z</time>
      </trkpt>
      <trkpt lat="42.92395" lon="-0.72753">
        <ele>2227</ele>
        <time>2013-04-14T09:55:59Z</time>
      </trkpt>
      <trkpt lat="42.92399" lon="-0.72754">
        <ele>2224</ele>
        <time>2013-04-14T09:56:00Z</time>
      </trkpt>
      <trkpt lat="42.92403" lon="-0.72753">
        <ele>2223</ele>
        <time>2013-04-14T09:56:01Z</time>
      </trkpt>
      <trkpt lat="42.92411" lon="-0.72756">
        <ele>2220</ele>
        <time>2013-04-14T09:56:03Z</time>
      </trkpt>
      <trkpt lat="42.92419" lon="-0.72755">
        <ele>2217</ele>
        <time>2013-04-14T09:56:05Z</time>
      </trkpt>
      <trkpt lat="42.9243" lon="-0.72763">
        <ele>2211</ele>
        <time>2013-04-14T09:56:08Z</time>
      </trkpt>
      <trkpt lat="42.92446" lon="-0.72763">
        <ele>2205</ele>
        <time>2013-04-14T09:56:12Z</time>
      </trkpt>
      <trkpt lat="42.92453" lon="-0.72756">
        <ele>2202</ele>
        <time>2013-04-14T09:56:14Z</time>
      </trkpt>
      <trkpt lat="42.92463" lon="-0.72766">
        <ele>2198</ele>
        <time>2013-04-14T09:56:18Z</time>
      </trkpt>
      <trkpt lat="42.92463" lon="-0.72769">
        <ele>2199</ele>
        <time>2013-04-14T09:56:19Z</time>
      </trkpt>
      <trkpt lat="42.92471" lon="-0.72779">
        <ele>2192</ele>
        <time>2013-04-14T09:56:23Z</time>
      </trkpt>
      <trkpt lat="42.92474" lon="-0.72777">
        <ele>2192</ele>
        <time>2013-04-14T09:56:24Z</time>
      </trkpt>
      <trkpt lat="42.92478" lon="-0.72774">
        <ele>2192</ele>
        <time>2013-04-14T09:56:25Z</time>
      </trkpt>
      <trkpt lat="42.92494" lon="-0.72779">
        <ele>2190</ele>
        <time>2013-04-14T09:56:28Z</time>
      </trkpt>
      <trkpt lat="42.925" lon="-0.72782">
        <ele>2188</ele>
        <time>2013-04-14T09:56:29Z</time>
      </trkpt>
      <trkpt lat="42.92513" lon="-0.72791">
        <ele>2184</ele>
        <time>2013-04-14T09:56:31Z</time>
      </trkpt>
      <trkpt lat="42.9252" lon="-0.72794">
        <ele>2182</ele>
        <time>2013-04-14T09:56:32Z</time>
      </trkpt>
      <trkpt lat="42.92531" lon="-0.72798">
        <ele>2181</ele>
        <time>2013-04-14T09:56:34Z</time>
      </trkpt>
      <trkpt lat="42.92539" lon="-0.72804">
        <ele>2180</ele>
        <time>2013-04-14T09:56:36Z</time>
      </trkpt>
      <trkpt lat="42.92543" lon="-0.72804">
        <ele>2179</ele>
        <time>2013-04-14T09:56:37Z</time>
      </trkpt>
      <trkpt lat="42.92552" lon="-0.72805">
        <ele>2177</ele>
        <time>2013-04-14T09:56:40Z</time>
      </trkpt>
      <trkpt lat="42.92557" lon="-0.72809">
        <ele>2177</ele>
        <time>2013-04-14T09:56:51Z</time>
      </trkpt>
      <trkpt lat="42.92557" lon="-0.72809">
        <ele>2178</ele>
        <time>2013-04-14T09:57:20Z</time>
      </trkpt>
      <trkpt lat="42.92556" lon="-0.72809">
        <ele>2178</ele>
        <time>2013-04-14T09:57:43Z</time>
      </trkpt>
      <trkpt lat="42.92556" lon="-0.7281">
        <ele>2177</ele>
        <time>2013-04-14T09:58:14Z</time>
      </trkpt>
      <trkpt lat="42.92556" lon="-0.7281">
        <ele>2179</ele>
        <time>2013-04-14T09:58:39Z</time>
      </trkpt>
      <trkpt lat="42.92558" lon="-0.72811">
        <ele>2178</ele>
        <time>2013-04-14T09:58:46Z</time>
      </trkpt>
      <trkpt lat="42.92576" lon="-0.7281">
        <ele>2176</ele>
        <time>2013-04-14T09:58:54Z</time>
      </trkpt>
      <trkpt lat="42.92593" lon="-0.7279">
        <ele>2178</ele>
        <time>2013-04-14T09:59:03Z</time>
      </trkpt>
      <trkpt lat="42.92599" lon="-0.72778">
        <ele>2174</ele>
        <time>2013-04-14T09:59:07Z</time>
      </trkpt>
      <trkpt lat="42.926" lon="-0.72776">
        <ele>2174</ele>
        <time>2013-04-14T09:59:08Z</time>
      </trkpt>
      <trkpt lat="42.92607" lon="-0.7276">
        <ele>2170</ele>
        <time>2013-04-14T09:59:16Z</time>
      </trkpt>
      <trkpt lat="42.92607" lon="-0.72759">
        <ele>2170</ele>
        <time>2013-04-14T09:59:17Z</time>
      </trkpt>
      <trkpt lat="42.92607" lon="-0.72759">
        <ele>2170</ele>
        <time>2013-04-14T09:59:21Z</time>
      </trkpt>
      <trkpt lat="42.92614" lon="-0.72759">
        <ele>2167</ele>
        <time>2013-04-14T09:59:26Z</time>
      </trkpt>
      <trkpt lat="42.92615" lon="-0.72759">
        <ele>2165</ele>
        <time>2013-04-14T09:59:33Z</time>
      </trkpt>
      <trkpt lat="42.92615" lon="-0.72759">
        <ele>2165</ele>
        <time>2013-04-14T09:59:39Z</time>
      </trkpt>
      <trkpt lat="42.92622" lon="-0.72765">
        <ele>2164</ele>
        <time>2013-04-14T09:59:44Z</time>
      </trkpt>
      <trkpt lat="42.92628" lon="-0.72769">
        <ele>2163</ele>
        <time>2013-04-14T09:59:46Z</time>
      </trkpt>
      <trkpt lat="42.92638" lon="-0.7276">
        <ele>2162</ele>
        <time>2013-04-14T09:59:51Z</time>
      </trkpt>
      <trkpt lat="42.92645" lon="-0.72761">
        <ele>2157</ele>
        <time>2013-04-14T09:59:55Z</time>
      </trkpt>
      <trkpt lat="42.92649" lon="-0.72759">
        <ele>2159</ele>
        <time>2013-04-14T10:00:03Z</time>
      </trkpt>
      <trkpt lat="42.92653" lon="-0.7276">
        <ele>2158</ele>
        <time>2013-04-14T10:00:10Z</time>
      </trkpt>
      <trkpt lat="42.92658" lon="-0.72763">
        <ele>2155</ele>
        <time>2013-04-14T10:00:14Z</time>
      </trkpt>
      <trkpt lat="42.9266" lon="-0.72765">
        <ele>2155</ele>
        <time>2013-04-14T10:00:21Z</time>
      </trkpt>
      <trkpt lat="42.92665" lon="-0.72774">
        <ele>2153</ele>
        <time>2013-04-14T10:00:25Z</time>
      </trkpt>
      <trkpt lat="42.92673" lon="-0.72787">
        <ele>2150</ele>
        <time>2013-04-14T10:00:28Z</time>
      </trkpt>
      <trkpt lat="42.92685" lon="-0.72814">
        <ele>2146</ele>
        <time>2013-04-14T10:00:33Z</time>
      </trkpt>
      <trkpt lat="42.9269" lon="-0.72826">
        <ele>2144</ele>
        <time>2013-04-14T10:00:35Z</time>
      </trkpt>
      <trkpt lat="42.92699" lon="-0.72852">
        <ele>2142</ele>
        <time>2013-04-14T10:00:39Z</time>
      </trkpt>
      <trkpt lat="42.92703" lon="-0.72871">
        <ele>2140</ele>
        <time>2013-04-14T10:00:42Z</time>
      </trkpt>
      <trkpt lat="42.92707" lon="-0.7289">
        <ele>2138</ele>
        <time>2013-04-14T10:00:45Z</time>
      </trkpt>
      <trkpt lat="42.92708" lon="-0.72897">
        <ele>2138</ele>
        <time>2013-04-14T10:00:46Z</time>
      </trkpt>
      <trkpt lat="42.92734" lon="-0.72922">
        <ele>2136</ele>
        <time>2013-04-14T10:00:53Z</time>
      </trkpt>
      <trkpt lat="42.92742" lon="-0.72922">
        <ele>2133</ele>
        <time>2013-04-14T10:00:55Z</time>
      </trkpt>
      <trkpt lat="42.9275" lon="-0.72924">
        <ele>2132</ele>
        <time>2013-04-14T10:00:57Z</time>
      </trkpt>
      <trkpt lat="42.92762" lon="-0.72926">
        <ele>2130</ele>
        <time>2013-04-14T10:01:00Z</time>
      </trkpt>
      <trkpt lat="42.92789" lon="-0.72907">
        <ele>2127</ele>
        <time>2013-04-14T10:01:09Z</time>
      </trkpt>
      <trkpt lat="42.92791" lon="-0.72904">
        <ele>2125</ele>
        <time>2013-04-14T10:01:10Z</time>
      </trkpt>
      <trkpt lat="42.92792" lon="-0.72894">
        <ele>2121</ele>
        <time>2013-04-14T10:01:12Z</time>
      </trkpt>
      <trkpt lat="42.92789" lon="-0.72891">
        <ele>2122</ele>
        <time>2013-04-14T10:01:13Z</time>
      </trkpt>
      <trkpt lat="42.92782" lon="-0.72879">
        <ele>2120</ele>
        <time>2013-04-14T10:01:16Z</time>
      </trkpt>
      <trkpt lat="42.92781" lon="-0.72874">
        <ele>2117</ele>
        <time>2013-04-14T10:01:17Z</time>
      </trkpt>
      <trkpt lat="42.92783" lon="-0.72866">
        <ele>2117</ele>
        <time>2013-04-14T10:01:19Z</time>
      </trkpt>
      <trkpt lat="42.92786" lon="-0.72865">
        <ele>2114</ele>
        <time>2013-04-14T10:01:20Z</time>
      </trkpt>
      <trkpt lat="42.92789" lon="-0.72855">
        <ele>2112</ele>
        <time>2013-04-14T10:01:23Z</time>
      </trkpt>
      <trkpt lat="42.92784" lon="-0.72839">
        <ele>2109</ele>
        <time>2013-04-14T10:01:27Z</time>
      </trkpt>
      <trkpt lat="42.9278" lon="-0.7283">
        <ele>2109</ele>
        <time>2013-04-14T10:01:36Z</time>
      </trkpt>
      <trkpt lat="42.92782" lon="-0.72829">
        <ele>2112</ele>
        <time>2013-04-14T10:01:50Z</time>
      </trkpt>
      <trkpt lat="42.92781" lon="-0.72829">
        <ele>2111</ele>
        <time>2013-04-14T10:01:51Z</time>
      </trkpt>
      <trkpt lat="42.92779" lon="-0.72821">
        <ele>2109</ele>
        <time>2013-04-14T10:01:55Z</time>
      </trkpt>
      <trkpt lat="42.92782" lon="-0.72815">
        <ele>2107</ele>
        <time>2013-04-14T10:01:57Z</time>
      </trkpt>
      <trkpt lat="42.92792" lon="-0.72813">
        <ele>2103</ele>
        <time>2013-04-14T10:02:00Z</time>
      </trkpt>
      <trkpt lat="42.92796" lon="-0.72812">
        <ele>2103</ele>
        <time>2013-04-14T10:02:01Z</time>
      </trkpt>
      <trkpt lat="42.92801" lon="-0.72809">
        <ele>2101</ele>
        <time>2013-04-14T10:02:02Z</time>
      </trkpt>
      <trkpt lat="42.92805" lon="-0.72806">
        <ele>2100</ele>
        <time>2013-04-14T10:02:03Z</time>
      </trkpt>
      <trkpt lat="42.92808" lon="-0.72802">
        <ele>2099</ele>
        <time>2013-04-14T10:02:04Z</time>
      </trkpt>
      <trkpt lat="42.92811" lon="-0.72799">
        <ele>2097</ele>
        <time>2013-04-14T10:02:05Z</time>
      </trkpt>
      <trkpt lat="42.92813" lon="-0.72796">
        <ele>2096</ele>
        <time>2013-04-14T10:02:06Z</time>
      </trkpt>
      <trkpt lat="42.9282" lon="-0.72787">
        <ele>2093</ele>
        <time>2013-04-14T10:02:10Z</time>
      </trkpt>
      <trkpt lat="42.92825" lon="-0.7278">
        <ele>2090</ele>
        <time>2013-04-14T10:02:13Z</time>
      </trkpt>
      <trkpt lat="42.92827" lon="-0.72778">
        <ele>2090</ele>
        <time>2013-04-14T10:02:14Z</time>
      </trkpt>
      <trkpt lat="42.92829" lon="-0.72776">
        <ele>2089</ele>
        <time>2013-04-14T10:02:16Z</time>
      </trkpt>
      <trkpt lat="42.92829" lon="-0.72773">
        <ele>2086</ele>
        <time>2013-04-14T10:02:17Z</time>
      </trkpt>
      <trkpt lat="42.92829" lon="-0.72769">
        <ele>2084</ele>
        <time>2013-04-14T10:02:18Z</time>
      </trkpt>
      <trkpt lat="42.92826" lon="-0.72763">
        <ele>2082</ele>
        <time>2013-04-14T10:02:20Z</time>
      </trkpt>
      <trkpt lat="42.92827" lon="-0.72756">
        <ele>2077</ele>
        <time>2013-04-14T10:02:22Z</time>
      </trkpt>
      <trkpt lat="42.92826" lon="-0.72749">
        <ele>2075</ele>
        <time>2013-04-14T10:02:24Z</time>
      </trkpt>
      <trkpt lat="42.92828" lon="-0.72743">
        <ele>2070</ele>
        <time>2013-04-14T10:02:26Z</time>
      </trkpt>
      <trkpt lat="42.92826" lon="-0.72735">
        <ele>2068</ele>
        <time>2013-04-14T10:02:28Z</time>
      </trkpt>
      <trkpt lat="42.92826" lon="-0.72732">
        <ele>2066</ele>
        <time>2013-04-14T10:02:29Z</time>
      </trkpt>
      <trkpt lat="42.92828" lon="-0.72725">
        <ele>2060</ele>
        <time>2013-04-14T10:02:31Z</time>
      </trkpt>
      <trkpt lat="42.92824" lon="-0.72719">
        <ele>2057</ele>
        <time>2013-04-14T10:02:34Z</time>
      </trkpt>
      <trkpt lat="42.92818" lon="-0.72715">
        <ele>2054</ele>
        <time>2013-04-14T10:02:46Z</time>
      </trkpt>
      <trkpt lat="42.92817" lon="-0.72715">
        <ele>2053</ele>
        <time>2013-04-14T10:02:48Z</time>
      </trkpt>
      <trkpt lat="42.92813" lon="-0.72712">
        <ele>2053</ele>
        <time>2013-04-14T10:03:02Z</time>
      </trkpt>
      <trkpt lat="42.92808" lon="-0.72706">
        <ele>2051</ele>
        <time>2013-04-14T10:03:08Z</time>
      </trkpt>
      <trkpt lat="42.92805" lon="-0.72702">
        <ele>2049</ele>
        <time>2013-04-14T10:03:10Z</time>
      </trkpt>
      <trkpt lat="42.92805" lon="-0.72699">
        <ele>2049</ele>
        <time>2013-04-14T10:03:11Z</time>
      </trkpt>
      <trkpt lat="42.92805" lon="-0.72697">
        <ele>2050</ele>
        <time>2013-04-14T10:03:12Z</time>
      </trkpt>
      <trkpt lat="42.92807" lon="-0.72695">
        <ele>2047</ele>
        <time>2013-04-14T10:03:13Z</time>
      </trkpt>
      <trkpt lat="42.92808" lon="-0.72692">
        <ele>2044</ele>
        <time>2013-04-14T10:03:14Z</time>
      </trkpt>
      <trkpt lat="42.92808" lon="-0.72688">
        <ele>2045</ele>
        <time>2013-04-14T10:03:15Z</time>
      </trkpt>
      <trkpt lat="42.92812" lon="-0.72684">
        <ele>2041</ele>
        <time>2013-04-14T10:03:17Z</time>
      </trkpt>
      <trkpt lat="42.92812" lon="-0.72677">
        <ele>2039</ele>
        <time>2013-04-14T10:03:19Z</time>
      </trkpt>
      <trkpt lat="42.92814" lon="-0.72673">
        <ele>2037</ele>
        <time>2013-04-14T10:03:20Z</time>
      </trkpt>
      <trkpt lat="42.92812" lon="-0.72663">
        <ele>2033</ele>
        <time>2013-04-14T10:03:22Z</time>
      </trkpt>
      <trkpt lat="42.92812" lon="-0.72658">
        <ele>2033</ele>
        <time>2013-04-14T10:03:23Z</time>
      </trkpt>
      <trkpt lat="42.92812" lon="-0.72646">
        <ele>2028</ele>
        <time>2013-04-14T10:03:25Z</time>
      </trkpt>
      <trkpt lat="42.92813" lon="-0.7264">
        <ele>2025</ele>
        <time>2013-04-14T10:03:27Z</time>
      </trkpt>
      <trkpt lat="42.92816" lon="-0.72638">
        <ele>2023</ele>
        <time>2013-04-14T10:03:28Z</time>
      </trkpt>
      <trkpt lat="42.92817" lon="-0.72633">
        <ele>2021</ele>
        <time>2013-04-14T10:03:31Z</time>
      </trkpt>
      <trkpt lat="42.92816" lon="-0.72632">
        <ele>2021</ele>
        <time>2013-04-14T10:03:32Z</time>
      </trkpt>
      <trkpt lat="42.9281" lon="-0.72627">
        <ele>2020</ele>
        <time>2013-04-14T10:03:38Z</time>
      </trkpt>
      <trkpt lat="42.9281" lon="-0.72623">
        <ele>2018</ele>
        <time>2013-04-14T10:03:39Z</time>
      </trkpt>
      <trkpt lat="42.92811" lon="-0.72618">
        <ele>2018</ele>
        <time>2013-04-14T10:03:40Z</time>
      </trkpt>
      <trkpt lat="42.9281" lon="-0.72613">
        <ele>2016</ele>
        <time>2013-04-14T10:03:41Z</time>
      </trkpt>
      <trkpt lat="42.92809" lon="-0.72608">
        <ele>2014</ele>
        <time>2013-04-14T10:03:42Z</time>
      </trkpt>
      <trkpt lat="42.9281" lon="-0.72602">
        <ele>2013</ele>
        <time>2013-04-14T10:03:43Z</time>
      </trkpt>
      <trkpt lat="42.92811" lon="-0.72595">
        <ele>2011</ele>
        <time>2013-04-14T10:03:44Z</time>
      </trkpt>
      <trkpt lat="42.92812" lon="-0.72588">
        <ele>2010</ele>
        <time>2013-04-14T10:03:45Z</time>
      </trkpt>
      <trkpt lat="42.92812" lon="-0.72582">
        <ele>2007</ele>
        <time>2013-04-14T10:03:46Z</time>
      </trkpt>
      <trkpt lat="42.92811" lon="-0.72576">
        <ele>2007</ele>
        <time>2013-04-14T10:03:47Z</time>
      </trkpt>
      <trkpt lat="42.92812" lon="-0.7257">
        <ele>2008</ele>
        <time>2013-04-14T10:03:48Z</time>
      </trkpt>
      <trkpt lat="42.92814" lon="-0.72567">
        <ele>2006</ele>
        <time>2013-04-14T10:03:49Z</time>
      </trkpt>
      <trkpt lat="42.92815" lon="-0.72566">
        <ele>2005</ele>
        <time>2013-04-14T10:03:50Z</time>
      </trkpt>
      <trkpt lat="42.92817" lon="-0.72564">
        <ele>2005</ele>
        <time>2013-04-14T10:03:51Z</time>
      </trkpt>
      <trkpt lat="42.92818" lon="-0.72563">
        <ele>2004</ele>
        <time>2013-04-14T10:03:52Z</time>
      </trkpt>
      <trkpt lat="42.92819" lon="-0.72562">
        <ele>2006</ele>
        <time>2013-04-14T10:04:04Z</time>
      </trkpt>
      <trkpt lat="42.9282" lon="-0.72561">
        <ele>2003</ele>
        <time>2013-04-14T10:04:13Z</time>
      </trkpt>
      <trkpt lat="42.92819" lon="-0.72562">
        <ele>2001</ele>
        <time>2013-04-14T10:04:34Z</time>
      </trkpt>
      <trkpt lat="42.92819" lon="-0.72564">
        <ele>2005</ele>
        <time>2013-04-14T10:04:52Z</time>
      </trkpt>
      <trkpt lat="42.92819" lon="-0.72564">
        <ele>2005</ele>
        <time>2013-04-14T10:04:53Z</time>
      </trkpt>
      <trkpt lat="42.9282" lon="-0.72564">
        <ele>2003</ele>
        <time>2013-04-14T10:04:55Z</time>
      </trkpt>
      <trkpt lat="42.92835" lon="-0.72556">
        <ele>2000</ele>
        <time>2013-04-14T10:05:04Z</time>
      </trkpt>
      <trkpt lat="42.92854" lon="-0.72548">
        <ele>1996</ele>
        <time>2013-04-14T10:05:10Z</time>
      </trkpt>
      <trkpt lat="42.92868" lon="-0.72542">
        <ele>1992</ele>
        <time>2013-04-14T10:05:14Z</time>
      </trkpt>
      <trkpt lat="42.92882" lon="-0.72538">
        <ele>1991</ele>
        <time>2013-04-14T10:05:18Z</time>
      </trkpt>
      <trkpt lat="42.92888" lon="-0.72523">
        <ele>1986</ele>
        <time>2013-04-14T10:05:22Z</time>
      </trkpt>
      <trkpt lat="42.9289" lon="-0.72514">
        <ele>1984</ele>
        <time>2013-04-14T10:05:24Z</time>
      </trkpt>
      <trkpt lat="42.92891" lon="-0.72509">
        <ele>1981</ele>
        <time>2013-04-14T10:05:25Z</time>
      </trkpt>
      <trkpt lat="42.92892" lon="-0.72501">
        <ele>1979</ele>
        <time>2013-04-14T10:05:27Z</time>
      </trkpt>
      <trkpt lat="42.92896" lon="-0.72493">
        <ele>1974</ele>
        <time>2013-04-14T10:05:29Z</time>
      </trkpt>
      <trkpt lat="42.92898" lon="-0.72488">
        <ele>1974</ele>
        <time>2013-04-14T10:05:30Z</time>
      </trkpt>
      <trkpt lat="42.92903" lon="-0.72475">
        <ele>1968</ele>
        <time>2013-04-14T10:05:33Z</time>
      </trkpt>
      <trkpt lat="42.92904" lon="-0.72469">
        <ele>1966</ele>
        <time>2013-04-14T10:05:34Z</time>
      </trkpt>
      <trkpt lat="42.92905" lon="-0.72458">
        <ele>1964</ele>
        <time>2013-04-14T10:05:36Z</time>
      </trkpt>
      <trkpt lat="42.92907" lon="-0.72452">
        <ele>1961</ele>
        <time>2013-04-14T10:05:37Z</time>
      </trkpt>
      <trkpt lat="42.92907" lon="-0.72447">
        <ele>1959</ele>
        <time>2013-04-14T10:05:38Z</time>
      </trkpt>
      <trkpt lat="42.92904" lon="-0.72436">
        <ele>1956</ele>
        <time>2013-04-14T10:05:40Z</time>
      </trkpt>
      <trkpt lat="42.92904" lon="-0.72429">
        <ele>1955</ele>
        <time>2013-04-14T10:05:41Z</time>
      </trkpt>
      <trkpt lat="42.92905" lon="-0.72422">
        <ele>1954</ele>
        <time>2013-04-14T10:05:42Z</time>
      </trkpt>
      <trkpt lat="42.92906" lon="-0.72415">
        <ele>1953</ele>
        <time>2013-04-14T10:05:43Z</time>
      </trkpt>
      <trkpt lat="42.92912" lon="-0.72398">
        <ele>1949</ele>
        <time>2013-04-14T10:05:46Z</time>
      </trkpt>
      <trkpt lat="42.92915" lon="-0.72392">
        <ele>1949</ele>
        <time>2013-04-14T10:05:48Z</time>
      </trkpt>
      <trkpt lat="42.92928" lon="-0.72374">
        <ele>1948</ele>
        <time>2013-04-14T10:05:57Z</time>
      </trkpt>
      <trkpt lat="42.92933" lon="-0.72363">
        <ele>1948</ele>
        <time>2013-04-14T10:06:06Z</time>
      </trkpt>
      <trkpt lat="42.9295" lon="-0.72339">
        <ele>1945</ele>
        <time>2013-04-14T10:06:18Z</time>
      </trkpt>
      <trkpt lat="42.92956" lon="-0.72327">
        <ele>1944</ele>
        <time>2013-04-14T10:06:21Z</time>
      </trkpt>
      <trkpt lat="42.92957" lon="-0.72321">
        <ele>1943</ele>
        <time>2013-04-14T10:06:22Z</time>
      </trkpt>
      <trkpt lat="42.92961" lon="-0.72311">
        <ele>1943</ele>
        <time>2013-04-14T10:06:24Z</time>
      </trkpt>
      <trkpt lat="42.92965" lon="-0.72305">
        <ele>1941</ele>
        <time>2013-04-14T10:06:25Z</time>
      </trkpt>
      <trkpt lat="42.92968" lon="-0.723">
        <ele>1940</ele>
        <time>2013-04-14T10:06:26Z</time>
      </trkpt>
      <trkpt lat="42.92973" lon="-0.72295">
        <ele>1939</ele>
        <time>2013-04-14T10:06:27Z</time>
      </trkpt>
      <trkpt lat="42.92977" lon="-0.72291">
        <ele>1938</ele>
        <time>2013-04-14T10:06:28Z</time>
      </trkpt>
      <trkpt lat="42.92981" lon="-0.72287">
        <ele>1937</ele>
        <time>2013-04-14T10:06:29Z</time>
      </trkpt>
      <trkpt lat="42.92984" lon="-0.72285">
        <ele>1937</ele>
        <time>2013-04-14T10:06:30Z</time>
      </trkpt>
      <trkpt lat="42.92988" lon="-0.72284">
        <ele>1937</ele>
        <time>2013-04-14T10:06:31Z</time>
      </trkpt>
      <trkpt lat="42.92991" lon="-0.72284">
        <ele>1935</ele>
        <time>2013-04-14T10:06:32Z</time>
      </trkpt>
      <trkpt lat="42.92995" lon="-0.72284">
        <ele>1935</ele>
        <time>2013-04-14T10:06:33Z</time>
      </trkpt>
      <trkpt lat="42.93011" lon="-0.7228">
        <ele>1931</ele>
        <time>2013-04-14T10:06:38Z</time>
      </trkpt>
      <trkpt lat="42.93012" lon="-0.72284">
        <ele>1931</ele>
        <time>2013-04-14T10:06:39Z</time>
      </trkpt>
      <trkpt lat="42.93011" lon="-0.72287">
        <ele>1931</ele>
        <time>2013-04-14T10:06:53Z</time>
      </trkpt>
      <trkpt lat="42.9301" lon="-0.72286">
        <ele>1930</ele>
        <time>2013-04-14T10:07:06Z</time>
      </trkpt>
      <trkpt lat="42.93017" lon="-0.72285">
        <ele>1929</ele>
        <time>2013-04-14T10:07:10Z</time>
      </trkpt>
      <trkpt lat="42.93033" lon="-0.72271">
        <ele>1925</ele>
        <time>2013-04-14T10:07:15Z</time>
      </trkpt>
      <trkpt lat="42.93036" lon="-0.72268">
        <ele>1925</ele>
        <time>2013-04-14T10:07:16Z</time>
      </trkpt>
      <trkpt lat="42.93042" lon="-0.72262">
        <ele>1923</ele>
        <time>2013-04-14T10:07:18Z</time>
      </trkpt>
      <trkpt lat="42.93044" lon="-0.72259">
        <ele>1922</ele>
        <time>2013-04-14T10:07:19Z</time>
      </trkpt>
      <trkpt lat="42.93058" lon="-0.72239">
        <ele>1917</ele>
        <time>2013-04-14T10:07:26Z</time>
      </trkpt>
      <trkpt lat="42.93064" lon="-0.72226">
        <ele>1914</ele>
        <time>2013-04-14T10:07:31Z</time>
      </trkpt>
      <trkpt lat="42.93066" lon="-0.72224">
        <ele>1915</ele>
        <time>2013-04-14T10:07:32Z</time>
      </trkpt>
      <trkpt lat="42.93079" lon="-0.722">
        <ele>1911</ele>
        <time>2013-04-14T10:07:39Z</time>
      </trkpt>
      <trkpt lat="42.93093" lon="-0.72176">
        <ele>1907</ele>
        <time>2013-04-14T10:07:47Z</time>
      </trkpt>
      <trkpt lat="42.93094" lon="-0.72173">
        <ele>1907</ele>
        <time>2013-04-14T10:07:48Z</time>
      </trkpt>
      <trkpt lat="42.93106" lon="-0.72144">
        <ele>1904</ele>
        <time>2013-04-14T10:07:57Z</time>
      </trkpt>
      <trkpt lat="42.93114" lon="-0.72115">
        <ele>1903</ele>
        <time>2013-04-14T10:08:05Z</time>
      </trkpt>
      <trkpt lat="42.9313" lon="-0.72086">
        <ele>1897</ele>
        <time>2013-04-14T10:08:10Z</time>
      </trkpt>
      <trkpt lat="42.9315" lon="-0.72064">
        <ele>1895</ele>
        <time>2013-04-14T10:08:16Z</time>
      </trkpt>
      <trkpt lat="42.93155" lon="-0.72055">
        <ele>1894</ele>
        <time>2013-04-14T10:08:21Z</time>
      </trkpt>
      <trkpt lat="42.93164" lon="-0.7205">
        <ele>1892</ele>
        <time>2013-04-14T10:08:26Z</time>
      </trkpt>
      <trkpt lat="42.93178" lon="-0.72031">
        <ele>1891</ele>
        <time>2013-04-14T10:08:36Z</time>
      </trkpt>
      <trkpt lat="42.93188" lon="-0.72014">
        <ele>1889</ele>
        <time>2013-04-14T10:08:43Z</time>
      </trkpt>
      <trkpt lat="42.93206" lon="-0.71991">
        <ele>1888</ele>
        <time>2013-04-14T10:08:53Z</time>
      </trkpt>
      <trkpt lat="42.9322" lon="-0.71973">
        <ele>1886</ele>
        <time>2013-04-14T10:09:01Z</time>
      </trkpt>
      <trkpt lat="42.93233" lon="-0.7194">
        <ele>1883</ele>
        <time>2013-04-14T10:09:13Z</time>
      </trkpt>
      <trkpt lat="42.93236" lon="-0.71932">
        <ele>1882</ele>
        <time>2013-04-14T10:09:15Z</time>
      </trkpt>
      <trkpt lat="42.93242" lon="-0.71904">
        <ele>1879</ele>
        <time>2013-04-14T10:09:21Z</time>
      </trkpt>
      <trkpt lat="42.93245" lon="-0.71886">
        <ele>1878</ele>
        <time>2013-04-14T10:09:24Z</time>
      </trkpt>
      <trkpt lat="42.9325" lon="-0.71858">
        <ele>1874</ele>
        <time>2013-04-14T10:09:30Z</time>
      </trkpt>
      <trkpt lat="42.93255" lon="-0.71824">
        <ele>1871</ele>
        <time>2013-04-14T10:09:38Z</time>
      </trkpt>
      <trkpt lat="42.93255" lon="-0.71813">
        <ele>1867</ele>
        <time>2013-04-14T10:09:40Z</time>
      </trkpt>
      <trkpt lat="42.93259" lon="-0.71796">
        <ele>1866</ele>
        <time>2013-04-14T10:09:43Z</time>
      </trkpt>
      <trkpt lat="42.9327" lon="-0.71774">
        <ele>1862</ele>
        <time>2013-04-14T10:09:48Z</time>
      </trkpt>
      <trkpt lat="42.93275" lon="-0.71765">
        <ele>1861</ele>
        <time>2013-04-14T10:09:50Z</time>
      </trkpt>
      <trkpt lat="42.9329" lon="-0.7174">
        <ele>1857</ele>
        <time>2013-04-14T10:09:56Z</time>
      </trkpt>
      <trkpt lat="42.93297" lon="-0.71728">
        <ele>1855</ele>
        <time>2013-04-14T10:09:59Z</time>
      </trkpt>
      <trkpt lat="42.93324" lon="-0.71695">
        <ele>1852</ele>
        <time>2013-04-14T10:10:09Z</time>
      </trkpt>
      <trkpt lat="42.93341" lon="-0.71675">
        <ele>1848</ele>
        <time>2013-04-14T10:10:14Z</time>
      </trkpt>
      <trkpt lat="42.93359" lon="-0.71653">
        <ele>1844</ele>
        <time>2013-04-14T10:10:19Z</time>
      </trkpt>
      <trkpt lat="42.93366" lon="-0.71645">
        <ele>1842</ele>
        <time>2013-04-14T10:10:21Z</time>
      </trkpt>
      <trkpt lat="42.93384" lon="-0.71626">
        <ele>1839</ele>
        <time>2013-04-14T10:10:26Z</time>
      </trkpt>
      <trkpt lat="42.93404" lon="-0.7161">
        <ele>1835</ele>
        <time>2013-04-14T10:10:31Z</time>
      </trkpt>
      <trkpt lat="42.93423" lon="-0.71593">
        <ele>1832</ele>
        <time>2013-04-14T10:10:37Z</time>
      </trkpt>
      <trkpt lat="42.93437" lon="-0.71583">
        <ele>1830</ele>
        <time>2013-04-14T10:10:41Z</time>
      </trkpt>
      <trkpt lat="42.93464" lon="-0.71554">
        <ele>1829</ele>
        <time>2013-04-14T10:10:53Z</time>
      </trkpt>
      <trkpt lat="42.9349" lon="-0.71528">
        <ele>1828</ele>
        <time>2013-04-14T10:11:07Z</time>
      </trkpt>
      <trkpt lat="42.93509" lon="-0.71511">
        <ele>1825</ele>
        <time>2013-04-14T10:11:14Z</time>
      </trkpt>
      <trkpt lat="42.93511" lon="-0.71509">
        <ele>1824</ele>
        <time>2013-04-14T10:11:15Z</time>
      </trkpt>
      <trkpt lat="42.9352" lon="-0.715">
        <ele>1823</ele>
        <time>2013-04-14T10:11:19Z</time>
      </trkpt>
      <trkpt lat="42.93541" lon="-0.71467">
        <ele>1820</ele>
        <time>2013-04-14T10:11:30Z</time>
      </trkpt>
      <trkpt lat="42.93554" lon="-0.7145">
        <ele>1818</ele>
        <time>2013-04-14T10:11:36Z</time>
      </trkpt>
      <trkpt lat="42.9356" lon="-0.71434">
        <ele>1817</ele>
        <time>2013-04-14T10:11:40Z</time>
      </trkpt>
      <trkpt lat="42.9357" lon="-0.71404">
        <ele>1814</ele>
        <time>2013-04-14T10:11:47Z</time>
      </trkpt>
      <trkpt lat="42.93571" lon="-0.71394">
        <ele>1812</ele>
        <time>2013-04-14T10:11:49Z</time>
      </trkpt>
      <trkpt lat="42.9357" lon="-0.71388">
        <ele>1812</ele>
        <time>2013-04-14T10:11:50Z</time>
      </trkpt>
      <trkpt lat="42.93566" lon="-0.7138">
        <ele>1810</ele>
        <time>2013-04-14T10:11:52Z</time>
      </trkpt>
      <trkpt lat="42.93564" lon="-0.71376">
        <ele>1808</ele>
        <time>2013-04-14T10:11:53Z</time>
      </trkpt>
      <trkpt lat="42.93562" lon="-0.71371">
        <ele>1808</ele>
        <time>2013-04-14T10:11:54Z</time>
      </trkpt>
      <trkpt lat="42.93556" lon="-0.71361">
        <ele>1806</ele>
        <time>2013-04-14T10:11:57Z</time>
      </trkpt>
      <trkpt lat="42.93554" lon="-0.71348">
        <ele>1805</ele>
        <time>2013-04-14T10:12:00Z</time>
      </trkpt>
      <trkpt lat="42.93557" lon="-0.71344">
        <ele>1805</ele>
        <time>2013-04-14T10:12:01Z</time>
      </trkpt>
      <trkpt lat="42.93559" lon="-0.71339">
        <ele>1802</ele>
        <time>2013-04-14T10:12:02Z</time>
      </trkpt>
      <trkpt lat="42.93559" lon="-0.71334">
        <ele>1800</ele>
        <time>2013-04-14T10:12:03Z</time>
      </trkpt>
      <trkpt lat="42.9356" lon="-0.71329">
        <ele>1799</ele>
        <time>2013-04-14T10:12:04Z</time>
      </trkpt>
      <trkpt lat="42.93562" lon="-0.71325">
        <ele>1796</ele>
        <time>2013-04-14T10:12:05Z</time>
      </trkpt>
      <trkpt lat="42.93564" lon="-0.71321">
        <ele>1794</ele>
        <time>2013-04-14T10:12:06Z</time>
      </trkpt>
      <trkpt lat="42.93565" lon="-0.71315">
        <ele>1792</ele>
        <time>2013-04-14T10:12:07Z</time>
      </trkpt>
      <trkpt lat="42.93563" lon="-0.71309">
        <ele>1792</ele>
        <time>2013-04-14T10:12:08Z</time>
      </trkpt>
      <trkpt lat="42.93564" lon="-0.71303">
        <ele>1789</ele>
        <time>2013-04-14T10:12:09Z</time>
      </trkpt>
      <trkpt lat="42.93565" lon="-0.71296">
        <ele>1786</ele>
        <time>2013-04-14T10:12:10Z</time>
      </trkpt>
      <trkpt lat="42.93562" lon="-0.7129">
        <ele>1784</ele>
        <time>2013-04-14T10:12:11Z</time>
      </trkpt>
      <trkpt lat="42.9356" lon="-0.71283">
        <ele>1782</ele>
        <time>2013-04-14T10:12:12Z</time>
      </trkpt>
      <trkpt lat="42.9356" lon="-0.71276">
        <ele>1781</ele>
        <time>2013-04-14T10:12:13Z</time>
      </trkpt>
      <trkpt lat="42.93561" lon="-0.71268">
        <ele>1780</ele>
        <time>2013-04-14T10:12:14Z</time>
      </trkpt>
      <trkpt lat="42.93562" lon="-0.71255">
        <ele>1777</ele>
        <time>2013-04-14T10:12:16Z</time>
      </trkpt>
      <trkpt lat="42.93562" lon="-0.71248">
        <ele>1776</ele>
        <time>2013-04-14T10:12:17Z</time>
      </trkpt>
      <trkpt lat="42.93562" lon="-0.7124">
        <ele>1775</ele>
        <time>2013-04-14T10:12:18Z</time>
      </trkpt>
      <trkpt lat="42.93562" lon="-0.71227">
        <ele>1772</ele>
        <time>2013-04-14T10:12:20Z</time>
      </trkpt>
      <trkpt lat="42.93565" lon="-0.71216">
        <ele>1769</ele>
        <time>2013-04-14T10:12:22Z</time>
      </trkpt>
      <trkpt lat="42.93564" lon="-0.7121">
        <ele>1767</ele>
        <time>2013-04-14T10:12:23Z</time>
      </trkpt>
      <trkpt lat="42.93562" lon="-0.71205">
        <ele>1768</ele>
        <time>2013-04-14T10:12:24Z</time>
      </trkpt>
      <trkpt lat="42.9356" lon="-0.712">
        <ele>1766</ele>
        <time>2013-04-14T10:12:25Z</time>
      </trkpt>
      <trkpt lat="42.93557" lon="-0.71194">
        <ele>1765</ele>
        <time>2013-04-14T10:12:26Z</time>
      </trkpt>
      <trkpt lat="42.93557" lon="-0.71188">
        <ele>1764</ele>
        <time>2013-04-14T10:12:27Z</time>
      </trkpt>
      <trkpt lat="42.93557" lon="-0.71181">
        <ele>1764</ele>
        <time>2013-04-14T10:12:28Z</time>
      </trkpt>
      <trkpt lat="42.93556" lon="-0.71175">
        <ele>1760</ele>
        <time>2013-04-14T10:12:29Z</time>
      </trkpt>
      <trkpt lat="42.93554" lon="-0.71168">
        <ele>1760</ele>
        <time>2013-04-14T10:12:30Z</time>
      </trkpt>
      <trkpt lat="42.93554" lon="-0.71162">
        <ele>1759</ele>
        <time>2013-04-14T10:12:31Z</time>
      </trkpt>
      <trkpt lat="42.93555" lon="-0.71155">
        <ele>1757</ele>
        <time>2013-04-14T10:12:32Z</time>
      </trkpt>
      <trkpt lat="42.93555" lon="-0.71147">
        <ele>1755</ele>
        <time>2013-04-14T10:12:33Z</time>
      </trkpt>
      <trkpt lat="42.93555" lon="-0.7114">
        <ele>1755</ele>
        <time>2013-04-14T10:12:34Z</time>
      </trkpt>
      <trkpt lat="42.93555" lon="-0.71125">
        <ele>1752</ele>
        <time>2013-04-14T10:12:36Z</time>
      </trkpt>
      <trkpt lat="42.93558" lon="-0.71097">
        <ele>1750</ele>
        <time>2013-04-14T10:12:40Z</time>
      </trkpt>
      <trkpt lat="42.93559" lon="-0.71091">
        <ele>1748</ele>
        <time>2013-04-14T10:12:41Z</time>
      </trkpt>
      <trkpt lat="42.9356" lon="-0.71085">
        <ele>1748</ele>
        <time>2013-04-14T10:12:42Z</time>
      </trkpt>
      <trkpt lat="42.93561" lon="-0.71066">
        <ele>1746</ele>
        <time>2013-04-14T10:12:45Z</time>
      </trkpt>
      <trkpt lat="42.93566" lon="-0.71042">
        <ele>1743</ele>
        <time>2013-04-14T10:12:49Z</time>
      </trkpt>
      <trkpt lat="42.93569" lon="-0.71036">
        <ele>1743</ele>
        <time>2013-04-14T10:12:50Z</time>
      </trkpt>
      <trkpt lat="42.93571" lon="-0.7103">
        <ele>1741</ele>
        <time>2013-04-14T10:12:51Z</time>
      </trkpt>
      <trkpt lat="42.93574" lon="-0.71023">
        <ele>1740</ele>
        <time>2013-04-14T10:12:52Z</time>
      </trkpt>
      <trkpt lat="42.93577" lon="-0.71015">
        <ele>1738</ele>
        <time>2013-04-14T10:12:53Z</time>
      </trkpt>
      <trkpt lat="42.93579" lon="-0.71007">
        <ele>1737</ele>
        <time>2013-04-14T10:12:54Z</time>
      </trkpt>
      <trkpt lat="42.93581" lon="-0.70999">
        <ele>1736</ele>
        <time>2013-04-14T10:12:55Z</time>
      </trkpt>
      <trkpt lat="42.93583" lon="-0.70992">
        <ele>1734</ele>
        <time>2013-04-14T10:12:56Z</time>
      </trkpt>
      <trkpt lat="42.93585" lon="-0.70986">
        <ele>1735</ele>
        <time>2013-04-14T10:12:57Z</time>
      </trkpt>
      <trkpt lat="42.93588" lon="-0.7098">
        <ele>1732</ele>
        <time>2013-04-14T10:12:58Z</time>
      </trkpt>
      <trkpt lat="42.93589" lon="-0.70973">
        <ele>1732</ele>
        <time>2013-04-14T10:12:59Z</time>
      </trkpt>
      <trkpt lat="42.9359" lon="-0.70967">
        <ele>1730</ele>
        <time>2013-04-14T10:13:00Z</time>
      </trkpt>
      <trkpt lat="42.93592" lon="-0.70961">
        <ele>1730</ele>
        <time>2013-04-14T10:13:01Z</time>
      </trkpt>
      <trkpt lat="42.93599" lon="-0.70941">
        <ele>1726</ele>
        <time>2013-04-14T10:13:04Z</time>
      </trkpt>
      <trkpt lat="42.93605" lon="-0.70914">
        <ele>1723</ele>
        <time>2013-04-14T10:13:08Z</time>
      </trkpt>
      <trkpt lat="42.93609" lon="-0.70893">
        <ele>1719</ele>
        <time>2013-04-14T10:13:11Z</time>
      </trkpt>
      <trkpt lat="42.93614" lon="-0.70871">
        <ele>1716</ele>
        <time>2013-04-14T10:13:14Z</time>
      </trkpt>
      <trkpt lat="42.93617" lon="-0.70856">
        <ele>1713</ele>
        <time>2013-04-14T10:13:16Z</time>
      </trkpt>
      <trkpt lat="42.93622" lon="-0.70833">
        <ele>1709</ele>
        <time>2013-04-14T10:13:19Z</time>
      </trkpt>
      <trkpt lat="42.93629" lon="-0.70808">
        <ele>1705</ele>
        <time>2013-04-14T10:13:22Z</time>
      </trkpt>
      <trkpt lat="42.93633" lon="-0.7079">
        <ele>1703</ele>
        <time>2013-04-14T10:13:24Z</time>
      </trkpt>
      <trkpt lat="42.93634" lon="-0.70773">
        <ele>1700</ele>
        <time>2013-04-14T10:13:26Z</time>
      </trkpt>
      <trkpt lat="42.93634" lon="-0.70765">
        <ele>1699</ele>
        <time>2013-04-14T10:13:27Z</time>
      </trkpt>
      <trkpt lat="42.93636" lon="-0.70741">
        <ele>1694</ele>
        <time>2013-04-14T10:13:30Z</time>
      </trkpt>
      <trkpt lat="42.93641" lon="-0.70708">
        <ele>1691</ele>
        <time>2013-04-14T10:13:34Z</time>
      </trkpt>
      <trkpt lat="42.93645" lon="-0.70692">
        <ele>1688</ele>
        <time>2013-04-14T10:13:36Z</time>
      </trkpt>
      <trkpt lat="42.93648" lon="-0.70677">
        <ele>1684</ele>
        <time>2013-04-14T10:13:38Z</time>
      </trkpt>
      <trkpt lat="42.9365" lon="-0.7067">
        <ele>1684</ele>
        <time>2013-04-14T10:13:39Z</time>
      </trkpt>
      <trkpt lat="42.93652" lon="-0.70664">
        <ele>1683</ele>
        <time>2013-04-14T10:13:40Z</time>
      </trkpt>
      <trkpt lat="42.93654" lon="-0.70657">
        <ele>1682</ele>
        <time>2013-04-14T10:13:41Z</time>
      </trkpt>
      <trkpt lat="42.93658" lon="-0.70644">
        <ele>1681</ele>
        <time>2013-04-14T10:13:43Z</time>
      </trkpt>
      <trkpt lat="42.93661" lon="-0.70638">
        <ele>1679</ele>
        <time>2013-04-14T10:13:44Z</time>
      </trkpt>
      <trkpt lat="42.93661" lon="-0.70631">
        <ele>1679</ele>
        <time>2013-04-14T10:13:45Z</time>
      </trkpt>
      <trkpt lat="42.93662" lon="-0.70625">
        <ele>1678</ele>
        <time>2013-04-14T10:13:46Z</time>
      </trkpt>
      <trkpt lat="42.93663" lon="-0.70618">
        <ele>1677</ele>
        <time>2013-04-14T10:13:47Z</time>
      </trkpt>
      <trkpt lat="42.93664" lon="-0.70601">
        <ele>1676</ele>
        <time>2013-04-14T10:13:50Z</time>
      </trkpt>
      <trkpt lat="42.93662" lon="-0.70571">
        <ele>1673</ele>
        <time>2013-04-14T10:13:56Z</time>
      </trkpt>
      <trkpt lat="42.93658" lon="-0.70542">
        <ele>1669</ele>
        <time>2013-04-14T10:14:02Z</time>
      </trkpt>
      <trkpt lat="42.93655" lon="-0.70515">
        <ele>1666</ele>
        <time>2013-04-14T10:14:07Z</time>
      </trkpt>
      <trkpt lat="42.93652" lon="-0.70491">
        <ele>1662</ele>
        <time>2013-04-14T10:14:11Z</time>
      </trkpt>
      <trkpt lat="42.93652" lon="-0.70484">
        <ele>1661</ele>
        <time>2013-04-14T10:14:12Z</time>
      </trkpt>
      <trkpt lat="42.93656" lon="-0.70452">
        <ele>1657</ele>
        <time>2013-04-14T10:14:17Z</time>
      </trkpt>
      <trkpt lat="42.93658" lon="-0.70431">
        <ele>1654</ele>
        <time>2013-04-14T10:14:20Z</time>
      </trkpt>
      <trkpt lat="42.9366" lon="-0.70401">
        <ele>1650</ele>
        <time>2013-04-14T10:14:24Z</time>
      </trkpt>
      <trkpt lat="42.93663" lon="-0.70374">
        <ele>1646</ele>
        <time>2013-04-14T10:14:28Z</time>
      </trkpt>
      <trkpt lat="42.93665" lon="-0.70361">
        <ele>1645</ele>
        <time>2013-04-14T10:14:30Z</time>
      </trkpt>
      <trkpt lat="42.9367" lon="-0.70334">
        <ele>1641</ele>
        <time>2013-04-14T10:14:34Z</time>
      </trkpt>
      <trkpt lat="42.93675" lon="-0.70312">
        <ele>1636</ele>
        <time>2013-04-14T10:14:37Z</time>
      </trkpt>
      <trkpt lat="42.93679" lon="-0.70288">
        <ele>1632</ele>
        <time>2013-04-14T10:14:40Z</time>
      </trkpt>
      <trkpt lat="42.9368" lon="-0.70272">
        <ele>1630</ele>
        <time>2013-04-14T10:14:42Z</time>
      </trkpt>
      <trkpt lat="42.93684" lon="-0.7025">
        <ele>1626</ele>
        <time>2013-04-14T10:14:45Z</time>
      </trkpt>
      <trkpt lat="42.93689" lon="-0.70231">
        <ele>1624</ele>
        <time>2013-04-14T10:14:48Z</time>
      </trkpt>
      <trkpt lat="42.93695" lon="-0.70215">
        <ele>1622</ele>
        <time>2013-04-14T10:14:51Z</time>
      </trkpt>
      <trkpt lat="42.93698" lon="-0.70201">
        <ele>1620</ele>
        <time>2013-04-14T10:14:54Z</time>
      </trkpt>
      <trkpt lat="42.93704" lon="-0.70158">
        <ele>1619</ele>
        <time>2013-04-14T10:15:07Z</time>
      </trkpt>
      <trkpt lat="42.93707" lon="-0.70131">
        <ele>1616</ele>
        <time>2013-04-14T10:15:13Z</time>
      </trkpt>
      <trkpt lat="42.93711" lon="-0.70107">
        <ele>1613</ele>
        <time>2013-04-14T10:15:17Z</time>
      </trkpt>
      <trkpt lat="42.93712" lon="-0.70084">
        <ele>1611</ele>
        <time>2013-04-14T10:15:21Z</time>
      </trkpt>
      <trkpt lat="42.93725" lon="-0.7004">
        <ele>1607</ele>
        <time>2013-04-14T10:15:33Z</time>
      </trkpt>
      <trkpt lat="42.93733" lon="-0.70011">
        <ele>1605</ele>
        <time>2013-04-14T10:15:40Z</time>
      </trkpt>
      <trkpt lat="42.93734" lon="-0.70008">
        <ele>1605</ele>
        <time>2013-04-14T10:15:41Z</time>
      </trkpt>
      <trkpt lat="42.93739" lon="-0.69987">
        <ele>1602</ele>
        <time>2013-04-14T10:15:46Z</time>
      </trkpt>
      <trkpt lat="42.93746" lon="-0.69962">
        <ele>1598</ele>
        <time>2013-04-14T10:15:52Z</time>
      </trkpt>
      <trkpt lat="42.93747" lon="-0.69957">
        <ele>1599</ele>
        <time>2013-04-14T10:15:53Z</time>
      </trkpt>
      <trkpt lat="42.93752" lon="-0.69917">
        <ele>1595</ele>
        <time>2013-04-14T10:16:04Z</time>
      </trkpt>
      <trkpt lat="42.93752" lon="-0.69912">
        <ele>1595</ele>
        <time>2013-04-14T10:16:05Z</time>
      </trkpt>
      <trkpt lat="42.93755" lon="-0.69895">
        <ele>1591</ele>
        <time>2013-04-14T10:16:08Z</time>
      </trkpt>
      <trkpt lat="42.93756" lon="-0.69881">
        <ele>1590</ele>
        <time>2013-04-14T10:16:10Z</time>
      </trkpt>
      <trkpt lat="42.93763" lon="-0.6986">
        <ele>1586</ele>
        <time>2013-04-14T10:16:14Z</time>
      </trkpt>
      <trkpt lat="42.93764" lon="-0.69856">
        <ele>1587</ele>
        <time>2013-04-14T10:16:15Z</time>
      </trkpt>
      <trkpt lat="42.93769" lon="-0.69837">
        <ele>1583</ele>
        <time>2013-04-14T10:16:19Z</time>
      </trkpt>
      <trkpt lat="42.93776" lon="-0.69813">
        <ele>1583</ele>
        <time>2013-04-14T10:16:30Z</time>
      </trkpt>
      <trkpt lat="42.93777" lon="-0.69806">
        <ele>1585</ele>
        <time>2013-04-14T10:16:37Z</time>
      </trkpt>
      <trkpt lat="42.93778" lon="-0.69797">
        <ele>1584</ele>
        <time>2013-04-14T10:16:49Z</time>
      </trkpt>
      <trkpt lat="42.93774" lon="-0.69796">
        <ele>1582</ele>
        <time>2013-04-14T10:17:11Z</time>
      </trkpt>
      <trkpt lat="42.93773" lon="-0.69796">
        <ele>1583</ele>
        <time>2013-04-14T10:17:36Z</time>
      </trkpt>
      <trkpt lat="42.93776" lon="-0.69791">
        <ele>1582</ele>
        <time>2013-04-14T10:17:55Z</time>
      </trkpt>
      <trkpt lat="42.9378" lon="-0.69771">
        <ele>1579</ele>
        <time>2013-04-14T10:18:02Z</time>
      </trkpt>
      <trkpt lat="42.9378" lon="-0.6973">
        <ele>1575</ele>
        <time>2013-04-14T10:18:12Z</time>
      </trkpt>
      <trkpt lat="42.93779" lon="-0.69725">
        <ele>1575</ele>
        <time>2013-04-14T10:18:13Z</time>
      </trkpt>
      <trkpt lat="42.93775" lon="-0.69693">
        <ele>1572</ele>
        <time>2013-04-14T10:18:20Z</time>
      </trkpt>
      <trkpt lat="42.93771" lon="-0.69673">
        <ele>1570</ele>
        <time>2013-04-14T10:18:25Z</time>
      </trkpt>
      <trkpt lat="42.9377" lon="-0.69644">
        <ele>1566</ele>
        <time>2013-04-14T10:18:32Z</time>
      </trkpt>
      <trkpt lat="42.93771" lon="-0.69635">
        <ele>1566</ele>
        <time>2013-04-14T10:18:34Z</time>
      </trkpt>
      <trkpt lat="42.93771" lon="-0.69615">
        <ele>1563</ele>
        <time>2013-04-14T10:18:38Z</time>
      </trkpt>
      <trkpt lat="42.93773" lon="-0.69598">
        <ele>1561</ele>
        <time>2013-04-14T10:18:41Z</time>
      </trkpt>
      <trkpt lat="42.93774" lon="-0.69593">
        <ele>1560</ele>
        <time>2013-04-14T10:18:42Z</time>
      </trkpt>
      <trkpt lat="42.93781" lon="-0.6957">
        <ele>1558</ele>
        <time>2013-04-14T10:18:47Z</time>
      </trkpt>
      <trkpt lat="42.93798" lon="-0.69531">
        <ele>1555</ele>
        <time>2013-04-14T10:18:56Z</time>
      </trkpt>
      <trkpt lat="42.93811" lon="-0.69507">
        <ele>1552</ele>
        <time>2013-04-14T10:19:02Z</time>
      </trkpt>
      <trkpt lat="42.93838" lon="-0.69467">
        <ele>1550</ele>
        <time>2013-04-14T10:19:14Z</time>
      </trkpt>
      <trkpt lat="42.93846" lon="-0.69454">
        <ele>1547</ele>
        <time>2013-04-14T10:19:19Z</time>
      </trkpt>
      <trkpt lat="42.93861" lon="-0.69413">
        <ele>1544</ele>
        <time>2013-04-14T10:19:31Z</time>
      </trkpt>
      <trkpt lat="42.93873" lon="-0.69374">
        <ele>1541</ele>
        <time>2013-04-14T10:19:41Z</time>
      </trkpt>
      <trkpt lat="42.93876" lon="-0.69359">
        <ele>1539</ele>
        <time>2013-04-14T10:19:45Z</time>
      </trkpt>
      <trkpt lat="42.9388" lon="-0.69341">
        <ele>1537</ele>
        <time>2013-04-14T10:19:50Z</time>
      </trkpt>
      <trkpt lat="42.93891" lon="-0.69336">
        <ele>1532</ele>
        <time>2013-04-14T10:19:54Z</time>
      </trkpt>
      <trkpt lat="42.93898" lon="-0.69329">
        <ele>1530</ele>
        <time>2013-04-14T10:19:57Z</time>
      </trkpt>
      <trkpt lat="42.93901" lon="-0.6933">
        <ele>1526</ele>
        <time>2013-04-14T10:19:58Z</time>
      </trkpt>
      <trkpt lat="42.93906" lon="-0.69325">
        <ele>1523</ele>
        <time>2013-04-14T10:20:00Z</time>
      </trkpt>
      <trkpt lat="42.93908" lon="-0.69317">
        <ele>1520</ele>
        <time>2013-04-14T10:20:02Z</time>
      </trkpt>
      <trkpt lat="42.93913" lon="-0.69312">
        <ele>1519</ele>
        <time>2013-04-14T10:20:04Z</time>
      </trkpt>
      <trkpt lat="42.93918" lon="-0.69318">
        <ele>1515</ele>
        <time>2013-04-14T10:20:06Z</time>
      </trkpt>
      <trkpt lat="42.93925" lon="-0.6932">
        <ele>1511</ele>
        <time>2013-04-14T10:20:09Z</time>
      </trkpt>
      <trkpt lat="42.93932" lon="-0.69317">
        <ele>1510</ele>
        <time>2013-04-14T10:20:11Z</time>
      </trkpt>
      <trkpt lat="42.93936" lon="-0.69319">
        <ele>1506</ele>
        <time>2013-04-14T10:20:12Z</time>
      </trkpt>
      <trkpt lat="42.93945" lon="-0.6932">
        <ele>1501</ele>
        <time>2013-04-14T10:20:15Z</time>
      </trkpt>
      <trkpt lat="42.93948" lon="-0.6932">
        <ele>1502</ele>
        <time>2013-04-14T10:20:16Z</time>
      </trkpt>
      <trkpt lat="42.9395" lon="-0.69322">
        <ele>1498</ele>
        <time>2013-04-14T10:20:17Z</time>
      </trkpt>
      <trkpt lat="42.93958" lon="-0.69331">
        <ele>1495</ele>
        <time>2013-04-14T10:20:20Z</time>
      </trkpt>
      <trkpt lat="42.93964" lon="-0.69323">
        <ele>1491</ele>
        <time>2013-04-14T10:20:23Z</time>
      </trkpt>
      <trkpt lat="42.93968" lon="-0.69311">
        <ele>1489</ele>
        <time>2013-04-14T10:20:26Z</time>
      </trkpt>
      <trkpt lat="42.93971" lon="-0.69306">
        <ele>1488</ele>
        <time>2013-04-14T10:20:28Z</time>
      </trkpt>
      <trkpt lat="42.9398" lon="-0.69301">
        <ele>1482</ele>
        <time>2013-04-14T10:20:32Z</time>
      </trkpt>
      <trkpt lat="42.93985" lon="-0.69297">
        <ele>1479</ele>
        <time>2013-04-14T10:20:34Z</time>
      </trkpt>
      <trkpt lat="42.93985" lon="-0.69293">
        <ele>1479</ele>
        <time>2013-04-14T10:20:35Z</time>
      </trkpt>
      <trkpt lat="42.9399" lon="-0.69276">
        <ele>1474</ele>
        <time>2013-04-14T10:20:41Z</time>
      </trkpt>
      <trkpt lat="42.93991" lon="-0.69272">
        <ele>1473</ele>
        <time>2013-04-14T10:20:43Z</time>
      </trkpt>
      <trkpt lat="42.93997" lon="-0.69267">
        <ele>1469</ele>
        <time>2013-04-14T10:20:46Z</time>
      </trkpt>
      <trkpt lat="42.94002" lon="-0.69264">
        <ele>1465</ele>
        <time>2013-04-14T10:20:49Z</time>
      </trkpt>
      <trkpt lat="42.94002" lon="-0.69263">
        <ele>1465</ele>
        <time>2013-04-14T10:20:50Z</time>
      </trkpt>
      <trkpt lat="42.94002" lon="-0.69261">
        <ele>1465</ele>
        <time>2013-04-14T10:20:51Z</time>
      </trkpt>
      <trkpt lat="42.94005" lon="-0.69251">
        <ele>1463</ele>
        <time>2013-04-14T10:20:54Z</time>
      </trkpt>
      <trkpt lat="42.94009" lon="-0.69237">
        <ele>1460</ele>
        <time>2013-04-14T10:20:58Z</time>
      </trkpt>
      <trkpt lat="42.94011" lon="-0.69232">
        <ele>1457</ele>
        <time>2013-04-14T10:21:05Z</time>
      </trkpt>
      <trkpt lat="42.94011" lon="-0.69231">
        <ele>1457</ele>
        <time>2013-04-14T10:21:07Z</time>
      </trkpt>
      <trkpt lat="42.94015" lon="-0.69226">
        <ele>1456</ele>
        <time>2013-04-14T10:21:12Z</time>
      </trkpt>
      <trkpt lat="42.94018" lon="-0.69224">
        <ele>1454</ele>
        <time>2013-04-14T10:21:21Z</time>
      </trkpt>
      <trkpt lat="42.94026" lon="-0.69225">
        <ele>1451</ele>
        <time>2013-04-14T10:21:26Z</time>
      </trkpt>
      <trkpt lat="42.94027" lon="-0.69225">
        <ele>1451</ele>
        <time>2013-04-14T10:21:27Z</time>
      </trkpt>
      <trkpt lat="42.94028" lon="-0.69223">
        <ele>1449</ele>
        <time>2013-04-14T10:21:40Z</time>
      </trkpt>
      <trkpt lat="42.94031" lon="-0.69219">
        <ele>1449</ele>
        <time>2013-04-14T10:22:01Z</time>
      </trkpt>
      <trkpt lat="42.94035" lon="-0.69219">
        <ele>1447</ele>
        <time>2013-04-14T10:22:22Z</time>
      </trkpt>
      <trkpt lat="42.94036" lon="-0.69216">
        <ele>1446</ele>
        <time>2013-04-14T10:22:25Z</time>
      </trkpt>
      <trkpt lat="42.94039" lon="-0.69212">
        <ele>1446</ele>
        <time>2013-04-14T10:22:29Z</time>
      </trkpt>
      <trkpt lat="42.94043" lon="-0.69211">
        <ele>1445</ele>
        <time>2013-04-14T10:22:31Z</time>
      </trkpt>
      <trkpt lat="42.94051" lon="-0.69205">
        <ele>1441</ele>
        <time>2013-04-14T10:22:37Z</time>
      </trkpt>
      <trkpt lat="42.94054" lon="-0.692">
        <ele>1439</ele>
        <time>2013-04-14T10:22:39Z</time>
      </trkpt>
      <trkpt lat="42.94057" lon="-0.69192">
        <ele>1437</ele>
        <time>2013-04-14T10:22:41Z</time>
      </trkpt>
      <trkpt lat="42.94062" lon="-0.69178">
        <ele>1434</ele>
        <time>2013-04-14T10:22:48Z</time>
      </trkpt>
      <trkpt lat="42.94067" lon="-0.69165">
        <ele>1431</ele>
        <time>2013-04-14T10:22:51Z</time>
      </trkpt>
      <trkpt lat="42.94069" lon="-0.69162">
        <ele>1431</ele>
        <time>2013-04-14T10:22:52Z</time>
      </trkpt>
      <trkpt lat="42.94073" lon="-0.69157">
        <ele>1429</ele>
        <time>2013-04-14T10:22:54Z</time>
      </trkpt>
      <trkpt lat="42.94086" lon="-0.69149">
        <ele>1425</ele>
        <time>2013-04-14T10:22:58Z</time>
      </trkpt>
      <trkpt lat="42.94087" lon="-0.69146">
        <ele>1425</ele>
        <time>2013-04-14T10:22:59Z</time>
      </trkpt>
      <trkpt lat="42.94089" lon="-0.69139">
        <ele>1423</ele>
        <time>2013-04-14T10:23:01Z</time>
      </trkpt>
      <trkpt lat="42.94093" lon="-0.69134">
        <ele>1422</ele>
        <time>2013-04-14T10:23:03Z</time>
      </trkpt>
      <trkpt lat="42.941" lon="-0.69131">
        <ele>1419</ele>
        <time>2013-04-14T10:23:05Z</time>
      </trkpt>
      <trkpt lat="42.94104" lon="-0.69129">
        <ele>1419</ele>
        <time>2013-04-14T10:23:06Z</time>
      </trkpt>
      <trkpt lat="42.94114" lon="-0.69125">
        <ele>1415</ele>
        <time>2013-04-14T10:23:08Z</time>
      </trkpt>
      <trkpt lat="42.94119" lon="-0.69122">
        <ele>1413</ele>
        <time>2013-04-14T10:23:09Z</time>
      </trkpt>
      <trkpt lat="42.94123" lon="-0.6912">
        <ele>1411</ele>
        <time>2013-04-14T10:23:10Z</time>
      </trkpt>
      <trkpt lat="42.94127" lon="-0.6912">
        <ele>1409</ele>
        <time>2013-04-14T10:23:11Z</time>
      </trkpt>
      <trkpt lat="42.94129" lon="-0.69117">
        <ele>1408</ele>
        <time>2013-04-14T10:23:12Z</time>
      </trkpt>
      <trkpt lat="42.9413" lon="-0.69115">
        <ele>1407</ele>
        <time>2013-04-14T10:23:13Z</time>
      </trkpt>
      <trkpt lat="42.94132" lon="-0.69114">
        <ele>1407</ele>
        <time>2013-04-14T10:23:14Z</time>
      </trkpt>
      <trkpt lat="42.94134" lon="-0.69112">
        <ele>1406</ele>
        <time>2013-04-14T10:23:25Z</time>
      </trkpt>
      <trkpt lat="42.94137" lon="-0.69106">
        <ele>1406</ele>
        <time>2013-04-14T10:23:34Z</time>
      </trkpt>
      <trkpt lat="42.94138" lon="-0.69107">
        <ele>1406</ele>
        <time>2013-04-14T10:23:44Z</time>
      </trkpt>
      <trkpt lat="42.94139" lon="-0.69106">
        <ele>1405</ele>
        <time>2013-04-14T10:23:45Z</time>
      </trkpt>
      <trkpt lat="42.9414" lon="-0.69105">
        <ele>1404</ele>
        <time>2013-04-14T10:23:46Z</time>
      </trkpt>
      <trkpt lat="42.94141" lon="-0.69102">
        <ele>1404</ele>
        <time>2013-04-14T10:23:47Z</time>
      </trkpt>
      <trkpt lat="42.94142" lon="-0.691">
        <ele>1403</ele>
        <time>2013-04-14T10:23:48Z</time>
      </trkpt>
      <trkpt lat="42.94149" lon="-0.69089">
        <ele>1402</ele>
        <time>2013-04-14T10:23:59Z</time>
      </trkpt>
      <trkpt lat="42.9415" lon="-0.69084">
        <ele>1401</ele>
        <time>2013-04-14T10:24:03Z</time>
      </trkpt>
      <trkpt lat="42.9415" lon="-0.69082">
        <ele>1401</ele>
        <time>2013-04-14T10:24:04Z</time>
      </trkpt>
      <trkpt lat="42.94151" lon="-0.69073">
        <ele>1399</ele>
        <time>2013-04-14T10:24:10Z</time>
      </trkpt>
      <trkpt lat="42.9415" lon="-0.6907">
        <ele>1400</ele>
        <time>2013-04-14T10:24:11Z</time>
      </trkpt>
      <trkpt lat="42.94151" lon="-0.69053">
        <ele>1398</ele>
        <time>2013-04-14T10:24:17Z</time>
      </trkpt>
      <trkpt lat="42.94152" lon="-0.69051">
        <ele>1397</ele>
        <time>2013-04-14T10:24:18Z</time>
      </trkpt>
      <trkpt lat="42.94153" lon="-0.69047">
        <ele>1396</ele>
        <time>2013-04-14T10:24:19Z</time>
      </trkpt>
      <trkpt lat="42.94154" lon="-0.69045">
        <ele>1397</ele>
        <time>2013-04-14T10:24:20Z</time>
      </trkpt>
      <trkpt lat="42.94156" lon="-0.69025">
        <ele>1394</ele>
        <time>2013-04-14T10:24:30Z</time>
      </trkpt>
      <trkpt lat="42.94156" lon="-0.69019">
        <ele>1393</ele>
        <time>2013-04-14T10:24:32Z</time>
      </trkpt>
      <trkpt lat="42.9416" lon="-0.6899">
        <ele>1388</ele>
        <time>2013-04-14T10:24:39Z</time>
      </trkpt>
      <trkpt lat="42.94161" lon="-0.68987">
        <ele>1388</ele>
        <time>2013-04-14T10:24:40Z</time>
      </trkpt>
      <trkpt lat="42.94162" lon="-0.68975">
        <ele>1386</ele>
        <time>2013-04-14T10:24:45Z</time>
      </trkpt>
      <trkpt lat="42.94163" lon="-0.68964">
        <ele>1386</ele>
        <time>2013-04-14T10:24:50Z</time>
      </trkpt>
      <trkpt lat="42.94165" lon="-0.68941">
        <ele>1385</ele>
        <time>2013-04-14T10:25:02Z</time>
      </trkpt>
      <trkpt lat="42.94165" lon="-0.68931">
        <ele>1385</ele>
        <time>2013-04-14T10:25:16Z</time>
      </trkpt>
      <trkpt lat="42.94176" lon="-0.68907">
        <ele>1382</ele>
        <time>2013-04-14T10:25:23Z</time>
      </trkpt>
      <trkpt lat="42.94186" lon="-0.6889">
        <ele>1378</ele>
        <time>2013-04-14T10:25:28Z</time>
      </trkpt>
      <trkpt lat="42.9419" lon="-0.68877">
        <ele>1375</ele>
        <time>2013-04-14T10:25:31Z</time>
      </trkpt>
      <trkpt lat="42.9419" lon="-0.68851">
        <ele>1373</ele>
        <time>2013-04-14T10:25:43Z</time>
      </trkpt>
      <trkpt lat="42.94193" lon="-0.68843">
        <ele>1370</ele>
        <time>2013-04-14T10:25:47Z</time>
      </trkpt>
      <trkpt lat="42.94193" lon="-0.68841">
        <ele>1370</ele>
        <time>2013-04-14T10:25:48Z</time>
      </trkpt>
      <trkpt lat="42.94196" lon="-0.68817">
        <ele>1368</ele>
        <time>2013-04-14T10:26:03Z</time>
      </trkpt>
      <trkpt lat="42.94198" lon="-0.68805">
        <ele>1366</ele>
        <time>2013-04-14T10:26:07Z</time>
      </trkpt>
      <trkpt lat="42.94208" lon="-0.68782">
        <ele>1366</ele>
        <time>2013-04-14T10:26:15Z</time>
      </trkpt>
      <trkpt lat="42.94207" lon="-0.68775">
        <ele>1364</ele>
        <time>2013-04-14T10:26:17Z</time>
      </trkpt>
      <trkpt lat="42.94206" lon="-0.68741">
        <ele>1362</ele>
        <time>2013-04-14T10:26:28Z</time>
      </trkpt>
      <trkpt lat="42.94203" lon="-0.68723">
        <ele>1361</ele>
        <time>2013-04-14T10:26:41Z</time>
      </trkpt>
      <trkpt lat="42.94201" lon="-0.68724">
        <ele>1362</ele>
        <time>2013-04-14T10:27:03Z</time>
      </trkpt>
      <trkpt lat="42.94206" lon="-0.68714">
        <ele>1363</ele>
        <time>2013-04-14T10:27:26Z</time>
      </trkpt>
      <trkpt lat="42.94205" lon="-0.68709">
        <ele>1362</ele>
        <time>2013-04-14T10:27:41Z</time>
      </trkpt>
      <trkpt lat="42.94211" lon="-0.68702">
        <ele>1360</ele>
        <time>2013-04-14T10:27:53Z</time>
      </trkpt>
      <trkpt lat="42.94219" lon="-0.68694">
        <ele>1360</ele>
        <time>2013-04-14T10:28:06Z</time>
      </trkpt>
      <trkpt lat="42.94221" lon="-0.68696">
        <ele>1359</ele>
        <time>2013-04-14T10:28:25Z</time>
      </trkpt>
      <trkpt lat="42.94229" lon="-0.68696">
        <ele>1359</ele>
        <time>2013-04-14T10:28:37Z</time>
      </trkpt>
      <trkpt lat="42.94238" lon="-0.68694">
        <ele>1358</ele>
        <time>2013-04-14T10:28:48Z</time>
      </trkpt>
      <trkpt lat="42.94247" lon="-0.68681">
        <ele>1357</ele>
        <time>2013-04-14T10:29:00Z</time>
      </trkpt>
      <trkpt lat="42.94252" lon="-0.68693">
        <ele>1355</ele>
        <time>2013-04-14T10:29:14Z</time>
      </trkpt>
      <trkpt lat="42.94256" lon="-0.68701">
        <ele>1354</ele>
        <time>2013-04-14T10:29:30Z</time>
      </trkpt>
      <trkpt lat="42.94257" lon="-0.68706">
        <ele>1354</ele>
        <time>2013-04-14T10:29:50Z</time>
      </trkpt>
      <trkpt lat="42.94255" lon="-0.68696">
        <ele>1355</ele>
        <time>2013-04-14T10:30:10Z</time>
      </trkpt>
      <trkpt lat="42.94258" lon="-0.68695">
        <ele>1353</ele>
        <time>2013-04-14T10:30:24Z</time>
      </trkpt>
      <trkpt lat="42.94254" lon="-0.68695">
        <ele>1355</ele>
        <time>2013-04-14T10:30:43Z</time>
      </trkpt>
      <trkpt lat="42.9425" lon="-0.68692">
        <ele>1355</ele>
        <time>2013-04-14T10:30:59Z</time>
      </trkpt>
      <trkpt lat="42.94262" lon="-0.68691">
        <ele>1355</ele>
        <time>2013-04-14T10:31:11Z</time>
      </trkpt>
      <trkpt lat="42.94265" lon="-0.68692">
        <ele>1355</ele>
        <time>2013-04-14T10:31:23Z</time>
      </trkpt>
      <trkpt lat="42.94263" lon="-0.68697">
        <ele>1355</ele>
        <time>2013-04-14T10:31:38Z</time>
      </trkpt>
      <trkpt lat="42.94261" lon="-0.68696">
        <ele>1356</ele>
        <time>2013-04-14T10:31:58Z</time>
      </trkpt>
      <trkpt lat="42.94259" lon="-0.68686">
        <ele>1356</ele>
        <time>2013-04-14T10:32:15Z</time>
      </trkpt>
      <trkpt lat="42.9426" lon="-0.68686">
        <ele>1356</ele>
        <time>2013-04-14T10:32:30Z</time>
      </trkpt>
      <trkpt lat="42.94263" lon="-0.68685">
        <ele>1357</ele>
        <time>2013-04-14T10:32:35Z</time>
      </trkpt>
      <trkpt lat="42.94265" lon="-0.6868">
        <ele>1358</ele>
        <time>2013-04-14T10:32:49Z</time>
      </trkpt>
      <trkpt lat="42.94267" lon="-0.68683">
        <ele>1359</ele>
        <time>2013-04-14T10:33:07Z</time>
      </trkpt>
      <trkpt lat="42.94273" lon="-0.68687">
        <ele>1361</ele>
        <time>2013-04-14T10:33:21Z</time>
      </trkpt>
      <trkpt lat="42.94281" lon="-0.68683">
        <ele>1361</ele>
        <time>2013-04-14T10:33:34Z</time>
      </trkpt>
      <trkpt lat="42.9428" lon="-0.68678">
        <ele>1360</ele>
        <time>2013-04-14T10:33:51Z</time>
      </trkpt>
      <trkpt lat="42.94283" lon="-0.6867">
        <ele>1361</ele>
        <time>2013-04-14T10:34:06Z</time>
      </trkpt>
      <trkpt lat="42.94284" lon="-0.68669">
        <ele>1361</ele>
        <time>2013-04-14T10:34:10Z</time>
      </trkpt>
      <trkpt lat="42.9429" lon="-0.68661">
        <ele>1359</ele>
        <time>2013-04-14T10:34:28Z</time>
      </trkpt>
      <trkpt lat="42.9429" lon="-0.68658">
        <ele>1359</ele>
        <time>2013-04-14T10:34:38Z</time>
      </trkpt>
      <trkpt lat="42.94295" lon="-0.68638">
        <ele>1357</ele>
        <time>2013-04-14T10:34:48Z</time>
      </trkpt>
      <trkpt lat="42.94298" lon="-0.68625">
        <ele>1356</ele>
        <time>2013-04-14T10:34:56Z</time>
      </trkpt>
      <trkpt lat="42.94301" lon="-0.68619">
        <ele>1355</ele>
        <time>2013-04-14T10:35:00Z</time>
      </trkpt>
      <trkpt lat="42.94302" lon="-0.68619">
        <ele>1355</ele>
        <time>2013-04-14T10:35:01Z</time>
      </trkpt>
      <trkpt lat="42.94306" lon="-0.686">
        <ele>1355</ele>
        <time>2013-04-14T10:35:13Z</time>
      </trkpt>
      <trkpt lat="42.94304" lon="-0.68597">
        <ele>1355</ele>
        <time>2013-04-14T10:35:30Z</time>
      </trkpt>
      <trkpt lat="42.94301" lon="-0.68593">
        <ele>1356</ele>
        <time>2013-04-14T10:35:49Z</time>
      </trkpt>
      <trkpt lat="42.94304" lon="-0.68594">
        <ele>1354</ele>
        <time>2013-04-14T10:36:06Z</time>
      </trkpt>
      <trkpt lat="42.94305" lon="-0.68589">
        <ele>1354</ele>
        <time>2013-04-14T10:36:22Z</time>
      </trkpt>
      <trkpt lat="42.94305" lon="-0.6859">
        <ele>1355</ele>
        <time>2013-04-14T10:36:48Z</time>
      </trkpt>
      <trkpt lat="42.94304" lon="-0.68583">
        <ele>1352</ele>
        <time>2013-04-14T10:37:04Z</time>
      </trkpt>
      <trkpt lat="42.94302" lon="-0.68577">
        <ele>1353</ele>
        <time>2013-04-14T10:37:38Z</time>
      </trkpt>
      <trkpt lat="42.94304" lon="-0.68578">
        <ele>1353</ele>
        <time>2013-04-14T10:38:10Z</time>
      </trkpt>
      <trkpt lat="42.94301" lon="-0.68571">
        <ele>1353</ele>
        <time>2013-04-14T10:38:38Z</time>
      </trkpt>
      <trkpt lat="42.94304" lon="-0.6857">
        <ele>1353</ele>
        <time>2013-04-14T10:39:05Z</time>
      </trkpt>
      <trkpt lat="42.94306" lon="-0.68569">
        <ele>1352</ele>
        <time>2013-04-14T10:39:36Z</time>
      </trkpt>
      <trkpt lat="42.94312" lon="-0.68575">
        <ele>1353</ele>
        <time>2013-04-14T10:40:06Z</time>
      </trkpt>
      <trkpt lat="42.94307" lon="-0.6857">
        <ele>1353</ele>
        <time>2013-04-14T10:40:35Z</time>
      </trkpt>
      <trkpt lat="42.94302" lon="-0.68573">
        <ele>1352</ele>
        <time>2013-04-14T10:41:06Z</time>
      </trkpt>
      <trkpt lat="42.94293" lon="-0.68584">
        <ele>1352</ele>
        <time>2013-04-14T10:41:35Z</time>
      </trkpt>
      <trkpt lat="42.94297" lon="-0.68583">
        <ele>1352</ele>
        <time>2013-04-14T10:42:06Z</time>
      </trkpt>
      <trkpt lat="42.94285" lon="-0.68582">
        <ele>1352</ele>
        <time>2013-04-14T10:42:44Z</time>
      </trkpt>
      <trkpt lat="42.94297" lon="-0.68578">
        <ele>1351</ele>
        <time>2013-04-14T10:43:15Z</time>
      </trkpt>
      <trkpt lat="42.94309" lon="-0.68583">
        <ele>1352</ele>
        <time>2013-04-14T10:43:50Z</time>
      </trkpt>
      <trkpt lat="42.94302" lon="-0.68582">
        <ele>1351</ele>
        <time>2013-04-14T10:44:24Z</time>
      </trkpt>
      <trkpt lat="42.94301" lon="-0.68582">
        <ele>1352</ele>
        <time>2013-04-14T10:45:01Z</time>
      </trkpt>
      <trkpt lat="42.94312" lon="-0.68582">
        <ele>1351</ele>
        <time>2013-04-14T10:45:33Z</time>
      </trkpt>
      <trkpt lat="42.9432" lon="-0.68581">
        <ele>1352</ele>
        <time>2013-04-14T10:46:07Z</time>
      </trkpt>
      <trkpt lat="42.94327" lon="-0.68586">
        <ele>1352</ele>
        <time>2013-04-14T10:46:42Z</time>
      </trkpt>
      <trkpt lat="42.94314" lon="-0.68587">
        <ele>1353</ele>
        <time>2013-04-14T10:47:18Z</time>
      </trkpt>
      <trkpt lat="42.94308" lon="-0.68578">
        <ele>1353</ele>
        <time>2013-04-14T10:47:47Z</time>
      </trkpt>
      <trkpt lat="42.94303" lon="-0.68584">
        <ele>1353</ele>
        <time>2013-04-14T10:48:19Z</time>
      </trkpt>
      <trkpt lat="42.94305" lon="-0.68584">
        <ele>1352</ele>
        <time>2013-04-14T10:48:49Z</time>
      </trkpt>
      <trkpt lat="42.94308" lon="-0.68583">
        <ele>1351</ele>
        <time>2013-04-14T10:49:25Z</time>
      </trkpt>
      <trkpt lat="42.94309" lon="-0.68583">
        <ele>1351</ele>
        <time>2013-04-14T10:49:55Z</time>
      </trkpt>
      <trkpt lat="42.9431" lon="-0.6858">
        <ele>1351</ele>
        <time>2013-04-14T10:50:31Z</time>
      </trkpt>
      <trkpt lat="42.94306" lon="-0.68577">
        <ele>1352</ele>
        <time>2013-04-14T10:51:02Z</time>
      </trkpt>
      <trkpt lat="42.94311" lon="-0.68579">
        <ele>1352</ele>
        <time>2013-04-14T10:51:38Z</time>
      </trkpt>
      <trkpt lat="42.94304" lon="-0.68577">
        <ele>1352</ele>
        <time>2013-04-14T10:52:08Z</time>
      </trkpt>
      <trkpt lat="42.943" lon="-0.68579">
        <ele>1352</ele>
        <time>2013-04-14T10:52:40Z</time>
      </trkpt>
      <trkpt lat="42.94295" lon="-0.68584">
        <ele>1351</ele>
        <time>2013-04-14T10:53:18Z</time>
      </trkpt>
      <trkpt lat="42.94297" lon="-0.68578">
        <ele>1352</ele>
        <time>2013-04-14T10:53:52Z</time>
      </trkpt>
      <trkpt lat="42.94297" lon="-0.68573">
        <ele>1351</ele>
        <time>2013-04-14T10:54:20Z</time>
      </trkpt>
      <trkpt lat="42.94293" lon="-0.68571">
        <ele>1351</ele>
        <time>2013-04-14T10:54:50Z</time>
      </trkpt>
      <trkpt lat="42.94293" lon="-0.68574">
        <ele>1350</ele>
        <time>2013-04-14T10:55:27Z</time>
      </trkpt>
      <trkpt lat="42.94294" lon="-0.68583">
        <ele>1350</ele>
        <time>2013-04-14T10:56:04Z</time>
      </trkpt>
      <trkpt lat="42.94297" lon="-0.68579">
        <ele>1350</ele>
        <time>2013-04-14T10:56:36Z</time>
      </trkpt>
      <trkpt lat="42.94295" lon="-0.68575">
        <ele>1350</ele>
        <time>2013-04-14T10:57:14Z</time>
      </trkpt>
      <trkpt lat="42.94297" lon="-0.68568">
        <ele>1350</ele>
        <time>2013-04-14T10:57:47Z</time>
      </trkpt>
      <trkpt lat="42.94291" lon="-0.68569">
        <ele>1351</ele>
        <time>2013-04-14T10:58:19Z</time>
      </trkpt>
      <trkpt lat="42.94286" lon="-0.68569">
        <ele>1352</ele>
        <time>2013-04-14T10:58:54Z</time>
      </trkpt>
      <trkpt lat="42.94296" lon="-0.68567">
        <ele>1351</ele>
        <time>2013-04-14T10:59:28Z</time>
      </trkpt>
      <trkpt lat="42.94295" lon="-0.68572">
        <ele>1352</ele>
        <time>2013-04-14T11:00:05Z</time>
      </trkpt>
      <trkpt lat="42.94294" lon="-0.6857">
        <ele>1351</ele>
        <time>2013-04-14T11:00:36Z</time>
      </trkpt>
      <trkpt lat="42.94291" lon="-0.68559">
        <ele>1352</ele>
        <time>2013-04-14T11:01:05Z</time>
      </trkpt>
      <trkpt lat="42.94293" lon="-0.6857">
        <ele>1353</ele>
        <time>2013-04-14T11:01:32Z</time>
      </trkpt>
      <trkpt lat="42.94295" lon="-0.68575">
        <ele>1353</ele>
        <time>2013-04-14T11:02:08Z</time>
      </trkpt>
      <trkpt lat="42.94286" lon="-0.68578">
        <ele>1354</ele>
        <time>2013-04-14T11:02:46Z</time>
      </trkpt>
      <trkpt lat="42.94288" lon="-0.68578">
        <ele>1354</ele>
        <time>2013-04-14T11:03:15Z</time>
      </trkpt>
      <trkpt lat="42.94299" lon="-0.68575">
        <ele>1354</ele>
        <time>2013-04-14T11:03:50Z</time>
      </trkpt>
      <trkpt lat="42.94297" lon="-0.68574">
        <ele>1354</ele>
        <time>2013-04-14T11:04:18Z</time>
      </trkpt>
      <trkpt lat="42.94293" lon="-0.68573">
        <ele>1355</ele>
        <time>2013-04-14T11:04:49Z</time>
      </trkpt>
      <trkpt lat="42.9429" lon="-0.68577">
        <ele>1355</ele>
        <time>2013-04-14T11:05:15Z</time>
      </trkpt>
      <trkpt lat="42.94293" lon="-0.68584">
        <ele>1355</ele>
        <time>2013-04-14T11:05:52Z</time>
      </trkpt>
      <trkpt lat="42.94301" lon="-0.6858">
        <ele>1356</ele>
        <time>2013-04-14T11:06:21Z</time>
      </trkpt>
      <trkpt lat="42.94296" lon="-0.6858">
        <ele>1356</ele>
        <time>2013-04-14T11:06:51Z</time>
      </trkpt>
      <trkpt lat="42.943" lon="-0.68577">
        <ele>1355</ele>
        <time>2013-04-14T11:07:12Z</time>
      </trkpt>
      <trkpt lat="42.94297" lon="-0.68576">
        <ele>1355</ele>
        <time>2013-04-14T11:07:31Z</time>
      </trkpt>
      <trkpt lat="42.94298" lon="-0.68566">
        <ele>1355</ele>
        <time>2013-04-14T11:08:04Z</time>
      </trkpt>
      <trkpt lat="42.943" lon="-0.68561">
        <ele>1356</ele>
        <time>2013-04-14T11:08:37Z</time>
      </trkpt>
      <trkpt lat="42.94302" lon="-0.68562">
        <ele>1356</ele>
        <time>2013-04-14T11:09:12Z</time>
      </trkpt>
      <trkpt lat="42.94302" lon="-0.6857">
        <ele>1358</ele>
        <time>2013-04-14T11:09:34Z</time>
      </trkpt>
      <trkpt lat="42.94301" lon="-0.68566">
        <ele>1357</ele>
        <time>2013-04-14T11:10:00Z</time>
      </trkpt>
      <trkpt lat="42.94298" lon="-0.68569">
        <ele>1356</ele>
        <time>2013-04-14T11:10:25Z</time>
      </trkpt>
      <trkpt lat="42.94302" lon="-0.68564">
        <ele>1356</ele>
        <time>2013-04-14T11:10:56Z</time>
      </trkpt>
      <trkpt lat="42.94302" lon="-0.68565">
        <ele>1358</ele>
        <time>2013-04-14T11:11:19Z</time>
      </trkpt>
      <trkpt lat="42.94295" lon="-0.68565">
        <ele>1356</ele>
        <time>2013-04-14T11:11:37Z</time>
      </trkpt>
      <trkpt lat="42.94296" lon="-0.68565">
        <ele>1357</ele>
        <time>2013-04-14T11:11:53Z</time>
      </trkpt>
      <trkpt lat="42.94298" lon="-0.68554">
        <ele>1358</ele>
        <time>2013-04-14T11:12:07Z</time>
      </trkpt>
      <trkpt lat="42.94298" lon="-0.68547">
        <ele>1358</ele>
        <time>2013-04-14T11:12:19Z</time>
      </trkpt>
      <trkpt lat="42.94297" lon="-0.68535">
        <ele>1358</ele>
        <time>2013-04-14T11:12:31Z</time>
      </trkpt>
      <trkpt lat="42.94295" lon="-0.68521">
        <ele>1358</ele>
        <time>2013-04-14T11:12:44Z</time>
      </trkpt>
      <trkpt lat="42.94294" lon="-0.68505">
        <ele>1356</ele>
        <time>2013-04-14T11:12:59Z</time>
      </trkpt>
      <trkpt lat="42.94292" lon="-0.68498">
        <ele>1355</ele>
        <time>2013-04-14T11:13:09Z</time>
      </trkpt>
      <trkpt lat="42.94287" lon="-0.68483">
        <ele>1354</ele>
        <time>2013-04-14T11:13:23Z</time>
      </trkpt>
      <trkpt lat="42.94285" lon="-0.68475">
        <ele>1352</ele>
        <time>2013-04-14T11:13:35Z</time>
      </trkpt>
      <trkpt lat="42.94285" lon="-0.68462">
        <ele>1349</ele>
        <time>2013-04-14T11:13:51Z</time>
      </trkpt>
      <trkpt lat="42.94282" lon="-0.68445">
        <ele>1349</ele>
        <time>2013-04-14T11:14:05Z</time>
      </trkpt>
      <trkpt lat="42.94285" lon="-0.68431">
        <ele>1347</ele>
        <time>2013-04-14T11:14:19Z</time>
      </trkpt>
      <trkpt lat="42.94282" lon="-0.68423">
        <ele>1344</ele>
        <time>2013-04-14T11:14:31Z</time>
      </trkpt>
      <trkpt lat="42.94283" lon="-0.68416">
        <ele>1343</ele>
        <time>2013-04-14T11:14:43Z</time>
      </trkpt>
      <trkpt lat="42.94284" lon="-0.68415">
        <ele>1342</ele>
        <time>2013-04-14T11:14:45Z</time>
      </trkpt>
      <trkpt lat="42.94284" lon="-0.68408">
        <ele>1340</ele>
        <time>2013-04-14T11:14:52Z</time>
      </trkpt>
      <trkpt lat="42.94283" lon="-0.68396">
        <ele>1337</ele>
        <time>2013-04-14T11:15:05Z</time>
      </trkpt>
      <trkpt lat="42.94283" lon="-0.68394">
        <ele>1335</ele>
        <time>2013-04-14T11:15:19Z</time>
      </trkpt>
      <trkpt lat="42.9428" lon="-0.68379">
        <ele>1332</ele>
        <time>2013-04-14T11:15:31Z</time>
      </trkpt>
      <trkpt lat="42.94278" lon="-0.68369">
        <ele>1329</ele>
        <time>2013-04-14T11:15:44Z</time>
      </trkpt>
      <trkpt lat="42.94279" lon="-0.68366">
        <ele>1328</ele>
        <time>2013-04-14T11:15:47Z</time>
      </trkpt>
      <trkpt lat="42.94274" lon="-0.68362">
        <ele>1325</ele>
        <time>2013-04-14T11:15:58Z</time>
      </trkpt>
      <trkpt lat="42.94272" lon="-0.68354">
        <ele>1323</ele>
        <time>2013-04-14T11:16:10Z</time>
      </trkpt>
      <trkpt lat="42.94273" lon="-0.68346">
        <ele>1320</ele>
        <time>2013-04-14T11:16:23Z</time>
      </trkpt>
      <trkpt lat="42.94272" lon="-0.68337">
        <ele>1318</ele>
        <time>2013-04-14T11:16:37Z</time>
      </trkpt>
      <trkpt lat="42.94271" lon="-0.68333">
        <ele>1317</ele>
        <time>2013-04-14T11:16:42Z</time>
      </trkpt>
      <trkpt lat="42.94269" lon="-0.68324">
        <ele>1313</ele>
        <time>2013-04-14T11:16:57Z</time>
      </trkpt>
      <trkpt lat="42.94272" lon="-0.68308">
        <ele>1311</ele>
        <time>2013-04-14T11:17:11Z</time>
      </trkpt>
      <trkpt lat="42.94268" lon="-0.68298">
        <ele>1308</ele>
        <time>2013-04-14T11:17:24Z</time>
      </trkpt>
      <trkpt lat="42.94268" lon="-0.6829">
        <ele>1306</ele>
        <time>2013-04-14T11:17:37Z</time>
      </trkpt>
      <trkpt lat="42.94264" lon="-0.68281">
        <ele>1304</ele>
        <time>2013-04-14T11:17:49Z</time>
      </trkpt>
      <trkpt lat="42.94266" lon="-0.68271">
        <ele>1301</ele>
        <time>2013-04-14T11:17:59Z</time>
      </trkpt>
      <trkpt lat="42.94263" lon="-0.68262">
        <ele>1298</ele>
        <time>2013-04-14T11:18:11Z</time>
      </trkpt>
      <trkpt lat="42.9426" lon="-0.68254">
        <ele>1295</ele>
        <time>2013-04-14T11:18:20Z</time>
      </trkpt>
      <trkpt lat="42.9426" lon="-0.68242">
        <ele>1293</ele>
        <time>2013-04-14T11:18:30Z</time>
      </trkpt>
      <trkpt lat="42.94261" lon="-0.68224">
        <ele>1291</ele>
        <time>2013-04-14T11:18:44Z</time>
      </trkpt>
      <trkpt lat="42.94259" lon="-0.68212">
        <ele>1289</ele>
        <time>2013-04-14T11:18:56Z</time>
      </trkpt>
      <trkpt lat="42.94253" lon="-0.68197">
        <ele>1287</ele>
        <time>2013-04-14T11:19:10Z</time>
      </trkpt>
      <trkpt lat="42.94253" lon="-0.6819">
        <ele>1285</ele>
        <time>2013-04-14T11:19:24Z</time>
      </trkpt>
      <trkpt lat="42.94253" lon="-0.68183">
        <ele>1282</ele>
        <time>2013-04-14T11:19:36Z</time>
      </trkpt>
      <trkpt lat="42.94256" lon="-0.68176">
        <ele>1280</ele>
        <time>2013-04-14T11:19:48Z</time>
      </trkpt>
      <trkpt lat="42.94258" lon="-0.68173">
        <ele>1278</ele>
        <time>2013-04-14T11:19:51Z</time>
      </trkpt>
      <trkpt lat="42.94261" lon="-0.68168">
        <ele>1276</ele>
        <time>2013-04-14T11:20:05Z</time>
      </trkpt>
      <trkpt lat="42.94255" lon="-0.68165">
        <ele>1274</ele>
        <time>2013-04-14T11:20:17Z</time>
      </trkpt>
      <trkpt lat="42.94251" lon="-0.68165">
        <ele>1271</ele>
        <time>2013-04-14T11:20:27Z</time>
      </trkpt>
      <trkpt lat="42.94249" lon="-0.68164">
        <ele>1270</ele>
        <time>2013-04-14T11:20:32Z</time>
      </trkpt>
      <trkpt lat="42.94246" lon="-0.68163">
        <ele>1268</ele>
        <time>2013-04-14T11:20:38Z</time>
      </trkpt>
      <trkpt lat="42.94244" lon="-0.68165">
        <ele>1268</ele>
        <time>2013-04-14T11:20:43Z</time>
      </trkpt>
      <trkpt lat="42.94244" lon="-0.6817">
        <ele>1265</ele>
        <time>2013-04-14T11:20:53Z</time>
      </trkpt>
      <trkpt lat="42.94245" lon="-0.68166">
        <ele>1265</ele>
        <time>2013-04-14T11:21:14Z</time>
      </trkpt>
      <trkpt lat="42.94245" lon="-0.68163">
        <ele>1263</ele>
        <time>2013-04-14T11:21:28Z</time>
      </trkpt>
      <trkpt lat="42.94248" lon="-0.68163">
        <ele>1261</ele>
        <time>2013-04-14T11:21:41Z</time>
      </trkpt>
      <trkpt lat="42.94249" lon="-0.6816">
        <ele>1259</ele>
        <time>2013-04-14T11:21:46Z</time>
      </trkpt>
      <trkpt lat="42.94245" lon="-0.68153">
        <ele>1256</ele>
        <time>2013-04-14T11:21:57Z</time>
      </trkpt>
      <trkpt lat="42.94244" lon="-0.68153">
        <ele>1255</ele>
        <time>2013-04-14T11:21:58Z</time>
      </trkpt>
      <trkpt lat="42.94243" lon="-0.68153">
        <ele>1255</ele>
        <time>2013-04-14T11:22:03Z</time>
      </trkpt>
      <trkpt lat="42.94241" lon="-0.68152">
        <ele>1253</ele>
        <time>2013-04-14T11:22:16Z</time>
      </trkpt>
      <trkpt lat="42.94239" lon="-0.6815">
        <ele>1251</ele>
        <time>2013-04-14T11:22:28Z</time>
      </trkpt>
      <trkpt lat="42.94239" lon="-0.68147">
        <ele>1248</ele>
        <time>2013-04-14T11:22:39Z</time>
      </trkpt>
      <trkpt lat="42.94246" lon="-0.68141">
        <ele>1245</ele>
        <time>2013-04-14T11:22:51Z</time>
      </trkpt>
      <trkpt lat="42.94249" lon="-0.68137">
        <ele>1244</ele>
        <time>2013-04-14T11:22:56Z</time>
      </trkpt>
      <trkpt lat="42.94259" lon="-0.6813">
        <ele>1241</ele>
        <time>2013-04-14T11:23:10Z</time>
      </trkpt>
      <trkpt lat="42.94258" lon="-0.68123">
        <ele>1238</ele>
        <time>2013-04-14T11:23:20Z</time>
      </trkpt>
      <trkpt lat="42.9426" lon="-0.68119">
        <ele>1236</ele>
        <time>2013-04-14T11:23:33Z</time>
      </trkpt>
      <trkpt lat="42.94259" lon="-0.68117">
        <ele>1234</ele>
        <time>2013-04-14T11:23:40Z</time>
      </trkpt>
      <trkpt lat="42.94257" lon="-0.68112">
        <ele>1231</ele>
        <time>2013-04-14T11:23:50Z</time>
      </trkpt>
      <trkpt lat="42.94262" lon="-0.68101">
        <ele>1229</ele>
        <time>2013-04-14T11:24:04Z</time>
      </trkpt>
      <trkpt lat="42.94256" lon="-0.68097">
        <ele>1226</ele>
        <time>2013-04-14T11:24:14Z</time>
      </trkpt>
      <trkpt lat="42.94253" lon="-0.68085">
        <ele>1224</ele>
        <time>2013-04-14T11:24:27Z</time>
      </trkpt>
      <trkpt lat="42.94249" lon="-0.6808">
        <ele>1221</ele>
        <time>2013-04-14T11:24:38Z</time>
      </trkpt>
      <trkpt lat="42.94242" lon="-0.68076">
        <ele>1219</ele>
        <time>2013-04-14T11:24:51Z</time>
      </trkpt>
      <trkpt lat="42.94239" lon="-0.68072">
        <ele>1216</ele>
        <time>2013-04-14T11:25:02Z</time>
      </trkpt>
      <trkpt lat="42.9424" lon="-0.68064">
        <ele>1213</ele>
        <time>2013-04-14T11:25:13Z</time>
      </trkpt>
      <trkpt lat="42.94249" lon="-0.68057">
        <ele>1211</ele>
        <time>2013-04-14T11:25:26Z</time>
      </trkpt>
      <trkpt lat="42.94256" lon="-0.68054">
        <ele>1210</ele>
        <time>2013-04-14T11:25:35Z</time>
      </trkpt>
      <trkpt lat="42.94258" lon="-0.68053">
        <ele>1210</ele>
        <time>2013-04-14T11:25:37Z</time>
      </trkpt>
      <trkpt lat="42.94267" lon="-0.68055">
        <ele>1208</ele>
        <time>2013-04-14T11:25:50Z</time>
      </trkpt>
      <trkpt lat="42.94269" lon="-0.68058">
        <ele>1206</ele>
        <time>2013-04-14T11:26:00Z</time>
      </trkpt>
      <trkpt lat="42.94272" lon="-0.68059">
        <ele>1206</ele>
        <time>2013-04-14T11:26:03Z</time>
      </trkpt>
      <trkpt lat="42.94274" lon="-0.68056">
        <ele>1202</ele>
        <time>2013-04-14T11:26:15Z</time>
      </trkpt>
      <trkpt lat="42.94274" lon="-0.68054">
        <ele>1201</ele>
        <time>2013-04-14T11:26:19Z</time>
      </trkpt>
      <trkpt lat="42.94279" lon="-0.68056">
        <ele>1199</ele>
        <time>2013-04-14T11:26:31Z</time>
      </trkpt>
      <trkpt lat="42.94285" lon="-0.68061">
        <ele>1196</ele>
        <time>2013-04-14T11:26:43Z</time>
      </trkpt>
      <trkpt lat="42.94291" lon="-0.68066">
        <ele>1194</ele>
        <time>2013-04-14T11:26:58Z</time>
      </trkpt>
      <trkpt lat="42.94293" lon="-0.68062">
        <ele>1191</ele>
        <time>2013-04-14T11:27:10Z</time>
      </trkpt>
      <trkpt lat="42.94295" lon="-0.68061">
        <ele>1190</ele>
        <time>2013-04-14T11:27:14Z</time>
      </trkpt>
      <trkpt lat="42.94293" lon="-0.68059">
        <ele>1187</ele>
        <time>2013-04-14T11:27:26Z</time>
      </trkpt>
      <trkpt lat="42.94294" lon="-0.6806">
        <ele>1185</ele>
        <time>2013-04-14T11:27:31Z</time>
      </trkpt>
      <trkpt lat="42.943" lon="-0.68057">
        <ele>1183</ele>
        <time>2013-04-14T11:27:46Z</time>
      </trkpt>
      <trkpt lat="42.94302" lon="-0.68057">
        <ele>1181</ele>
        <time>2013-04-14T11:27:53Z</time>
      </trkpt>
      <trkpt lat="42.9431" lon="-0.68055">
        <ele>1178</ele>
        <time>2013-04-14T11:28:07Z</time>
      </trkpt>
      <trkpt lat="42.94311" lon="-0.68052">
        <ele>1178</ele>
        <time>2013-04-14T11:28:20Z</time>
      </trkpt>
      <trkpt lat="42.94315" lon="-0.68047">
        <ele>1175</ele>
        <time>2013-04-14T11:28:29Z</time>
      </trkpt>
      <trkpt lat="42.94315" lon="-0.68047">
        <ele>1175</ele>
        <time>2013-04-14T11:28:30Z</time>
      </trkpt>
      <trkpt lat="42.94313" lon="-0.68042">
        <ele>1172</ele>
        <time>2013-04-14T11:28:45Z</time>
      </trkpt>
      <trkpt lat="42.94319" lon="-0.68038">
        <ele>1170</ele>
        <time>2013-04-14T11:28:57Z</time>
      </trkpt>
      <trkpt lat="42.9432" lon="-0.68035">
        <ele>1167</ele>
        <time>2013-04-14T11:29:10Z</time>
      </trkpt>
      <trkpt lat="42.94321" lon="-0.68028">
        <ele>1163</ele>
        <time>2013-04-14T11:29:22Z</time>
      </trkpt>
      <trkpt lat="42.94322" lon="-0.68025">
        <ele>1162</ele>
        <time>2013-04-14T11:29:33Z</time>
      </trkpt>
      <trkpt lat="42.94317" lon="-0.68028">
        <ele>1162</ele>
        <time>2013-04-14T11:29:58Z</time>
      </trkpt>
      <trkpt lat="42.94316" lon="-0.68028">
        <ele>1161</ele>
        <time>2013-04-14T11:30:13Z</time>
      </trkpt>
      <trkpt lat="42.94316" lon="-0.68017">
        <ele>1158</ele>
        <time>2013-04-14T11:30:25Z</time>
      </trkpt>
      <trkpt lat="42.94323" lon="-0.68011">
        <ele>1156</ele>
        <time>2013-04-14T11:30:38Z</time>
      </trkpt>
      <trkpt lat="42.94326" lon="-0.6801">
        <ele>1155</ele>
        <time>2013-04-14T11:30:55Z</time>
      </trkpt>
      <trkpt lat="42.94325" lon="-0.68008">
        <ele>1153</ele>
        <time>2013-04-14T11:31:00Z</time>
      </trkpt>
      <trkpt lat="42.94327" lon="-0.68003">
        <ele>1151</ele>
        <time>2013-04-14T11:31:11Z</time>
      </trkpt>
      <trkpt lat="42.94324" lon="-0.67994">
        <ele>1148</ele>
        <time>2013-04-14T11:31:24Z</time>
      </trkpt>
      <trkpt lat="42.94319" lon="-0.6799">
        <ele>1146</ele>
        <time>2013-04-14T11:31:35Z</time>
      </trkpt>
      <trkpt lat="42.94317" lon="-0.67987">
        <ele>1145</ele>
        <time>2013-04-14T11:31:38Z</time>
      </trkpt>
      <trkpt lat="42.9431" lon="-0.67989">
        <ele>1142</ele>
        <time>2013-04-14T11:31:51Z</time>
      </trkpt>
      <trkpt lat="42.94313" lon="-0.67986">
        <ele>1139</ele>
        <time>2013-04-14T11:32:03Z</time>
      </trkpt>
      <trkpt lat="42.94314" lon="-0.67985">
        <ele>1139</ele>
        <time>2013-04-14T11:32:04Z</time>
      </trkpt>
      <trkpt lat="42.94314" lon="-0.67982">
        <ele>1138</ele>
        <time>2013-04-14T11:32:07Z</time>
      </trkpt>
      <trkpt lat="42.94316" lon="-0.67977">
        <ele>1138</ele>
        <time>2013-04-14T11:32:23Z</time>
      </trkpt>
      <trkpt lat="42.9432" lon="-0.67972">
        <ele>1137</ele>
        <time>2013-04-14T11:32:34Z</time>
      </trkpt>
      <trkpt lat="42.94322" lon="-0.67966">
        <ele>1135</ele>
        <time>2013-04-14T11:32:42Z</time>
      </trkpt>
      <trkpt lat="42.9432" lon="-0.67957">
        <ele>1135</ele>
        <time>2013-04-14T11:32:48Z</time>
      </trkpt>
      <trkpt lat="42.94322" lon="-0.6795">
        <ele>1134</ele>
        <time>2013-04-14T11:32:54Z</time>
      </trkpt>
      <trkpt lat="42.94324" lon="-0.67951">
        <ele>1134</ele>
        <time>2013-04-14T11:32:56Z</time>
      </trkpt>
      <trkpt lat="42.94329" lon="-0.67944">
        <ele>1133</ele>
        <time>2013-04-14T11:33:04Z</time>
      </trkpt>
      <trkpt lat="42.94341" lon="-0.67937">
        <ele>1133</ele>
        <time>2013-04-14T11:33:18Z</time>
      </trkpt>
      <trkpt lat="42.94344" lon="-0.67928">
        <ele>1134</ele>
        <time>2013-04-14T11:33:27Z</time>
      </trkpt>
      <trkpt lat="42.94344" lon="-0.67922">
        <ele>1134</ele>
        <time>2013-04-14T11:33:31Z</time>
      </trkpt>
      <trkpt lat="42.94344" lon="-0.67915">
        <ele>1134</ele>
        <time>2013-04-14T11:33:37Z</time>
      </trkpt>
      <trkpt lat="42.94334" lon="-0.67894">
        <ele>1132</ele>
        <time>2013-04-14T11:33:52Z</time>
      </trkpt>
      <trkpt lat="42.94329" lon="-0.67866">
        <ele>1132</ele>
        <time>2013-04-14T11:34:07Z</time>
      </trkpt>
      <trkpt lat="42.94325" lon="-0.67853">
        <ele>1131</ele>
        <time>2013-04-14T11:34:16Z</time>
      </trkpt>
      <trkpt lat="42.94325" lon="-0.67847">
        <ele>1131</ele>
        <time>2013-04-14T11:34:20Z</time>
      </trkpt>
      <trkpt lat="42.94324" lon="-0.67842">
        <ele>1130</ele>
        <time>2013-04-14T11:34:24Z</time>
      </trkpt>
      <trkpt lat="42.94319" lon="-0.67832">
        <ele>1129</ele>
        <time>2013-04-14T11:34:33Z</time>
      </trkpt>
      <trkpt lat="42.94312" lon="-0.67817">
        <ele>1129</ele>
        <time>2013-04-14T11:34:44Z</time>
      </trkpt>
      <trkpt lat="42.9431" lon="-0.67814">
        <ele>1129</ele>
        <time>2013-04-14T11:34:47Z</time>
      </trkpt>
      <trkpt lat="42.94299" lon="-0.67801">
        <ele>1128</ele>
        <time>2013-04-14T11:35:01Z</time>
      </trkpt>
      <trkpt lat="42.9429" lon="-0.67782">
        <ele>1127</ele>
        <time>2013-04-14T11:35:14Z</time>
      </trkpt>
      <trkpt lat="42.94282" lon="-0.67773">
        <ele>1126</ele>
        <time>2013-04-14T11:35:22Z</time>
      </trkpt>
      <trkpt lat="42.94271" lon="-0.67757">
        <ele>1125</ele>
        <time>2013-04-14T11:35:35Z</time>
      </trkpt>
      <trkpt lat="42.9427" lon="-0.67754">
        <ele>1126</ele>
        <time>2013-04-14T11:35:37Z</time>
      </trkpt>
      <trkpt lat="42.94261" lon="-0.67739">
        <ele>1125</ele>
        <time>2013-04-14T11:35:48Z</time>
      </trkpt>
      <trkpt lat="42.94257" lon="-0.67733">
        <ele>1125</ele>
        <time>2013-04-14T11:35:53Z</time>
      </trkpt>
      <trkpt lat="42.94241" lon="-0.67712">
        <ele>1122</ele>
        <time>2013-04-14T11:36:10Z</time>
      </trkpt>
      <trkpt lat="42.94223" lon="-0.67706">
        <ele>1123</ele>
        <time>2013-04-14T11:36:23Z</time>
      </trkpt>
      <trkpt lat="42.94214" lon="-0.67699">
        <ele>1122</ele>
        <time>2013-04-14T11:36:31Z</time>
      </trkpt>
      <trkpt lat="42.942" lon="-0.67684">
        <ele>1121</ele>
        <time>2013-04-14T11:36:46Z</time>
      </trkpt>
      <trkpt lat="42.94187" lon="-0.67669">
        <ele>1121</ele>
        <time>2013-04-14T11:37:00Z</time>
      </trkpt>
      <trkpt lat="42.94176" lon="-0.67655">
        <ele>1121</ele>
        <time>2013-04-14T11:37:12Z</time>
      </trkpt>
      <trkpt lat="42.94171" lon="-0.67654">
        <ele>1120</ele>
        <time>2013-04-14T11:37:16Z</time>
      </trkpt>
      <trkpt lat="42.94167" lon="-0.67654">
        <ele>1120</ele>
        <time>2013-04-14T11:37:21Z</time>
      </trkpt>
      <trkpt lat="42.94164" lon="-0.6765">
        <ele>1121</ele>
        <time>2013-04-14T11:37:33Z</time>
      </trkpt>
      <trkpt lat="42.94165" lon="-0.67651">
        <ele>1119</ele>
        <time>2013-04-14T11:37:38Z</time>
      </trkpt>
      <trkpt lat="42.94164" lon="-0.67649">
        <ele>1119</ele>
        <time>2013-04-14T11:38:09Z</time>
      </trkpt>
      <trkpt lat="42.94165" lon="-0.67643">
        <ele>1119</ele>
        <time>2013-04-14T11:38:40Z</time>
      </trkpt>
      <trkpt lat="42.94164" lon="-0.67642">
        <ele>1118</ele>
        <time>2013-04-14T11:39:12Z</time>
      </trkpt>
      <trkpt lat="42.94165" lon="-0.67645">
        <ele>1118</ele>
        <time>2013-04-14T11:39:30Z</time>
      </trkpt>
      <trkpt lat="42.94162" lon="-0.67649">
        <ele>1117</ele>
        <time>2013-04-14T11:39:56Z</time>
      </trkpt>
    </trkseg>
  </trk>
</gpx>